     2              OBSERVATION DATA                        RINEX VERSION / TYPE
DAT2RIN 1.01d Dan Johnson 14SEP96 6:30:41 GMT               PGM / RUN BY / DATE
Mojave '96 team Central Washington U                        OBSERVER / AGENCY
14855 TRIMBLE 4000SSI Nav 7.12 Sig 3.04                     REC # / TYPE / VERS
UW-06 TRIMBLE CHOKE                                         ANT # / TYPE
5445 DARWIN                                                 MARKER NAME
 -2387948.0000 -4559779.0000  3756658.0000                  APPROX POSITION XYZ
        0.0614        0.0000        0.0000                  ANTENNA: DELTA H/E/N
     1     1     0                                          WAVELENGTH FACT L1/2
     5    L1    C1    P1    L2    P2                        # / TYPES OF OBSERV
    30                                                      INTERVAL
  1996     9    10     0     0   30.000000                  TIME OF FIRST OBS
  1996     9    10    23    59    0.000000                  TIME OF LAST OBS
                                                            COMMENT
PANGA GPS Data Analysis Center                              COMMENT
Department of Geology                                       COMMENT
Central Washington University                               COMMENT
Ellensburg, WA 98926                                        COMMENT
                                                            COMMENT
http://www.panga.cwu.edu                                    COMMENT
ftp://panga.cwu.edu                                         COMMENT
                                                            COMMENT
    25                                                      # OF SATELLITES
           1   745   745     0   743   743                  PRN / # OF OBS
           2   846   846     0   844   844                  PRN / # OF OBS
           3   915   915     0   903   903                  PRN / # OF OBS
           4   784   785     0   731   731                  PRN / # OF OBS
           5   716   716     0   710   710                  PRN / # OF OBS
           6   779   779     0   771   771                  PRN / # OF OBS
           7   740   740     0   738   738                  PRN / # OF OBS
           9   877   877     0   860   860                  PRN / # OF OBS
          10   890   890     0   881   881                  PRN / # OF OBS
          14   706   707     0   697   697                  PRN / # OF OBS
          15   884   885     0   865   865                  PRN / # OF OBS
          16   904   904     0   894   894                  PRN / # OF OBS
          17   850   850     0   848   848                  PRN / # OF OBS
          18   763   763     0   760   760                  PRN / # OF OBS
          19   847   848     0   846   846                  PRN / # OF OBS
          21   854   854     0   846   846                  PRN / # OF OBS
          22   894   894     0   866   866                  PRN / # OF OBS
          23   795   796     0   793   793                  PRN / # OF OBS
          24   700   700     0   694   694                  PRN / # OF OBS
          25   659   659     0   656   656                  PRN / # OF OBS
          26   937   938     0   928   928                  PRN / # OF OBS
          27   816   816     0   813   813                  PRN / # OF OBS
          28   698     5   699   698   698                  PRN / # OF OBS
          29   847   847     0   844   844                  PRN / # OF OBS
          31   931   933     0   923   923                  PRN / # OF OBS
                                                            END OF HEADER
 96  9 10  0  0 30.0000000  0  6  1 14 15 21 25 29
  26609160.40710  23022999.34400                  20829304.01350  23023005.01640
  -2710674.84610  23072411.75800                  -2064827.19350  23072417.48840
   2634133.12910  21021985.79700                   2064525.28850  21021991.01240
  40850372.37410  23724786.28900                   8237516.45450  23724792.85240
  -2817445.34010  20932279.37500                  -2120584.15650  20932283.26640
  -1704176.32610  23258441.64100                  -1291206.60450  23258446.45740
 96  9 10  0  1  0.0010000  0  6  1 14 15 21 25 29
  26744367.31100  23048728.24700                  20934660.02040  23048733.42740
  -2732269.07400  23068302.34100                  -2081653.83540  23068308.03640
   2692877.26300  21033164.36400                   2110299.92840  21033169.43840
  40997340.15100  23752752.86400                   8352036.74840  23752759.77140
  -2760438.13800  20943127.41100                  -2076162.95240  20943131.27840
  -1707754.89400  23257760.73900                  -1293995.07140  23257765.11040
 96  9 10  0  1 30.0010000  0  6  1 14 15 21 25 29
  26879657.72200  23074473.15300                  21040081.10340  23074478.79040
  -2753767.73300  23064211.09100                  -2098406.01740  23064216.22440
   2752282.58700  21044468.85600                   2156589.78640  21044474.16540
  41144560.09500  23780768.58300                   8466753.56240  23780774.59540
  -2702876.63700  20954080.98900                  -2031309.82640  20954084.90340
  -1711151.23400  23257114.96600                  -1296641.55240  23257119.61840
 96  9 10  0  2  0.0010000  0  6  1 14 15 21 25 29
  27015036.09500  23100234.99700                  21145570.73140  23100240.15340
  -2775170.42500  23060138.48900                  -2115083.41540  23060143.66940
   2812346.64100  21055898.69200                   2203392.94040  21055903.88440
  41292047.31800  23808834.01300                   8581678.59540  23808841.47040
  -2644756.11200  20965141.11400                  -1986021.10240  20965145.04040
  -1714348.52700  23256506.32500                  -1299132.91540  23256511.45840
 96  9 10  0  2 30.0010000  0  6  1 14 15 21 25 29
  27150497.94300  23126012.36400                  21251125.39140  23126018.00140
  -2796485.74800  23056082.32500                  -2131692.73140  23056087.77440
   2873069.44000  21067453.88000                   2250709.39340  21067459.02440
  41439804.61000  23836951.31700                   8696814.08140  23836957.49340
  -2586060.96900  20976310.39600                  -1940284.62540  20976314.27440
  -1717345.20000  23255936.16900                  -1301467.95940  23255940.83340
 96  9 10  0  3  0.0010000  0  6  1 14 15 21 25 29
  27286030.75500  23151803.41900                  21356735.35140  23151808.92740
  -2817721.46100  23052041.23100                  -2148240.03140  23052046.78640
   2934439.90000  21079132.14600                   2298530.52140  21079137.32540
  41587829.88800  23865119.71600                   8812158.42540  23865124.53240
  -2526802.76900  20987586.67700                  -1894109.39940  20987590.74340
  -1720143.96300  23255403.62200                  -1303648.78440  23255408.19240
 96  9 10  0  3 30.0010000  0  6  1 14 15 21 25 29
  27421625.85200  23177606.36400                  21462393.85740  23177611.09940
  -2838877.79400  23048015.52100                  -2164725.45640  23048020.75940
   2996463.05800  21090934.81000                   2346860.24840  21090940.14240
  41736124.12600  23893339.13800                   8927712.31040  23893344.02440
  -2466979.20200  20998970.72400                  -1847493.62540  20998974.76740
  -1722732.32900  23254910.48900                  -1305665.66540  23254915.50540
 96  9 10  0  4  0.0010000  0  6  1 14 15 21 25 29
  27557283.11500  23203421.44200                  21568100.78740  23203427.17340
  -2859952.04800  23044005.45800                  -2181146.92540  23044011.00140
   3059136.50300  21102861.15300                   2395696.69440  21102866.57940
  41884668.30300  23921606.16900                   9043460.98240  23921613.64940
  -2406591.52000  21010462.44200                  -1800438.28340  21010466.49740
  -1725118.58100  23254456.83300                  -1307525.04540  23254461.77840
 96  9 10  0  4 30.0010000  0  6  1 14 15 21 25 29
  27693002.21700  23229247.97400                  21673855.92540  23229252.84940
  -2880936.95400  23040011.82500                  -2197498.77340  23040016.99340
   3122465.55500  21114912.30200                   2445044.00040  21114917.61040
  42033456.27100  23949919.47400                   9159399.58040  23949927.41140
  -2345644.43400  21022060.14600                  -1752947.04040  21022064.15340
  -1727313.83300  23254038.98100                  -1309235.60240  23254044.36040
 96  9 10  0  5  0.0010000  0  6  1 14 15 21 25 29
  27828780.54900  23255085.30200                  21779657.20340  23255089.98940
  -2901826.95800  23036036.39600                  -2213776.67640  23036041.70440
   3186446.77100  21127087.70000                   2494899.48740  21127093.14940
  42182475.83800  23978276.57500                   9275518.69340  23978281.79040
  -2284145.98500  21033762.91100                  -1705026.16540  21033766.88440
  -1729319.11000  23253657.06700                  -1310798.12440  23253662.31740
 96  9 10  0  5 30.0010000  0  6  1 14 15 21 25 29
  27964636.03300  23280938.15300                  21885518.59440  23280943.56740
  -2922616.11000  23032080.28600                  -2229975.99540  23032086.11040
   3251088.76500  21139388.58300                   2545269.86140  21139393.66940
  42331722.40000  24006678.28600                   9391814.65540  24006684.87240
  -2222086.60100  21045572.38000                  -1656668.20040  21045576.39940
  -1731142.99700  23253310.22400                  -1312219.30940  23253315.29840
 96  9 10  0  6  0.0010000  0  6  1 14 15 21 25 29
  28100574.10800  23306806.39600                  21991444.35640  23306811.96240
  -2943303.06600  23028143.41900                  -2246095.68840  23028148.78640
   3316384.11900  21151813.80200                   2596149.34940  21151819.09940
  42481182.64000  24035118.66100                   9508277.08640  24035125.37640
  -2159481.04200  21057485.87200                  -1607884.64640  21057489.72840
  -1732796.28300  23252995.36400                  -1313507.56040  23253000.81340
 96  9 10  0  6 30.0010000  0  6  1 14 15 21 25 29
  28236576.23800  23332686.46600                  22097420.02540  23332691.57540
  -2963888.12500  23024226.66100                  -2262135.97640  23024231.79440
   3382333.82000  21164363.65300                   2647538.71940  21164368.92740
  42630857.36600  24063601.85600                   9624906.74940  24063606.38040
  -2096333.60400  21069502.33300                  -1558678.84740  21069506.42340
  -1734262.54400  23252716.27800                  -1314650.06540  23252721.13040
 96  9 10  0  7  0.0010000  0  6  1 14 15 21 25 29
  28372648.00000  23358580.15300                  22203449.95240  23358585.57940
  -2984356.56600  23020331.41900                  -2278085.39340  23020336.65740
   3448943.63300  21177039.13800                   2699442.45940  21177044.38840
  42780754.24900  24092125.39600                   9741709.42040  24092132.32540
  -2032637.03400  21081623.45800                  -1509045.15840  21081627.38440
  -1735527.51400  23252475.52800                  -1315635.73140  23252480.45040
 96  9 10  0  7 30.0010000  0  6  1 14 15 21 25 29
  28508784.23100  23384485.81000                  22309530.10440  23384491.07140
  -3004696.19300  23016461.10600                  -2293934.43940  23016466.18140
   3516214.33100  21189840.45000                   2751861.17140  21189845.79440
  42930885.79400  24120695.34100                   9858694.96640  24120701.27140
  -1968398.53600  21093847.60600                  -1458989.18240  21093851.50940
  -1736580.75400  23252274.92700                  -1316456.41340  23252280.01340
 96  9 10  0  8  0.0010000  0  6  1 14 15 21 25 29
  28644967.14200  23410400.64600                  22415646.64440  23410405.87240
  -3024910.29700  23012614.70000                  -2309685.67140  23012620.29040
   3584140.35800  21202766.15300                   2804790.53640  21202771.53240
  43081264.46100  24149311.24700                   9975873.07540  24149318.20040
  -1903623.88500  21106173.63800                  -1408515.42540  21106177.59940
  -1737413.32800  23252116.66900                  -1317105.14540  23252121.20440
 96  9 10  0  8 30.0010000  0  6  1 14 15 21 25 29
  28781200.99600  23436325.09900                  22521802.87440  23436330.87640
  -3044998.83300  23008791.62200                  -2325339.06740  23008796.69640
   3652725.45400  21215817.55200                   2858233.45640  21215823.00140
  43231910.64400  24177978.23100                  10093259.67340  24177981.25540
  -1838302.42800  21118603.98900                  -1357615.59140  21118607.92740
  -1738036.18800  23251998.11400                  -1317590.46740  23252003.78640
 96  9 10  0  9  0.0010000  0  6  1 14 15 21 25 29
  28917492.74700  23462260.54400                  22628004.21840  23462266.19240
  -3064967.05500  23004991.95800                  -2340898.69040  23004997.66540
   3721958.46300  21228992.06000                   2912181.24740  21228997.23940
  43382814.14200  24206694.79400                  10210846.79940  24206699.54040
  -1772438.86700  21131137.55200                  -1306293.33040  21131141.41940
  -1738475.28200  23251914.42700                  -1317932.59640  23251919.14940
 96  9 10  0  9 30.0010000  0  6  1 14 15 21 25 29
  29053846.72900  23488208.42700                  22734254.05540  23488214.19240
  -3084826.35100  23001212.57500                  -2356373.45640  23001217.76740
   3791833.56300  21242288.93500                   2966629.36540  21242294.18540
  43533979.21500  24235460.07500                  10328637.70440  24235467.11040
  -1706041.53200  21143772.34900                  -1254555.14440  21143776.38040
  -1738743.07800  23251863.52100                  -1318141.24440  23251867.97440
 96  9 10  0 10  0.0010000  0  6  1 14 15 21 25 29
  29190274.05700  23514169.54400                  22840561.04040  23514174.63040
  -3104573.13700  22997455.02100                  -2371760.53840  22997460.62240
   3862361.17100  21255709.89600                   3021585.93240  21255715.22840
  43685409.79800  24264276.72400                  10446635.45740  24264283.08740
  -1639092.38100  21156512.51300                  -1202386.97340  21156516.45040
  -1738855.25500  23251842.37200                  -1318228.64040  23251847.08340
 96  9 10  0 10 30.0010000  0  6  1 14 15 21 25 29
  29326783.30600  23540146.44200                  22946931.85640  23540151.28240
  -3124200.02700  22993720.26300                  -2387054.20440  22993725.50140
   3933547.41300  21269256.09100                   3077055.72440  21269261.42340
  43837095.02500  24293141.47400                  10564831.75240  24293147.76740
  -1571580.68100  21169359.41100                  -1149780.44840  21169363.41940
  -1738814.64200  23251849.60600                  -1318196.95940  23251854.20040
 96  9 10  0 11  0.0010000  0  6  1 14 15 21 25 29
  29463365.90600  23566137.09100                  23053359.81540  23566142.17740
  -3143690.99900  22990010.91900                  -2402241.97040  22990016.14640
   4005395.36800  21282928.45000                   3133041.12840  21282933.68840
  43989023.86900  24322052.78600                  10683217.77340  24322059.53640
  -1503498.25300  21182315.16900                  -1096729.20540  21182319.25940
  -1738592.22200  23251892.22400                  -1318023.61440  23251897.42740
 96  9 10  0 11 30.0010000  0  6  1 14 15 21 25 29
  29599991.63300  23592136.36400                  23159821.40140  23592141.13440
  -3163071.48300  22986323.06700                  -2417343.62440  22986328.52840
   4077889.87100  21296723.58300                   3189530.34040  21296728.83340
  44141177.88100  24351006.21600                  10801779.27140  24351013.61440
  -1434854.49000  21195377.54400                  -1043240.55140  21195381.58740
  -1738192.21000  23251968.05200                  -1317711.90540  23251972.64640
 96  9 10  0 12  0.0010000  0  6  1 14 15 21 25 29
  29736653.65400  23618142.17700                  23266311.27040  23618147.40340
  -3182343.04100  22982655.99700                  -2432360.39540  22982661.27140
   4151033.01200  21310642.34100                   3246524.98540  21310647.64940
  44293538.75800  24379999.79400                  10920501.98640  24380004.44640
  -1365638.62700  21208549.02100                   -989306.11240  21208552.85340
  -1737610.58500  23252079.07500                  -1317258.66840  23252084.17340
 96  9 10  0 12 30.0010000  0  6  1 14 15 21 25 29
  29873362.18300  23644156.90300                  23372837.37740  23644161.64940
  -3201501.05500  22979010.20000                  -2447288.71040  22979015.82540
   4224828.09600  21324685.08300                   3304027.63240  21324690.38040
  44446101.39300  24409031.19200                  11039381.92340  24409035.99740
  -1295850.84900  21221829.09100                   -934926.02440  21221832.92340
  -1736819.73400  23252229.17700                  -1316642.40240  23252234.22840
 96  9 10  0 13  0.0010000  0  6  1 14 15 21 25 29
  30010116.19900  23670180.15300                  23479398.91640  23670185.21640
  -3220549.16800  22975385.06700                  -2462131.37240  22975389.94240
   4299267.25100  21338850.48100                   3362032.15140  21338855.76740
  44598861.27700  24438100.50500                  11158415.48240  24438107.51740
  -1225505.01800  21235215.56000                   -880111.09140  21235219.55640
  -1735827.84600  23252418.06700                  -1315869.47640  23252423.77440
 96  9 10  0 13 30.0010000  0  6  1 14 15 21 25 29
  30146943.29400  23696217.52800                  23586017.39740  23696222.55640
  -3239486.30900  22971781.56700                  -2476887.58440  22971786.84140
   4374357.62800  21353139.78600                   3420544.12540  21353145.14240
  44751839.02600  24467211.71600                  11277618.86440  24467217.90340
  -1154604.96500  21248707.35600                   -824864.29240  21248711.43540
  -1734646.80000  23252642.88800                  -1314949.16840  23252647.55240
 96  9 10  0 14  0.0020000  0  6  1 14 15 21 25 29
  30283845.71500  23722269.54100                  23692694.56940  23722274.65040
  -3258304.55800  22968200.78300                  -2491551.13540  22968206.27940
   4450093.94100  21367551.77500                   3479559.41340  21367557.08440
  44905038.24700  24496364.05700                  11396994.89140  24496371.87740
  -1083164.64000  21262301.80700                   -769196.50840  21262305.62740
  -1733285.00500  23252901.77500                  -1313888.00640  23252906.39340
 96  9 10  0 14 30.0020000  0  6  1 14 15 21 25 29
  30420818.37500  23748334.06400                  23799426.49340  23748339.64340
  -3276985.21200  22964646.01800                  -2506107.46640  22964651.44340
   4526475.67600  21382086.90000                   3539077.63740  21382092.09240
  45058473.46200  24525562.27500                  11516554.73940  24525569.25240
  -1011183.93700  21275999.47900                   -713107.64440  21276003.48640
  -1731732.87000  23253197.58800                  -1312678.52540  23253202.22940
 96  9 10  0 15  0.0020000  0  6  1 14 15 21 25 29
  30557861.02200  23774412.47900                  23906212.93440  23774417.81140
  -3295522.95200  22961118.02500                  -2520552.45140  22961123.55740
   4603510.13700  21396745.98600                   3599104.47540  21396751.30740
  45212169.85700  24554809.04900                  11636318.12440  24554814.92040
   -938657.24700  21289800.75200                   -656593.34140  21289804.77140
  -1729989.04000  23253529.11900                  -1311319.68940  23253534.00640
 96  9 10  0 15 30.0020000  0  6  1 14 15 21 25 29
  30694965.34000  23800502.71300                  24013047.43040  23800508.46740
  -3313910.23200  22957619.09600                  -2534880.18040  22957624.26440
   4681201.34600  21411530.15800                   3659643.06140  21411535.51440
  45366132.74700  24584108.75200                  11756289.07440  24584113.75640
   -865585.00800  21303705.85400                   -599653.93240  21303709.81440
  -1728038.42100  23253900.38500                  -1309799.71040  23253905.02540
 96  9 10  0 16  0.0020000  0  6  1 14 15 21 25 29
  30832094.15100  23826597.56400                  24119901.02640  23826602.74440
  -3332165.38100  22954145.52500                  -2549104.94940  22954150.36540
   4759530.47200  21426435.74400                   3720678.73540  21426441.18240
  45520334.27900  24613451.56400                  11876446.06940  24613456.79140
   -791985.16000  21317711.40000                   -542303.39440  21317715.36140
  -1725896.37900  23254308.05700                  -1308130.56940  23254312.74440
 96  9 10  0 16 30.0020000  0  6  1 14 15 21 25 29
  30969262.38300  23852699.86100                  24226785.32340  23852705.56840
  -3350283.98100  22950697.67400                  -2563223.33240  22950702.73640
   4838506.72100  21441464.33000                   3782218.64940  21441469.77940
  45674781.90700  24642842.75200                  11996794.82540  24642849.01040
   -717866.15600  21331815.86900                   -484548.33140  21331819.85440
  -1723556.26500  23254753.21300                  -1306307.08840  23254757.72540
 96  9 10  0 17  0.0020000  0  6  1 14 15 21 25 29
  31106473.61000  23878810.14300                  24333703.13140  23878815.75640
  -3368281.41400  22947272.78300                  -2577247.29440  22947277.95140
   4918121.95900  21456614.68200                   3844256.48740  21456620.08440
  45829454.35800  24672275.93200                  12117318.73840  24672281.83840
   -643243.14200  21346016.26800                   -426400.52540  21346020.32240
  -1721025.10900  23255234.93900                  -1304334.74040  23255239.93240
 96  9 10  0 17 30.0020000  0  6  1 14 15 21 25 29
  31243734.00400  23904929.81400                  24440659.25240  23904935.12340
  -3386159.34400  22943870.84600                  -2591178.13440  22943876.37740
   4998376.74600  21471886.68900                   3906792.67240  21471891.95140
  45984339.09400  24701748.64300                  12238008.05340  24701754.15040
   -568117.81200  21360311.88500                   -367861.30340  21360315.78740
  -1718312.99600  23255751.05700                  -1302221.38140  23255756.02540
 96  9 10  0 18  0.0020000  0  6  1 14 15 21 25 29
  31381075.95800  23931065.74400                  24547678.92240  23931071.85040
  -3403908.71000  22940493.22100                  -2605008.78840  22940498.02540
   5079289.89600  21487283.93900                   3969841.86640  21487289.20140
  46139447.00600  24731264.73600                  12358871.29140  24731271.41640
   -492465.66000  21374708.19700                   -308911.57340  21374712.29940
  -1715412.22100  23256303.01000                  -1299961.03140  23256307.65040
 96  9 10  0 18 30.0020000  0  6  1 14 15 21 25 29
  31518493.19100  23957215.11100                  24654757.25440  23957220.72540
  -3421540.10900  22937137.97900                  -2618747.53240  22937143.25240
   5160846.75600  21502803.68900                   4033392.65240  21502809.09240
  46294757.07500  24760819.99400                  12479892.04440  24760824.09640
   -416290.70900  21389203.84600                   -249554.46740  21389207.83040
  -1712332.99300  23256888.95500                  -1297561.61040  23256893.24440
 96  9 10  0 19  0.0020000  0  6  1 14 15 21 25 29
  31655974.18400  23983377.43200                  24761885.28340  23983383.29140
  -3439037.57400  22933808.46300                  -2632381.90740  22933813.86540
   5243045.89100  21518445.66600                   4097443.91240  21518451.24440
  46450256.55200  24790409.84600                  12601060.45440  24790414.11140
   -339566.42300  21403803.93900                   -189769.30640  21403807.83040
  -1709084.99200  23257507.07200                  -1295030.69040  23257511.57240
 96  9 10  0 19 30.0020000  0  6  1 14 15 21 25 29
  31793508.24200  24009548.23600                  24869054.64240  24009554.01440
  -3456380.12500  22930508.32200                  -2645895.57640  22930513.30340
   5325888.33400  21534209.93200                   4161996.44840  21534215.27540
  46605951.06200  24820037.63500                  12722380.73540  24820042.96740
   -262292.52800  21418508.83000                   -129555.88040  21418512.82640
  -1705673.56100  23258155.96300                  -1292372.41440  23258160.25240
 96  9 10  0 20  0.0020000  0  6  1 14 15 21 25 29
  31931080.81400  24035727.47900                  24976254.01840  24035732.90440
  -3473557.41600  22927239.79100                  -2659280.46040  22927245.17040
   5409363.02200  21550094.73600                   4227041.64440  21550100.29140
  46761839.59100  24849702.66600                  12843852.25140  24849707.60040
   -184474.55600  21433316.90000                    -68918.49740  21433320.85040
  -1702096.53700  23258836.93200                  -1289585.10540  23258841.50240
 96  9 10  0 20 30.0020000  0  6  1 14 15 21 25 29
  32068687.00300  24061913.52500                  25083479.58240  24061919.71340
  -3490534.04700  22924008.85400                  -2672508.99140  22924014.02140
   5493482.95100  21566102.29900                   4292589.62540  21566107.78340
  46917948.50300  24879409.63500                  12965495.54540  24879417.39640
   -106095.28600  21448231.99400                     -7843.74240  21448235.93240
  -1698329.43700  23259553.71300                  -1286649.68240  23259558.47140
 96  9 10  0 21  0.0020000  0  6  1 14 15 21 25 29
  32206308.00900  24088101.97100                  25190716.70240  24088107.88940
  -3507323.99200  22920813.94700                  -2685592.05340  22920819.12740
   5578236.49900  21582230.32200                   4358631.33340  21582235.66640
  47074284.18700  24909159.05700                  13087315.56940  24909162.54940
    -27180.91700  21463248.93200                     53647.97940  21463252.89340
  -1694379.35400  23260305.38500                  -1283571.67440  23260310.08440
 96  9 10  0 21 30.0020000  0  6  1 14 15 21 25 29
  32343956.29500  24114295.86100                  25297975.08540  24114301.59240
  -3523938.75100  22917651.95500                  -2698538.60140  22917657.32240
   5663633.84400  21598480.83000                   4425174.70440  21598486.18640
  47230878.06300  24938957.67400                  13209336.61940  24938963.20540
     52273.90900  21478368.61900                    115560.82940  21478372.58040
  -1690216.85300  23261097.48600                  -1280328.15640  23261101.99840
 96  9 10  0 22  0.0020000  0  6  1 14 15 21 25 29
  32481630.25500  24140494.15800                  25405253.45740  24140499.74840
  -3540402.44200  22914519.18900                  -2711367.45040  22914524.39340
   5749666.81400  21614852.53300                   4492213.36540  21614857.74840
  47387721.48000  24968804.15000                  13331552.25740  24968810.72540
    132269.02900  21493591.20500                    177894.69040  21493595.17840
  -1685833.09200  23261931.77500                  -1276912.21440  23261936.18240
 96  9 10  0 22 30.0020000  0  6  1 14 15 21 25 29
  32619332.82700  24166698.07200                  25512554.15140  24166703.61540
  -3556726.84900  22911413.13500                  -2724087.75640  22911418.35040
   5836339.04000  21631345.66600                   4559750.14540  21631351.18640
  47544817.78300  24998697.22900                  13453964.88340  24998704.52140
    212793.63500  21508914.46300                    240641.13440  21508918.42440
  -1681230.05700  23262807.83000                  -1273325.41840  23262812.52940
 96  9 10  0 23  0.0020000  0  6  1 14 15 21 25 29
  32757078.64300  24192910.24400                  25619888.54640  24192916.01040
  -3572920.96800  22908331.30700                  -2736706.53840  22908336.60440
   5923648.47700  21647960.11900                   4627783.45540  21647965.69740
  47702147.51800  25028636.35400                  13576559.43340  25028647.26840
    293838.80400  21524336.90000                    303793.21340  21524340.81440
  -1676421.69500  23263722.53300                  -1269578.62140  23263727.22140
 96  9 10  0 23 30.0020000  0  6  1 14 15 21 25 29
  32894863.36000  24219129.78300                  25727253.21140  24219135.22140
  -3588999.06600  22905271.37700                  -2749234.90740  22905276.53340
   6011581.64000  21664693.28300                   4696302.78740  21664698.86140
  47859677.30700  25058614.64300                  13699309.99740  25058622.95540
    375400.35100  21539857.64300                    367347.66740  21539861.68640
  -1671417.62600  23264674.83800                  -1265679.32840  23264679.63140
 96  9 10  0 24  0.0020000  0  6  1 14 15 21 25 29
  33032696.88200  24245358.67400                  25834655.93540  24245365.37740
  -3604940.35300  22902237.97100                  -2761656.67840  22902242.78740
   6100148.38800  21681546.79900                   4765315.81640  21681552.11940
  48017397.48600  25088627.67400                  13822208.67440  25088634.53340
    457469.04000  21555474.66600                    431297.29240  21555478.54540
  -1666227.02400  23265662.54900                  -1261634.68040  23265666.85040
 96  9 10  0 24 30.0020000  0  6  1 14 15 21 25 29
  33170583.64600  24271597.40000                  25942100.13840  24271601.79540
  -3620735.46300  22899232.17400                  -2773964.54140  22899237.07240
   6189350.89300  21698521.65800                   4834824.24540  21698527.23640
  48175308.79300  25118677.64300                  13945256.35540  25118682.98640
    540049.68700  21571189.30700                    495645.84640  21571193.16240
  -1660870.10700  23266681.78300                  -1257460.44440  23266686.61140
 96  9 10  0 25  0.0020000  0  6  1 14 15 21 25 29
  33308531.97400  24297848.25200                  26049592.32040  24297852.95140
  -3636376.36800  22896255.61100                  -2786152.24740  22896260.85040
   6279186.44300  21715616.88500                   4904825.95240  21715622.48640
  48333404.73600  25148761.97100                  14068447.99640  25148769.87340
    623162.38300  21587005.28300                    560408.98540  21587009.24440
  -1655350.10100  23267732.32200                  -1253159.12640  23267736.82240
 96  9 10  0 25 30.0020000  0  6  1 14 15 21 25 29
  33446523.94500  24324107.63500                  26157118.51240  24324113.54140
  -3651869.06600  22893307.76000                  -2798224.46440  22893312.68240
   6369639.40900  21732829.40000                   4975308.76740  21732834.86140
  48491688.86800  25178880.82200                  14191786.25540  25178881.01040
    706795.36900  21602920.06400                    625577.54340  21602923.95540
  -1649679.71100  23268811.42400                  -1248740.61840  23268816.20540
 96  9 10  0 26  0.0020000  0  6  1 14 15 21 25 29
  33584580.53000  24350379.15000                  26264695.03440  24350384.92840
  -3667177.30500  22890394.68900                  -2810152.94740  22890399.65840
   6460720.90400  21750161.52500                   5046281.34240  21750167.01040
  48650179.05000  25209041.67400                  14315284.94540  25209048.38940
    790958.39100  21618935.60400                    691159.11840  21618939.58840
  -1643858.44300  23269918.97100                  -1244204.55840  23269923.48240
 96  9 10  0 26 30.0030000  0  6  1 14 15 21 25 29
  33722724.48600  24376666.53800                  26372339.65440  24376671.70640
  -3682273.60400  22887521.81200                  -2821916.28240  22887527.01540
   6552442.86300  21767615.87400                   5117752.98040  21767621.22940
  48808890.99800  25239243.99100                  14438956.57540  25239249.72240
    875676.44300  21635057.05400                    757173.18540  21635061.05040
  -1637855.43200  23271061.34300                  -1239526.86740  23271065.96040
 96  9 10  0 27  0.0030000  0  6  1 14 15 21 25 29
  33860932.08700  24402967.02200                  26480033.86640  24402973.55040
  -3697163.75100  22884688.28000                  -2833518.97940  22884693.91740
   6644785.44100  21785187.89700                   5189708.22140  21785193.34740
  48967789.07600  25269480.55400                  14562773.26840  25269479.17140
    960917.48600  21651277.83500                    823594.77640  21651281.78440
  -1631659.42500  23272240.49900                  -1234698.78740  23272244.57740
 96  9 10  0 27 30.0030000  0  6  1 14 15 21 25 29
  33999195.78600  24429277.46000                  26587771.77040  24429283.53040
  -3711854.61000  22881892.88200                  -2844966.38540  22881898.40140
   6737747.71500  21802878.18700                   5262146.33440  21802883.54240
  49126863.31000  25299752.41300                  14686727.02140  25299758.88240
   1046658.42600  21667593.77200                    890405.89440  21667597.81540
  -1625267.13200  23273456.62400                  -1229717.76640  23273460.22240
 96  9 10  0 28  0.0030000  0  6  1 14 15 21 25 29
  34137507.62600  24455597.20200                  26695547.20840  24455602.51140
  -3726341.14200  22879135.96800                  -2856254.58340  22879140.98340
   6831334.59600  21820687.25700                   5335071.16240  21820692.77640
  49286107.72200  25330055.46800                  14810813.55540  25330060.75340
   1132898.65800  21684004.73300                    957606.07540  21684008.65940
  -1618661.12400  23274713.99100                  -1224570.20840  23274718.79640
 96  9 10  0 28 30.0030000  0  7  1 14 15 21 22 25 29
  34275843.84000  24481922.06200                  26803341.63540  24481927.60440
  -3740637.42500  22876415.44400                  -2867394.52640  22876420.82340
   6925546.40400  21838615.03800                   5408482.94240  21838620.46440
  49445530.69800  25360392.89000                    -12227.23310  25357900.24900

   1219636.95200  21700510.54600                   1025194.35240  21700514.53040
  -1611826.76700  23276014.32700                  -1219244.72140  23276018.58140
 96  9 10  0 29  0.0030000  0  7  1 14 15 21 22 25 29
  34414176.67100  24508245.76500                  26911133.41640  24508251.76540
  -3754768.66200  22873726.62400                  -2878405.87040  22873731.80440
   7020373.26200  21856660.14000                   5482373.97940  21856665.53040
  49605142.82300  25390766.77200                    -45634.20200  25351543.42900

   1306871.18700  21717110.66300                   1093169.08440  21717114.68340
  -1604797.26400  23277352.18700                  -1213767.16540  23277356.68740
 96  9 10  0 29 30.0030000  0  6  1 14 15 22 25 29
  34552502.00200  24534567.90500                  27018919.35440  24534573.34340
  -3768733.47100  22871068.85100                  -2889287.53340  22871074.32340
   7115816.30000  21874822.46000                   5556745.16040  21874827.86240
    -79112.94300  25345172.48300
   1394607.42000  21733806.10800                   1161534.97140  21733810.15140
  -1597590.71700  23278723.29600                  -1208151.65640  23278727.91340
 96  9 10  0 30  0.0030000  0  6  1 14 15 22 25 29
  34690824.78000  24560890.15500                  27126703.31340  24560896.75340
  -3782525.45800  22868444.46000                  -2900034.51940  22868449.40540
   7211875.89300  21893102.03000                   5631596.77340  21893107.63240
   -112634.34400  25338793.21000                    -21768.71150  25338800.28040
   1482855.90800  21750599.36600                   1230300.02740  21750603.45640
  -1590211.95100  23280127.39000                  -1202401.95440  23280131.59740
 96  9 10  0 30 30.0030000  0  6  1 14 15 22 25 29
  34829158.17400  24587214.30400                  27234495.52840  24587218.69840
  -3796144.77600  22865852.74100                  -2910646.96840  22865857.99140
   7308556.72100  21911499.57700                   5706932.45840  21911505.06240
   -146171.00000  25332411.39000                    -47901.12040  25332418.06940
   1571629.05700  21767492.31900                   1299473.90140  21767496.44440
  -1582673.70000  23281562.04600                  -1196527.97440  23281566.79240
 96  9 10  0 31  0.0030000  0  6  1 14 15 22 25 29
  34967516.78700  24613543.07700                  27342307.40140  24613549.03040
  -3809601.29600  22863292.20200                  -2921132.55740  22863297.55840
   7405843.57400  21930012.74900                   5782740.37240  21930018.23340
   -179735.58100  25326023.91300                    -74055.23040  25326030.54640
   1660919.69000  21784483.81900                   1369051.01640  21784487.87440
  -1575003.70200  23283021.44400                  -1190551.33940  23283025.82740
 96  9 10  0 31 30.0030000  0  6  1 14 15 22 25 29
  35105921.09100  24639880.86600                  27450154.90340  24639885.91740
  -3822888.24200  22860763.68700                  -2931486.01540  22860768.83140
   7503734.20600  21948640.54600                   5859018.76840  21948645.90140
   -213332.96100  25319630.85800                   -100234.94540  25319636.55440
   1750722.37500  21801572.74100                   1439027.13040  21801576.78440
  -1567183.54700  23284509.59300                  -1184457.68740  23284514.44440
 96  9 10  0 32  0.0030000  0  6  1 14 15 22 25 29
  35244383.60100  24666229.10800                  27558047.72640  24666234.51140
  -3835993.90100  22858269.58500                  -2941698.20240  22858274.68340
   7602237.49800  21967385.28000                   5935774.56040  21967390.62440
   -246962.82700  25313232.15500                   -126439.93040  25313236.23340
   1841058.64300  21818763.01500                   1509419.02540  21818766.96440
  -1559187.73800  23286031.24900                  -1178227.17840  23286035.69040
 96  9 10  0 32 30.0030000  0  6  1 14 15 22 25 29
  35382899.04700  24692587.82700                  27665981.80840  24692592.96040
  -3848917.69300  22855810.48300                  -2951768.68040  22855815.74540
   7701352.19600  21986245.98300                   6013006.76640  21986251.49140
   -280636.99600  25306824.50700                   -152679.40340  25306829.61640
   1931927.42800  21836054.83500                   1580225.86340  21836058.86640
  -1551008.29300  23287587.58500                  -1171853.56940  23287591.96840
 96  9 10  0 33  0.0030000  0  6  1 14 15 22 25 29
  35521470.49700  24718957.10800                  27773959.54940  24718963.54240
  -3861650.26200  22853387.48300                  -2961690.15640  22853392.69840
   7801074.96600  22005222.78800                   6090712.79840  22005228.30840
   -314357.38900  25300407.03000                   -178954.97340  25300411.83540
   2023313.83200  21853445.22600                   1651436.04940  21853449.29240
  -1542622.94400  23289183.29600                  -1165319.51440  23289188.00740
 96  9 10  0 33 30.0030000  0  6  1 14 15 22 25 29
  35660089.13400  24745335.36600                  27881974.01840  24745340.99140
  -3874170.07300  22851005.03800                  -2971445.84040  22851010.47640
   7901415.04600  22024316.88200                   6168899.84840  22024322.33140
   -348086.54100  25293987.20200                   -205237.41740  25293993.16740
   2115214.80300  21870933.20200                   1723047.19140  21870937.22240
  -1534008.72200  23290822.62400                  -1158607.12140  23290827.32340
 96  9 10  0 34  0.0030000  0  6  1 14 15 22 25 29
  35798729.89700  24771718.03800                  27990005.75240  24771723.83940
  -3886479.43000  22848662.65500                  -2981037.53840  22848667.85840
   8002357.08200  22043525.43700                   6247555.95940  22043530.94440
   -381826.67100  25287566.34300                   -231528.36140  25287573.44840
   2207600.74100  21888513.71000                   1795036.23540  21888517.69440
  -1525189.45000  23292500.64700                  -1151734.94340  23292505.00740
 96  9 10  0 34 30.0030000  0  6  1 14 15 22 25 29
  35937393.43300  24798104.46800                  28098055.23440  24798110.52640
  -3898556.73200  22846364.50700                  -2990448.41340  22846370.06240
   8103901.68000  22062848.77200                   6326681.59640  22062854.30440
   -415564.98600  25281146.02200                   -257817.89840  25281151.94040
   2300456.98700  21906183.78800                   1867391.75040  21906187.77240
  -1516167.78900  23294217.66300                  -1144705.06340  23294222.24540
 96  9 10  0 35  0.0030000  0  6  1 14 15 22 25 29
  36076089.02900  24824497.51500                  28206129.69240  24824503.44440
  -3910383.18700  22844113.91300                  -2999663.83340  22844119.28040
   8206050.07200  22082286.85100                   6406277.72240  22082292.58140
   -449286.82200  25274730.09300                   -284094.56040  25274735.20240
   2393790.89700  21923944.46800                   1940119.47040  21923948.41740
  -1506950.61900  23295971.63200                  -1137522.83740  23295976.26140
 96  9 10  0 35 30.0030000  0  6  1 14 15 22 25 29
  36214809.96000  24850895.35100                  28314223.90940  24850900.47240
  -3921959.20400  22841911.14000                  -3008684.09140  22841916.15540
   8308799.81100  22101839.64700                   6486342.43440  22101845.28440
   -482999.92400  25268314.98300                   -310364.44940  25268320.86640
   2487604.53500  21941796.71000                   2013221.00740  21941800.67140
  -1497559.99600  23297758.59300                  -1130205.45840  23297763.18740
 96  9 10  0 36  0.0030000  0  6  1 14 15 22 25 29
  36353541.92600  24877294.71800                  28422326.71340  24877300.39040
  -3933307.85000  22839751.59300                  -3017527.18440  22839756.60840
   8412138.14800  22121504.35800                   6566865.79140  22121510.08940
   -516743.51000  25261893.96800                   -336658.09940  25261898.64440
   2581887.36800  21959738.27200                   2086688.14540  21959742.37440
  -1488016.95800  23299574.76500                  -1122769.30840  23299579.35840
 96  9 10  0 36 30.0030000  0  6  1 14 15 22 25 29
  36492309.13500  24903701.67100                  28530456.97240  24903706.51140
  -3944420.78500  22837636.91300                  -3026186.60940  22837642.11640
   8516086.18000  22141285.03000                   6647864.23640  22141290.53840
   -550491.60400  25255469.76500                   -362955.27840  25255473.31540
   2676676.96200  21977775.95200                   2160550.16740  21977779.98340
  -1478295.73600  23301424.30400                  -1115194.31540  23301428.58140
 96  9 10  0 37  0.0030000  0  6  1 14 15 22 25 29
  36631102.19100  24930112.72600                  28638607.37240  24930118.62040
  -3955338.09800  22835559.38200                  -3034693.60040  22835564.40940
   8620630.50300  22161179.03000                   6729327.32340  22161184.52640
   -584263.12000  25249043.70200                   -389270.59840  25249048.67140
   2771968.99900  21995909.56900                   2234803.70040  21995913.53040
  -1468413.97300  23303304.85100                  -1107494.23040  23303309.40940
 96  9 10  0 37 30.0030000  0  6  1 14 15 22 25 29
  36769917.57800  24956528.15500                  28746775.17540  24956533.67540
  -3966073.69000  22833516.44400                  -3043058.99440  22833521.82340
   8725769.90200  22181186.46800                   6811254.10540  22181191.95240
   -618068.08100  25242612.96000                   -415612.03440  25242617.50740
   2867757.88100  22014137.48300                   2309444.38740  22014141.45640
  -1458370.60600  23305215.96800                  -1099668.21340  23305220.52640
 96  9 10  0 38  0.0030000  0  6  1 14 15 22 25 29
  36908756.45600  24982949.45200                  28854961.29040  24982954.42140
  -3976637.51100  22831506.14000                  -3051290.53340  22831511.28440
   8831495.66100  22201305.51500                   6893637.79540  22201311.12840
   -651901.19200  25236172.22600                   -441975.47340  25236179.48340
   2964047.89800  22032460.89000                   2384475.56740  22032464.80440
  -1448160.08600  23307158.94400                  -1091711.94640  23307163.23340
 96  9 10  0 38 30.0030000  0  6  1 14 15 22 25 29
  37047634.43000  25009376.40500                  28963177.88240  25009382.32340
  -3987019.57300  22829530.56200                  -3059380.44340  22829535.87040
   8937809.44500  22221536.39000                   6976479.67840  22221541.89740
   -685743.77800  25229732.85800                   -468346.24040  25229739.04640
   3060842.34600  22050880.31900                   2459899.81140  22050884.26940
  -1437768.38200  23309136.12400                  -1083614.50240  23309140.57740
 96  9 10  0 39  0.0030000  0  6  1 14 15 22 25 29
  37186547.26600  25035811.17100                  29071421.59540  25035815.96440
  -3997207.71600  22827592.09300                  -3067319.24740  22827597.13240
   9044707.00700  22241878.00700                   7059776.46340  22241883.59740
   -719594.32400  25223293.17100                   -494723.17840  25223301.30840
   3158118.73000  22069391.42100                   2535699.58540  22069395.26540
  -1427197.94100  23311147.50700                  -1075377.77940  23311152.11240
 96  9 10  0 39 30.0040000  0  6  1 14 15 22 25 29
  37325509.67900  25062254.47300                  29179703.95940  25062260.19140
  -4007177.34700  22825694.83200                  -3075087.77740  22825699.96540
   9152190.81700  22262331.98000                   7143530.05840  22262337.65240
   -753435.13600  25216853.54300                   -521092.60240  25216859.60240
   3255867.51700  22087992.35500                   2611867.46940  22087996.35240
  -1416439.25800  23313195.10500                  -1066994.37740  23313199.55940
 96  9 10  0 40  0.0040000  0  6  1 14 15 22 25 29
  37464518.63000  25088707.52700                  29288022.58640  25088713.34040
  -4016917.25000  22823841.03500                  -3082677.29940  22823846.12140
   9260258.77700  22282896.32400                   7227738.84440  22282902.07840
   -787241.67200  25210414.12900                   -547435.29640  25210422.46540
   3354080.82900  22106681.72300                   2688397.32240  22106685.63740
  -1405475.55700  23315281.42600                  -1058451.21140  23315285.66840
 96  9 10  0 40 30.0040000  0  6  1 14 15 22 25 29
  37603571.89600  25115168.01200                  29396375.76740  25115173.80140
  -4026413.06300  22822034.13700                  -3090076.62440  22822039.46940
   9368913.98700  22303572.84800                   7312405.22140  22303578.36740
   -821005.41200  25203995.68400                   -573744.66940  25204002.27040
   3452757.08700  22125459.12100                   2765287.90440  22125463.02340
  -1394306.73900  23317406.69900                  -1049748.22240  23317411.23440
 96  9 10  0 41  0.0040000  0  6  1 14 15 22 25 29
  37742659.52700  25141635.86300                  29504755.70940  25141641.41840
  -4035677.41300  22820271.25400                  -3097295.58240  22820276.30540
   9478142.66300  22324358.36300                   7397518.45840  22324363.96540
   -854734.81200  25197574.02700                   -600027.20240  25197580.60240
   3551891.76200  22144324.15200                   2842535.70240  22144328.02040
  -1382947.73800  23319568.19900                  -1040897.03440  23319572.38340
 96  9 10  0 41 30.0040000  0  6  1 14 15 22 25 29
  37881793.42800  25168111.26200                  29613171.67340  25168116.14840
  -4044708.79700  22818552.62100                  -3104333.01440  22818557.75440
   9587956.66200  22345255.50400                   7483087.78140  22345261.24640
   -888418.99900  25191164.30900                   -626274.60740  25191168.96140
   3651525.93100  22163283.62100                   2920172.70940  22163287.78140
  -1371385.40800  23321768.52700                  -1031887.41040  23321772.93440
 96  9 10  0 42  0.0040000  0  6  1 14 15 22 25 29
  38020951.26000  25194592.55100                  29721606.31640  25194597.61340
  -4053526.88000  22816874.56600                  -3111204.23240  22816879.80540
   9698346.24700  22366262.00400                   7569105.61840  22366267.77040
   -922063.19300  25184763.92600                   -652490.79840  25184772.02740
   3751665.11600  22182339.45700                   2998203.23740  22182343.35940
  -1359632.65700  23324004.79300                  -1022729.41140  23324009.01240
 96  9 10  0 42 30.0040000  0  6  1 14 15 22 25 29
  38160134.69400  25221078.77000                  29830060.93240  25221084.19540
  -4062136.33200  22815236.19100                  -3117912.88340  22815241.50040
   9809299.44800  22387375.30100                   7655562.63940  22387380.92640
   -955686.23600  25178363.80900                   -678690.53940  25178371.65240
   3852299.91000  22201489.48800                   3076619.95440  22201493.42640
  -1347713.91200  23326272.90200                  -1013442.06740  23326277.34440
 96  9 10  0 43  0.0040000  0  6  1 14 15 22 25 29
  38299353.19400  25247570.84800                  29938542.82240  25247577.41040
  -4070536.73700  22813637.45700                  -3124458.63140  22813642.42640
   9920819.80400  22408597.08200                   7742461.59740  22408602.78940
   -989285.10000  25171971.55100                   -704871.38840  25171977.92640
   3953430.96100  22220734.14500                   3155423.36840  22220738.05940
  -1335627.93300  23328572.88700                  -1004024.40740  23328577.15240
 96  9 10  0 43 30.0040000  0  6  1 14 15 22 25 29
  38438611.20400  25274071.06600                  30047055.53940  25274076.22340
  -4078701.92800  22812083.65200                  -3130821.11040  22812088.62140
  10032915.75800  22429928.28500                   7829809.07140  22429933.88740
  -1022841.41700  25165585.88700                   -731019.11340  25165591.09040
   4055056.52800  22240072.96500                   3234612.11640  22240076.98440
  -1323369.34000  23330905.58200                   -994472.24440  23330909.85940
 96  9 10  0 44  0.0040000  0  6  1 14 15 22 25 29
  38577896.39500  25300576.02000                  30155589.39240  25300580.81240
  -4086619.84900  22810577.05900                  -3136990.91040  22810582.59040
  10145576.12800  22451366.84000                   7917596.33940  22451372.41840
  -1056355.82400  25159207.51200                   -757134.21040  25159213.17240
   4157138.80900  22259498.62900                   3314156.74440  22259502.56640
  -1310947.14400  23333269.42600                   -984792.60340  23333273.71540
 96  9 10  0 44 30.0040000  0  6  1 14 15 22 25 29
  38717211.61300  25327086.86300                  30264146.69140  25327092.35940
  -4094271.00800  22809121.13700                  -3142952.82840  22809126.52740
  10258799.69800  22472912.62900                   8005822.47440  22472918.00840
  -1089834.76800  25152836.25400                   -783221.67040  25152843.23040
   4259670.08700  22279009.23800                   3394051.24140  22279013.23440
  -1298363.69200  23335664.11300                   -974987.29540  23335668.39140
 96  9 10  0 45  0.0040000  0  6  1 14 15 22 25 29
  38856535.30200  25353598.66800                  30372710.56640  25353604.69140
  -4101650.46800  22807716.84800                  -3148703.04440  22807722.03940
  10372586.22800  22494565.29300                   8094487.28140  22494570.94140
  -1123266.47800  25146475.80100                   -809272.28140  25146481.28540
   4362654.16700  22298606.79300                   3474298.57440  22298610.75440
  -1285605.97900  23338091.68400                   -965046.20040  23338096.32440
 96  9 10  0 45 30.0040000  0  6  1 14 15 22 25 29
  38995859.14900  25380111.47300                  30481274.57940  25380116.39540
  -4108749.71000  22806365.93400                  -3154234.91240  22806371.24240
  10486937.93000  22516325.95700                   8183592.47440  22516331.88740
  -1156643.19200  25140123.88700                   -835280.08840  25140130.29740
   4466093.81000  22318290.78500                   3554900.88740  22318294.62940
  -1272679.42900  23340551.59800                   -954973.55940  23340556.12140
 96  9 10  0 46  0.0040000  0  6  1 14 15 22 25 29
  39135173.41400  25406622.41800                  30589831.13940  25406628.44140
  -4115577.56200  22805066.42600                  -3159555.30540  22805071.62940
  10601842.91700  22538191.51200                   8273128.80440  22538197.33640
  -1189977.87300  25133779.64500                   -861255.09540  25133786.12540
   4569977.30200  22338059.29300                   3635849.06040  22338063.19540
  -1259592.02200  23343041.77700                   -944775.55640  23343046.53540
 96  9 10  0 46 30.0040000  0  6  1 14 15 22 25 29
  39274478.87400  25433131.70700                  30698380.81740  25433137.44940
  -4122138.02300  22803818.05100                  -3164667.34240  22803823.18440
  10717298.36200  22560161.83200                   8363094.05840  22560167.60940
  -1223265.02000  25127446.82400                   -887193.09140  25127454.45740
   4674315.00100  22357913.88700                   3717151.15840  22357917.90640
  -1246338.91200  23345563.70700                   -934448.45140  23345568.05540
 96  9 10  0 47  0.0040000  0  6  1 14 15 22 25 29
  39413781.15600  25459639.69900                  30806928.01040  25459645.51240
  -4128430.66000  22802620.77000                  -3169570.68340  22802625.94940
  10833306.56400  22582237.52000                   8453490.03640  22582243.28540
  -1256482.67600  25121125.69900                   -913076.95340  25121129.76640
   4779103.11900  22377854.41800                   3798804.23040  22377858.36740
  -1232907.69200  23348119.91800                   -923982.54840  23348124.25440
 96  9 10  0 47 30.0040000  0  6  1 14 15 22 25 29
  39553097.42700  25486150.91000                  30915486.13640  25486156.10240
  -4134455.78200  22801474.12900                  -3174265.57140  22801479.20340
  10949865.89200  22604418.11300                   8544315.45640  22604423.80940
  -1289628.76600  25114816.22300                   -938905.02740  25114821.80140
   4884338.22600  22397880.08200                   3880805.60940  22397883.99640
  -1219296.37500  23350709.91000                   -913376.31040  23350714.31640
 96  9 10  0 48  0.0040000  0  6  1 14 15 22 25 29
  39692449.06500  25512668.12900                  31024071.77340  25512674.57440
  -4140209.61300  22800379.07400                  -3178749.06940  22800384.27740
  11066985.59400  22626705.27000                   8635577.52940  22626711.10540
  -1322693.56200  25108524.73000                   -964669.75340  25108530.39140
   4990018.74000  22417990.32400                   3963154.05540  22417994.35540
  -1205468.13800  23353341.31600                   -902601.04340  23353345.24240
 96  9 10  0 48 30.0040000  0  6  1 14 15 22 25 29
  39831831.84500  25539192.05100                  31132681.69640  25539197.10240
  -4145720.61100  22799330.59000                  -3183043.34040  22799335.80540
  11184654.17300  22649096.77000                   8727267.31040  22649102.57040
  -1355689.62000  25102245.30900                   -990380.91940  25102252.35540
   5096145.90300  22438185.62100                   4045850.54440  22438189.61740
  -1191430.85000  23356012.63700                   -891662.88240  23356017.02040
 96  9 10  0 49  0.0040000  0  6  1 14 15 22 25 29
  39971253.66600  25565723.21500                  31241322.05740  25565728.28940
  -4151007.28400  22798324.42600                  -3187162.82240  22798329.73440
  11302862.93800  22671591.48800                   8819378.00540  22671597.13740
  -1388643.68700  25095975.48800                  -1016059.39540  25095981.75840
   5202704.61000  22458463.29300                   4128883.29540  22458467.33640
  -1177204.54500  23358719.87100                   -880577.44440  23358723.94940
 96  9 10  0 49 30.0040000  0  6  1 14 15 22 25 29
  40110717.57000  25592262.31600                  31349995.22540  25592267.68440
  -4156068.59300  22797361.17600                  -3191106.68340  22797366.29740
  11421611.94100  22694188.50400                   8911909.66940  22694194.14140
  -1421563.29900  25089711.41000                  -1041710.96140  25089717.31640
   5309704.09400  22478824.47300                   4212259.51440  22478828.57440
  -1162796.72300  23361461.41800                   -869350.55040  23361465.83640
 96  9 10  0 50  0.0040000  0  6  1 14 15 22 25 29
  40250220.87900  25618808.62900                  31458699.05440  25618812.94140
  -4160896.23100  22796442.49600                  -3194868.47540  22796447.88740
  11540899.43500  22716888.29300                   9004860.93740  22716893.67240
  -1454442.73400  25083453.30900                  -1067331.24240  25083460.61340
   5417142.45300  22499269.19900                   4295977.70540  22499273.20740
  -1148217.56300  23364235.85500                   -857990.15240  23364240.21540
 96  9 10  0 50 30.0040000  0  6  1 14 15 22 25 29
  40389766.94000  25645363.39500                  31567436.20740  25645368.97340
  -4165474.07700  22795571.51200                  -3198435.62540  22795576.64540
  11660726.07100  22739690.46500                   9098232.31640  22739696.32440
  -1487263.94500  25077208.18400                  -1092906.15540  25077215.19540
   5525034.18600  22519800.31600                   4380049.18040  22519804.45340
  -1133483.68900  23367039.37900                   -846509.20240  23367043.65640
 96  9 10  0 51  0.0040000  0  6  1 14 15 22 25 29
  40529316.96800  25671918.75400                  31676176.46940  25671925.24640
  -4169798.85100  22794748.57400                  -3201805.56640  22794753.61340
  11781072.73200  22762591.78500                   9192008.91240  22762597.58640
  -1520017.16400  25070976.12100                  -1118428.10540  25070982.32040
   5633362.51400  22540414.33200                   4464460.86140  22540418.52740
  -1118607.11500  23369870.39500                   -834917.04740  23369875.24640
 96  9 10  0 51 30.0040000  0  6  1 14 15 22 25 29
  40668867.32800  25698474.59000                  31784916.97540  25698478.86740
  -4173843.55500  22793978.66800                  -3204957.28240  22793984.02340
  11901950.58700  22785594.09800                   9286199.42040  22785599.84040
  -1552657.61700  25064764.19900                  -1143862.17540  25064770.82040
   5742152.55700  22561116.68400                   4549232.31340  22561120.84440
  -1103557.74000  23372734.27700                   -823190.24840  23372738.70740
 96  9 10  0 52  0.0050000  0  6  1 14 15 22 25 29
  40808432.16300  25725032.98500                  31893668.78940  25725039.10340
  -4177601.49300  22793263.69600                  -3207885.53340  22793268.67740
  12023369.10800  22808699.11800                   9380811.23040  22808704.70840
  -1585176.49600  25058576.51700                  -1169201.49040  25058581.21640
   5851418.01400  22581909.25900                   4634374.22240  22581913.48940
  -1088322.74500  23375633.61000                   -811318.81440  23375638.18140
 96  9 10  0 52 30.0050000  0  6  1 14 15 22 25 29
  40947985.57600  25751588.89900                  32002411.67440  25751594.64240
  -4181082.78700  22792601.22000                  -3210598.21840  22792606.22440
  12145314.92500  22831904.68100                   9475833.92340  22831910.59940
  -1617574.26100  25052411.50900                  -1194446.47440  25052418.03640
   5961148.82400  22602790.07100                   4719878.74740  22602793.90340
  -1072907.82000  23378566.33700                   -799307.16440  23378570.77840
 96  9 10  0 53  0.0050000  0  6  1 14 15 22 25 29
  41087519.51000  25778142.00100                  32111139.36640  25778146.09140
  -4184307.27400  22791987.55600                  -3213110.79840  22791992.64240
  12267773.80200  22855207.89900                   9571256.39040  22855213.58340
  -1649874.91400  25046263.93100                  -1219615.75240  25046270.98940
   6071321.10300  22623755.40700                   4805727.26640  22623759.42740
  -1057328.45500  23381531.51700                   -787167.38440  23381535.58340
 96  9 10  0 53 30.0050000  0  6  1 14 15 22 25 29
  41227082.50000  25804699.53200                  32219889.72040  25804706.21240
  -4187259.13400  22791425.83700                  -3215410.93740  22791431.01740
  12390759.69500  22878611.48500                   9667089.52840  22878617.07540
  -1682079.15500  25040135.54000                  -1244709.92940  25040140.53240
   6181928.46700  22644803.14900                   4891914.81840  22644807.23940
  -1041569.80300  23384530.09500                   -774887.90240  23384534.40740
 96  9 10  0 54  0.0050000  0  6  1 14 15 22 25 29
  41366676.68600  25831262.98500                  32328664.37640  25831268.97440
  -4189936.27400  22790916.32900                  -3217497.01840  22790921.36840
  12514272.28700  22902115.12600                   9763333.07440  22902120.93840
  -1714193.18600  25034023.86800                  -1269733.79240  25034029.39940
   6292953.49300  22665930.69600                   4978427.81740  22665934.75140
  -1025642.66400  23387560.93800                   -762477.13140  23387565.39240
 96  9 10  0 54 30.0050000  0  6  1 14 15 22 25 29
  41506293.20200  25857831.32100                  32437456.47840  25857838.96640
  -4192343.15800  22790458.27400                  -3219372.49540  22790463.32540
  12638293.68500  22925715.71200                   9859973.09840  22925721.40740
  -1746219.25400  25027930.64200                  -1294689.11540  25027937.18140
   6404372.18300  22687132.93100                   5065247.57140  22687136.91540
  -1009559.77500  23390621.30600                   -749944.99440  23390625.91140
 96  9 10  0 55  0.0050000  0  6  1 14 15 22 25 29
  41645958.13300  25884408.34500                  32546286.25440  25884415.61440
  -4194452.35500  22790057.05600                  -3221016.01540  22790062.22440
  12762827.89000  22949413.63400                   9957012.71140  22949419.49340
  -1778148.23700  25021854.23500                  -1319568.80340  25021860.01340
   6516198.21000  22708412.75100                   5152384.73240  22708416.85340
   -993311.45200  23393713.33700                   -737283.94640  23393717.77840
 96  9 10  0 55 30.0050000  0  6  1 14 15 22 25 29
  41785660.82900  25910992.86800                  32655145.45640  25910998.34140
  -4196256.17600  22789713.63400                  -3222421.58540  22789718.79040
  12887876.52800  22973209.81300                  10054453.18640  22973215.60340
  -1809963.71500  25015800.64200                  -1344359.99240  25015806.63040
   6628443.62300  22729772.19600                   5239848.68340  22729776.12240
   -976897.94500  23396836.63400                   -724494.18240  23396840.78240
 96  9 10  0 56  0.0050000  0  6  1 14 15 22 25 29
  41925381.52900  25937581.22800                  32764018.68140  25937587.20440
  -4197757.00900  22789428.16500                  -3223591.05540  22789433.04040
  13013436.50800  22997102.95400                  10152292.10340  22997108.67340
  -1841653.15800  25009770.00900                  -1369053.07340  25009775.27040
   6741129.21300  22751215.55600                   5327655.63340  22751219.58740
   -960332.40700  23399989.02400                   -711585.95440  23399993.50140
 96  9 10  0 56 30.0050000  0  6  1 14 15 22 25 29
  42065115.87300  25964171.97000                  32872902.57840  25964176.31740
  -4198950.73400  22789200.92300                  -3224521.22440  22789205.93840
  13139498.59700  23021091.80600                  10250522.27140  23021097.50140
  -1873215.35500  25003763.36000                  -1393646.94440  25003768.76340
   6854269.75300  22772745.58700                   5415817.08440  22772749.54840
   -943613.46600  23403170.50100                   -698558.19340  23403174.74340
 96  9 10  0 57  0.0050000  0  6  1 14 15 22 25 29
  42204858.13200  25990764.11800                  32981792.61540  25990770.79840
  -4199837.52500  22789032.00100                  -3225212.22940  22789036.99340
  13266065.76000  23045176.69600                  10349146.00140  23045182.28640
  -1904646.00000  24997781.84500                  -1418138.26640  24997787.42340
   6967863.42700  22794361.88400                   5504331.62440  22794365.92740
   -926732.85400  23406382.77400                   -685404.46240  23406386.87640
 96  9 10  0 57 30.0050000  0  6  1 14 15 22 25 29
  42344599.68600  26017355.86000                  33090682.11340  26017361.94240
  -4200429.24600  22788919.73500                  -3225673.30640  22788924.89240
  13393136.16800  23069357.54800                  10448161.87340  23069363.41940
  -1935944.78300  24991826.56300                  -1442526.88940  24991832.85640
   7081899.45900  22816062.10300                   5593190.86740  22816066.40340
   -909677.86300  23409628.26700                   -672114.84740  23409632.49740
 96  9 10  0 58  0.0050000  0  6  1 14 15 22 25 29
  42484349.09600  26043949.36000                  33199577.71740  26043955.97040
  -4200717.82600  22788864.74300                  -3225898.16340  22788870.02840
  13520701.23900  23093632.15700                  10547563.20240  23093638.11040
  -1967120.88200  24985893.02400                  -1466819.91940  24985899.08340
   7196361.14500  22837843.54800                   5682381.79040  22837847.72040
   -892432.45600  23412909.77400                   -658676.84740  23412914.23940
 96  9 10  0 58 30.0050000  0  6  1 14 15 22 25 29
  42624114.41200  26070546.15700                  33308485.74040  26070550.86840
  -4200687.94700  22788870.46200                  -3225874.87940  22788875.43140
  13648763.76900  23118001.73500                  10647352.15240  23118007.48940
  -1998166.71200  24979985.68800                  -1491011.39740  24979991.22040
   7311228.59600  22859701.86800                   5771888.88240  22859706.00540
   -874980.83800  23416230.89900                   -645078.18240  23416235.27040
 96  9 10  0 59  0.0050000  0  6  1 14 15 22 25 29
  42763896.46000  26097145.39200                  33417406.79040  26097152.72040
  -4200353.15100  22788934.10300                  -3225613.99140  22788939.08340
  13777311.08600  23142463.64200                  10747518.86340  23142469.58340
  -2029091.28500  24974101.03200                  -1515108.41740  24974107.13840
   7426462.97900  22881630.34500                   5861681.90140  22881634.36440
   -857335.72600  23419588.58700                   -631328.73440  23419592.98140
 96  9 10  0 59 30.0050000  0  6  1 14 15 22 25 29
  42903716.39600  26123752.76700                  33526357.36840  26123759.43540
  -4199694.07300  22789059.45400                  -3225100.41640  22789064.61040
  13906353.86500  23167019.59500                  10848071.64840  23167025.45440
  -2059871.45000  24968243.48500                  -1539092.93240  24968249.40340
   7542084.14300  22903632.34500                   5951776.31140  22903636.34140
   -839487.28600  23422984.91500                   -617420.84340  23422988.87640
 96  9 10  1  0  0.0050000  0  6  1 14 15 22 25 29
  43043579.02300  26150367.13400                  33635341.21540  26150372.64240
  -4198709.70900  22789246.79800                  -3224333.37440  22789251.87240
  14035890.16100  23191669.79800                  10949008.98740  23191675.52840
  -2090498.55700  24962416.04800                  -1562958.15540  24962421.61440
   7658092.92100  22925708.13400                   6042172.75440  22925712.21240
   -821453.99200  23426416.79800                   -603368.92540  23426421.07540
 96  9 10  1  0 30.0050000  0  6  1 14 15 22 25 29
  43183474.39500  26176989.36000                  33744350.56940  26176995.71240
  -4197422.41000  22789491.88400                  -3223330.27240  22789497.00540
  14165911.62700  23216412.06300                  11050324.38640  23216417.84140
  -2120980.52900  24956615.29000                  -1586710.28240  24956620.69240
   7774485.72900  22947857.02400                   6132868.44540  22947861.02040
   -803250.46300  23429880.68800                   -589184.34140  23429884.96640
 96  9 10  1  1  0.0050000  0  6  1 14 15 22 25 29
  43323406.07400  26203617.58700                  33853388.22240  26203623.31740
  -4195832.76800  22789794.28200                  -3222091.58740  22789799.50940
  14296425.82600  23241247.86800                  11152023.73440  23241253.85640
  -2151315.88300  24950841.75900                  -1610348.16040  24950847.52440
   7891285.55000  22970083.32100                   6223881.28540  22970087.37640
   -784864.17500  23433379.54000                   -574857.35640  23433383.80640
 96  9 10  1  1 30.0050000  0  6  1 14 15 22 25 29
  43463341.34900  26230245.14200                  33962428.67840  26230252.24740
  -4193955.05200  22790151.64900                  -3220628.42540  22790156.67740
  14427416.01000  23266174.53200                  11254093.96940  23266180.26340
  -2181524.58600  24945093.06300                  -1633887.35340  24945098.58340
   8008490.64800  22992386.51700                   6315209.93240  22992390.45440
   -766310.09100  23436910.12600                   -560399.62040  23436914.57940
 96  9 10  1  2  0.0050000  0  6  1 14 15 22 25 29
  43603265.64800  26256872.40700                  34071460.57840  26256878.30240
  -4191779.54600  22790565.58700                  -3218933.21340  22790570.73140
  14558875.93700  23291190.68100                  11356530.24440  23291196.63440
  -2211613.92200  24939367.68100                  -1657333.54240  24939374.02040
   8126077.66400  23014762.54000                   6406836.17440  23014766.59540
   -747591.91600  23440471.97800                   -545814.01940  23440476.36040
 96  9 10  1  2 30.0050000  0  6  1 14 15 22 25 29
  43743183.32100  26283498.05600                  34180487.31940  26283502.89540
  -4189292.81900  22791038.78200                  -3216995.49440  22791043.93840
  14690812.31400  23316297.44600                  11459337.77740  23316303.47040
  -2241574.96400  24933666.40700                  -1680679.75140  24933671.34140
   8244057.23000  23037213.59500                   6498768.29640  23037217.62640
   -728686.22600  23444069.60300                   -531082.29940  23444073.81040
 96  9 10  1  3  0.0050000  0  6  1 14 15 22 25 29
  43883096.44700  26310122.73500                  34289510.49940  26310129.39240
  -4186485.29100  22791572.83700                  -3214807.80040  22791577.94640
  14823213.06500  23341492.43800                  11562507.16040  23341498.22840
  -2271409.48800  24927989.31300                  -1703927.36640  24927995.87640
   8362420.47700  23059737.22800                   6590999.39740  23059741.27040
   -709611.59700  23447699.33700                   -516218.94740  23447703.52040
 96  9 10  1  3 30.0050000  0  6  1 14 15 22 25 29
  44023032.47700  26336752.04000                  34398551.50040  26336758.32140
  -4183337.46000  22792172.03200                  -3212354.94040  22792177.17740
  14956080.59800  23366775.94600                  11666040.26640  23366781.78240
  -2301096.79600  24922339.38400                  -1727060.28240  24922345.93540
   8481171.30400  23082334.77400                   6683532.49740  23082338.74740
   -690371.23400  23451360.82100                   -501226.44640  23451365.42740
 96  9 10  1  4  0.0050000  0  6  1 14 15 22 25 29
  44162999.21100  26363386.21200                  34507616.52440  26363392.31740
  -4179854.64300  22792834.73500                  -3209641.05140  22792839.89240
  15089410.84700  23392148.01700                  11769933.93340  23392153.56040
  -2330626.79500  24916721.02400                  -1750070.59940  24916727.25940
   8600316.73900  23105007.34500                   6776373.09240  23105011.45840
   -670959.44200  23455054.85300                   -486100.36940  23455059.21240
 96  9 10  1  4 30.0060000  0  6  1 14 15 22 25 29
  44303001.54900  26390027.95900                  34616709.21640  26390034.08840
  -4176053.95900  22793558.06100                  -3206679.46840  22793563.05340
  15223204.33800  23417608.03700                  11874188.56940  23417614.03740
  -2359985.36600  24911132.86500                  -1772947.36640  24911139.36940
   8719878.98100  23127759.39600                   6869538.47140  23127763.49840
   -651378.43700  23458781.02100                   -470842.43440  23458785.39340
 96  9 10  1  5  0.0060000  0  6  1 14 15 22 25 29
  44443024.90400  26416673.37300                  34725818.34940  26416675.68240
  -4171926.68700  22794343.20900                  -3203463.40440  22794348.40040
  15357448.55400  23443153.99000                  11978794.41740  23443159.89640
  -2389160.24000  24905581.90400                  -1795680.96040  24905587.62340
   8839833.51600  23150585.89600                   6963009.52940  23150589.79940
   -631640.49100  23462536.83400                   -455462.20840  23462541.35740
 96  9 10  1  5 30.0060000  0  6  1 14 15 22 25 29
  44583063.74000  26443322.27900                  34834939.51640  26443330.13540
  -4167465.95400  22795192.09200                  -3199987.50240  22795197.04940
  15492161.09400  23468789.05300                  12083765.18540  23468794.80740
  -2418125.06500  24900069.27900                  -1818250.91040  24900075.72540
   8960192.66800  23173489.65400                   7056795.87440  23173493.72140
   -611723.61000  23466326.92000                   -439942.55640  23466331.19740
 96  9 10  1  6  0.0060000  0  6  1 14 15 22 25 29
  44723077.08300  26469965.31800                  34944040.74540  26469972.70540
  -4162690.87400  22796100.92000                  -3196266.65240  22796106.06440
  15627323.61500  23494509.69300                  12189086.60640  23494515.55340
  -2446890.26300  24894595.78700                  -1840665.31840  24894601.65840
   9080935.76300  23196466.11500                   7150881.39840  23196470.02940
   -591642.48500  23470148.20900                   -424294.91040  23470152.45140
 96  9 10  1  6 30.0060000  0  6  1 14 15 22 25 29
  44863085.07300  26496607.76400                  35053137.91540  26496613.91640
  -4157580.60700  22797073.29500                  -3192284.61940  22797078.40440
  15762942.35600  23520316.99800                  12294763.51740  23520322.76440
  -2475449.57200  24889161.95900                  -1862919.25640  24889168.17040
   9202055.69300  23219514.62300                   7245260.55740  23219518.60740
   -571391.92400  23474002.01400                   -408515.25440  23474006.36140
 96  9 10  1  7  0.0060000  0  6  1 14 15 22 25 29
  45003099.99300  26523252.88100                  35162240.42640  26523255.62340
  -4152129.72800  22798110.47500                  -3188037.17440  22798115.43240
  15899009.94200  23546209.84200                  12400790.17440  23546215.57240
  -2503820.22000  24883761.74000                  -1885026.20140  24883767.61140
   9323547.07200  23242633.66200                   7339929.15440  23242637.56440
   -550970.81000  23477887.83400                   -392602.69140  23477892.01840
 96  9 10  1  7 30.0060000  0  6  1 14 15 22 25 29
  45143133.46900  26549899.85700                  35271357.41340  26549904.67440
  -4146344.79300  22799211.39600                  -3183529.42440  22799216.54140
  16035524.77100  23572187.94300                  12507165.32640  23572193.72140
  -2532008.19000  24878398.45100                  -1906990.80440  24878404.24040
   9445426.55300  23265826.49000                   7434900.16940  23265830.52140
   -530376.29700  23481806.67000                   -376555.00740  23481810.73640
 96  9 10  1  8  0.0060000  0  6  1 14 15 22 25 29
  45283206.69100  26576554.48200                  35380505.38740  26576559.49840
  -4140232.36400  22800374.54500                  -3178766.49040  22800379.47840
  16172480.12100  23598249.83400                  12613883.74940  23598255.71740
  -2560018.44600  24873068.09200                  -1928816.93540  24873074.04540
   9567699.76700  23289094.37300                   7530177.98740  23289098.38140
   -509613.15700  23485757.70100                   -360375.92840  23485762.02540
 96  9 10  1  8 30.0060000  0  6  1 14 15 22 25 29
  45423331.98900  26603220.13900                  35489693.91440  26603226.02140
  -4133788.35400  22801600.59200                  -3173745.17740  22801605.74840
  16309869.81500  23624393.81800                  12720940.62740  23624399.67840
  -2587851.24400  24867771.73200                  -1950504.77240  24867777.69740
   9690362.57500  23312436.31100                   7625759.38540  23312440.24840
   -488689.56500  23489739.49800                   -344071.81940  23489743.86940
 96  9 10  1  9  0.0060000  0  6  1 14 15 22 25 29
  45563491.23600  26629891.12300                  35598908.94940  26629896.04540
  -4127008.63700  22802890.79500                  -3168462.27040  22802895.82240
  16447693.68200  23650621.23200                  12828335.81740  23650627.18640
  -2615497.16600  24862511.02100                  -1972046.98340  24862517.35040
   9813405.89100  23335850.83400                   7721637.28840  23335854.87740
   -467610.96200  23493750.42000                   -327646.92240  23493754.65040
 96  9 10  1  9 30.0060000  0  6  1 14 15 22 25 29
  45703670.43400  26656566.97500                  35708139.49940  26656573.99840
  -4119881.83800  22804247.17800                  -3162908.91740  22804252.29940
  16585961.17700  23676932.39600                  12936076.68240  23676938.37340
  -2642938.80000  24857288.74800                  -1993430.01540  24857294.42040
   9936825.54400  23359336.60700                   7817808.44340  23359340.63940
   -446371.75600  23497792.27900                   -311096.88140  23497796.72140
 96  9 10  1 10  0.0060000  0  5 14 15 22 25 29
  -4112413.38300  22805668.41200                  -3157089.33940  22805673.81440
  16724653.99600  23703324.97500                  13044148.97140  23703330.71740
  -2670176.92800  24852105.95900                  -2014654.49140  24852111.93640
  10060590.19100  23382888.15400                   7914248.41440  23382892.20940
   -424979.80400  23501862.98200                   -294427.82140  23501867.35340
 96  9 10  1 10 30.0060000  0  5 14 15 22 25 29
  -4104583.43600  22807158.31100                  -3150988.07740  22807163.47840
  16863777.68100  23729799.38100                  13152557.00740  23729805.14640
  -2697211.74700  24846961.47500                  -2035720.52140  24846966.95940
  10184687.59600  23406502.98200                   8010947.68440  23406507.10740
   -403418.25300  23505966.01400                   -277626.60140  23505970.24440
 96  9 10  1 11  0.0060000  0  5 14 15 22 25 29
  -4096390.70000  22808717.17800                  -3144604.12540  22808722.43940
  17003333.44100  23756355.82600                  13261301.71540  23756361.88540
  -2724047.84100  24841854.68600                  -2056631.71540  24841860.79140
  10309120.12200  23430181.82600                   8107908.08740  23430185.98640
   -381669.40500  23510104.74800                   -260679.43740  23510109.14340
 96  9 10  1 11 30.0060000  0  5 14 15 22 25 29
  -4087833.53700  22810345.57600                  -3137936.20140  22810350.63940
  17143313.46800  23782993.20900                  13370377.02040  23782999.25640
  -2750671.48500  24836788.17800                  -2077377.36240  24836794.42440
  10433901.13000  23453927.04500                   8205140.03440  23453931.22840
   -359726.10800  23514280.40400                   -243580.75140  23514284.82240
 96  9 10  1 12  0.0060000  0  5 14 15 22 25 29
  -4078904.25500  22812044.89600                  -3130978.31840  22812049.86540
  17283714.82800  23809710.55300                  13479780.64940  23809716.50640
  -2777069.89600  24831764.86500                  -2097947.48640  24831770.99440
  10559036.82300  23477739.41200                   8302648.36440  23477743.36140
   -337583.88400  23518493.85000                   -226327.06340  23518497.96340
 96  9 10  1 12 30.0060000  0  5 14 15 22 25 29
  -4069582.30200  22813818.73200                  -3123714.44740  22813823.84240
  17424541.72500  23836508.99800                  13589515.84840  23836514.78740
  -2803237.04000  24826784.90400                  -2118337.42940  24826791.01040
  10684539.77500  23501621.96700                   8400442.86340  23501625.81140
   -315247.63700  23522744.34200                   -208922.18340  23522748.53740
 96  9 10  1 13  0.0060000  0  5 14 15 22 25 29
  -4059866.32600  22815667.63100                  -3116143.55540  22815672.63540
  17565780.50200  23863385.93600                  13699572.00740  23863391.73640
  -2829160.06000  24821851.73200                  -2138537.13040  24821857.83840
  10810415.12000  23525575.17000                   8498527.53940  23525579.37740
   -292736.99200  23527028.11500                   -191381.41140  23527032.51040
 96  9 10  1 13 30.0060000  0  5 14 15 22 25 29
  -4049753.44400  22817592.13100                  -3108263.37840  22817597.18240
  17707429.05500  23890340.67000                  13809947.46040  23890346.56440
  -2854824.21900  24816968.30300                  -2158535.12640  24816974.04540
  10936661.89800  23549599.17800                   8596901.64840  23549603.38540
   -270069.72200  23531341.50600                   -173718.59340  23531345.88940
 96  9 10  1 14  0.0060000  0  5 14 15 22 25 29
  -4039244.87900  22819591.77100                  -3100074.88440  22819596.89340
  17849487.91700  23917374.07600                  13920642.64140  23917379.92440
  -2880251.25400  24812129.47500                  -2178348.36040  24812135.27540
  11063275.84800  23573692.99000                   8695561.85840  23573696.95140
   -247250.45600  23535683.61500                   -155937.33740  23535687.63540
 96  9 10  1 14 30.0060000  0  5 14 15 22 25 29
  -4028337.59100  22821667.33400                  -3091575.69040  22821672.45540
  17991959.90600  23944485.32600                  14031659.73840  23944491.32640
  -2905443.89000  24807335.56100                  -2197978.93240  24807341.11540
  11190260.60400  23597857.45900                   8794511.01240  23597861.49040
   -224272.08900  23540056.29500                   -138032.09940  23540060.27940
 96  9 10  1 15  0.0060000  0  5 14 15 22 25 29
  -4017057.27400  22823814.06100                  -3082785.82740  22823819.11140
  18134838.21200  23971673.90400                  14142993.44340  23971679.89340
  -2930407.88600  24802584.70900                  -2217431.36940  24802590.88540
  11317608.10900  23622090.84200                   8893742.82840  23622094.97840
   -201128.01700  23544460.45100                   -119997.74940  23544464.60040
 96  9 10  1 15 30.0060000  0  5 14 15 22 25 29
  -4005429.41600  22826026.61500                  -3073725.14740  22826031.58440
  18278116.53500  23998939.36500                  14254638.84440  23998945.14340
  -2955147.86800  24797876.84200                  -2236709.22040  24797882.32640
  11445306.26400  23646391.01400                   8993247.88040  23646394.96340
   -177815.96900  23548896.78700                   -101832.51040  23548900.84240
 96  9 10  1 16  0.0060000  0  5 14 15 22 25 29
  -3993438.43100  22828308.42800                  -3064381.52340  22828313.63140
  18421799.29800  24026281.39600                  14366599.39740  24026287.20940
  -2979652.17200  24793214.38900                  -2255803.44240  24793220.28340
  11573356.41100  23670758.10700                   9093027.20440  23670762.29140
   -154308.04600  23553369.97500                    -83514.63740  23553374.07640
 96  9 10  1 16 30.0060000  0  5 14 15 22 25 29
  -3981080.92100  22830660.05300                  -3054752.28540  22830665.15040
  18565884.83500  24053699.88100                  14478873.80240  24053705.76440
  -3003892.88500  24788601.04500                  -2274692.26340  24788606.56440
  11701747.27000  23695189.74000                   9193072.02540  23695193.88940
   -130599.38300  23557881.70900                    -65040.34640  23557885.90440
 96  9 10  1 17  0.0070000  0  5 14 15 22 25 29
  -3968367.19400  22833079.27600                  -3044845.47640  22833084.22240
  18710364.42800  24081193.33900                  14591455.25140  24081199.30440
  -3027868.38500  24784038.76900                  -2293374.41740  24784044.85140
  11830459.84600  23719683.33900                   9293367.53240  23719687.41740
   -106707.97300  23562428.09700                    -46423.65040  23562432.28040
 96  9 10  1 17 30.0070000  0  5 14 15 22 25 29
  -3955282.88400  22835569.13600                  -3034649.90740  22835574.09340
  18855227.42300  24108759.92500                  14704335.47240  24108765.83140
  -3051566.80700  24779529.26100                  -2311840.69240  24779534.92140
  11959485.60200  23744235.95600                   9393907.07540  23744240.24540
    -82636.25000  23567008.67500                    -27666.45840  23567012.99940
 96  9 10  1 18  0.0070000  0  5 14 15 22 25 29
  -3941799.50700  22838135.00300                  -3024143.37440  22838139.94840
  19000486.30900  24136402.04200                  14817524.17340  24136407.96040
  -3074988.24600  24775072.05000                  -2330091.12240  24775077.89740
  12088837.98300  23768850.90900                   9494701.13540  23768855.14040
    -58380.66300  23571624.43300                     -8765.98640  23571628.69840
 96  9 10  1 18 30.0070000  0  5 14 15 22 25 29
  -3927927.03900  22840774.73700                  -3013333.65540  22840779.68340
  19146137.07400  24164118.00300                  14931018.22940  24164124.06140
  -3098140.62300  24770666.34700                  -2348131.88340  24770671.83140
  12218523.20800  23793528.97200                   9595754.55240  23793533.12040
    -33947.01000  23576273.85400                     10273.23240  23576278.00340
 96  9 10  1 19  0.0070000  0  5 14 15 22 25 29
  -3913664.79100  22843488.98700                  -3002220.21140  22843494.03840
  19292174.80900  24191908.12000                  15044813.81640  24191913.99140
  -3121022.90000  24766312.03400                  -2365962.18340  24766318.23340
  12348554.38000  23818273.11200                   9697077.53440  23818277.42540
     -9328.36600  23580958.65900                     29456.60340  23580962.81940
 96  9 10  1 19 30.0070000  0  5 14 15 22 25 29
  -3899014.98400  22846276.69000                  -2990804.77140  22846281.78840
  19438587.85000  24219769.87000                  15158901.85840  24219775.76540
  -3143644.89600  24762006.78400                  -2383589.65440  24762012.71440
  12478936.03700  23843084.15900                   9798673.62840  23843088.35440
     15474.05900  23585678.44800                     48783.18240  23585682.56140
 96  9 10  1 20  0.0070000  0  5 14 15 22 25 29
  -3883963.01900  22849141.03400                  -2979075.96440  22849145.96840
  19585374.43700  24247702.40900                  15273280.98140  24247708.32740
  -3166006.75100  24757751.69000                  -2401014.43840  24757757.56140
  12609669.74100  23867962.12800                   9900544.04140  23867966.22940
     40469.15700  23590434.82300                     68259.89240  23590438.83140
 96  9 10  1 20 30.0070000  0  5 14 15 22 25 29
  -3868504.99300  22852082.46400                  -2967030.74140  22852087.35140
  19732530.90900  24275705.40900                  15387948.30440  24275711.35140
  -3188089.69600  24753548.86200                  -2418221.88640  24753554.94440
  12740751.77400  23892906.26100                  10002685.88040  23892910.30440
     65661.05400  23595228.61200                     87889.94740  23595232.76140
 96  9 10  1 21  0.0070000  0  5 14 15 22 25 29
  -3852619.69500  22855105.32300                  -2954652.58140  22855110.21040
  19880061.01300  24303779.51100                  15502906.78840  24303785.38240
  -3209879.01600  24749402.98700                  -2435200.54440  24749408.90540
  12872171.59400  23917914.35400                  10105090.92940  23917918.76140
     91039.61200  23600058.05000                    107665.45640  23600062.25740
 96  9 10  1 21 30.0070000  0  5 14 15 22 25 29
  -3836301.89400  22858210.48700                  -2941937.40540  22858215.43340
  20027957.34900  24331923.37000                  15618150.63840  24331929.31140
  -3231386.00500  24745309.91700                  -2451959.18840  24745315.91740
  13003913.70300  23942984.13600                  10207747.11840  23942988.46040
    116579.98600  23604918.18300                    127567.05740  23604922.33140
 96  9 10  1 22  0.0070000  0  6 14 15 18 22 25 29
  -3819542.90300  22861399.47200                  -2928878.44540  22861404.60440
  20176219.76800  24360136.72900                  15733679.75840  24360142.71840
     -6817.63910  26894530.80800
  -3252603.03600  24741272.61200                  -2468491.88540  24741278.57740
  13135964.08400  23968112.46400                  10310643.51040  23968116.57740
    142279.62400  23609808.63600                    147592.75740  23609812.69040
 96  9 10  1 22 30.0070000  0  6 14 15 18 22 25 29
  -3802351.02600  22864671.22900                  -2915482.16940  22864676.16340
  20324848.67600  24388419.74500                  15849494.45340  24388425.48740
    -25380.62500  26890998.47900
  -3273517.42600  24737292.80800                  -2484788.76040  24737298.63240
  13268320.19000  23993298.82300                  10413778.13740  23993302.91340
    168130.00300  23614727.81500                    167735.91940  23614731.90540
 96  9 10  1 23  0.0070000  0  6 14 15 18 22 25 29
  -3784746.38300  22868021.26100                  -2901764.26340  22868026.27640
  20473826.34000  24416769.20600                  15965580.89040  24416775.10140
    -43903.96000  26887473.20600
  -3294147.90400  24733366.84700                  -2500864.42940  24733372.90540
  13400972.13800  24018541.77600                  10517143.28940  24018545.51540
    194115.41400  23619672.62800                    187984.29740  23619676.61240
 96  9 10  1 23 30.0070000  0  6 14 15 18 22 25 29
  -3766733.92500  22871448.88600                  -2887728.57540  22871453.96040
  20623151.51500  24445184.86200                  16081938.13240  24445190.87440
    -62389.87300  26883956.18300                    -12002.08750  26883963.15940
  -3314485.81900  24729496.65100                  -2516712.11440  24729502.86240
  13533927.89400  24043842.54200                  10620745.17240  24043846.62040
    220258.21100  23624647.50300                    208355.31640  23624651.51140
 96  9 10  1 24  0.0070000  0  6 14 15 18 22 25 29
  -3748316.45000  22874953.72200                  -2873377.29640  22874958.69040
  20772821.84200  24473666.25300                  16198564.30240  24473672.24140
    -80841.48400  26880445.39400                    -26379.90940  26880452.00340
  -3334529.93900  24725682.57300                  -2532330.86340  24725688.05840
  13667189.72200  24069201.41700                  10724585.54740  24069205.70640
    246580.33000  23629656.53400                    228866.06940  23629660.57740
 96  9 10  1 24 30.0070000  0  6 14 15 18 22 25 29
  -3729493.01900  22878535.58900                  -2858709.68240  22878540.68640
  20922843.98300  24502214.61200                  16315464.63040  24502220.22640
    -99238.17000  26876943.60400                    -40714.89240  26876947.76540
  -3354272.79900  24721925.91700                  -2547714.87140  24721931.82340
  13800775.37800  24094621.78400                  10828678.25940  24094625.89740
    273098.65100  23634702.62800                    249529.70840  23634706.78840
 96  9 10  1 25  0.0070000  0  6 14 15 18 22 25 29
  -3710252.81200  22882196.80800                  -2843717.30240  22882201.81140
  21073212.62800  24530829.02600                  16432634.96340  24530835.12040
   -117583.06700  26873453.03400                    -55009.55340  26873460.84340
  -3373717.05100  24718225.33100                  -2562866.18840  24718231.16740
  13934677.27700  24120102.55000                  10933017.40040  24120106.68640
    299817.62600  23639787.22200                    270349.70140  23639791.18340
 96  9 10  1 25 30.0070000  0  6 14 15 18 22 25 29
  -3690612.55800  22885934.10400                  -2828413.20340  22885938.99140
  21223900.95000  24559504.12800                  16550054.39440  24559509.94040
   -135897.45700  26869967.72200                    -69280.49840  26869973.90940
  -3392888.73400  24714576.59700                  -2577805.12840  24714582.45640
  14068850.04600  24145635.07300                  11037567.61040  24145639.02240
    326711.32400  23644904.71400                    291305.83340  23644908.97940
 96  9 10  1 26  0.0070000  0  6 14 15 18 22 25 29
  -3670543.49100  22889753.20600                  -2812774.96540  22889758.17540
  21374933.96500  24588244.52600                  16667742.40640  24588250.32740
   -154154.05800  26866494.06500                    -83506.32540  26866499.32740
  -3411765.39900  24710984.53400                  -2592514.16840  24710990.80440
  14203319.63600  24171223.55800                  11142349.10140  24171227.64740
    353808.09000  23650061.05000                    312420.20940  23650064.92940
 96  9 10  1 26 30.0070000  0  6 14 15 18 22 25 29
  -3650046.92500  22893653.56500                  -2796803.60440  22893658.45240
  21526302.09100  24617049.12800                  16785691.55040  24617054.67140
   -172361.72600  26863029.08100                    -97694.09440  26863034.46040
  -3430334.70600  24707451.20600                  -2606983.71440  24707457.32340
  14338077.97000  24196867.27600                  11247355.58640  24196871.12040
    381091.50400  23655252.88600                    333680.01840  23655256.99940
 96  9 10  1 27  0.0070000  0  6 14 15 18 22 25 29
  -3629125.32300  22897634.88600                  -2780501.04940  22897640.08940
  21677992.33900  24645914.72900                  16903891.70440  24645920.68340
   -190528.46700  26859572.12800                   -111849.88740  26859581.19040
  -3448597.87400  24703975.70600                  -2621214.70340  24703982.01140
  14473109.54600  24222562.83900                  11352574.99340  24222567.14040
    408544.38100  23660477.12800                    355071.88340  23660481.33540
 96  9 10  1 27 30.0070000  0  6 14 15 18 22 25 29
  -3607790.69600  22901694.56500                  -2763876.65840  22901699.48740
  21830004.27000  24674841.83100                  17022342.51540  24674847.45640
   -208648.07300  26856123.74500                   -125969.01440  26856129.97940
  -3466544.65000  24700560.66700                  -2635199.15940  24700566.35140
  14608429.40100  24248313.31500                  11458019.02540  24248317.53440
    436175.11400  23665735.02600                    376602.32940  23665739.15140
 96  9 10  1 28  0.0070000  0  6 14 15 18 22 25 29
  -3586038.22900  22905834.12000                  -2746926.67340  22905839.07740
  21982337.21200  24703829.83100                  17141043.46440  24703835.84340
   -226727.54800  26852682.87800                   -140056.83940  26852689.17140
  -3484154.36100  24697209.44800                  -2648920.98040  24697215.21440
  14744062.69300  24274123.41700                  11563707.29840  24274127.43640
    463990.45800  23671028.16700                    398276.63840  23671032.24540
 96  9 10  1 28 30.0070000  0  6 14 15 18 22 25 29
  -3563851.41000  22910055.93300                  -2729638.23640  22910060.94840
  22134991.33000  24732878.91700                  17259994.67340  24732884.96440
   -244764.12900  26849251.12000                   -154111.24740  26849257.14440
  -3501406.58500  24693926.76100                  -2662364.22440  24693932.24540
  14880014.33200  24299993.98700                  11669643.63440  24299997.98340
    491979.21200  23676354.18300                    420086.06140  23676358.14440
 96  9 10  1 29  0.0080000  0  6 14 15 18 22 25 29
  -3541243.49100  22914358.14100                  -2712021.66740  22914363.25040
  22287956.41300  24761987.30500                  17379188.19840  24761993.18740
   -262763.57300  26845826.21100                   -168136.74940  26845830.23040
  -3518312.42900  24690709.54700                  -2675537.55440  24690715.57040
  15016265.87500  24325922.03900                  11775813.65740  24325926.05940
    520119.77300  23681709.14800                    442013.77940  23681713.16840
 96  9 10  1 29 30.0080000  0  6 14 15 18 22 25 29
  -3518214.03100  22918740.60900                  -2694076.62540  22918745.60240
  22441221.14100  24791152.61700                  17498615.21340  24791158.79340
   -280723.24200  26842408.11700                   -182131.20540  26842414.50440
  -3534855.65800  24687561.34400                  -2688428.35540  24687566.85240
  15152808.76200  24351905.06200                  11882210.70940  24351909.26940
    548419.41100  23687094.60900                    464065.45840  23687098.53540
 96  9 10  1 30  0.0080000  0  6 14 15 18 22 25 29
  -3494743.69000  22923206.68700                  -2675788.04040  22923211.59840
  22594782.98500  24820374.62500                  17618273.73840  24820380.68440
   -298642.43000  26838998.35900                   -196094.17140  26839004.65240
  -3551044.42800  24684480.28100                  -2701042.92840  24684486.09440
  15289634.61600  24377942.33600                  11988828.24940  24377946.69540
    576868.17400  23692508.07000                    486233.33540  23692512.11340
 96  9 10  1 30 30.0080000  0  6 14 15 18 22 25 29
  -3470834.47000  22927756.62500                  -2657157.47840  22927761.69940
  22748638.83500  24849651.83600                  17738161.36740  24849657.80140
   -316510.69100  26835597.42200                   -210017.41240  26835602.85940
  -3566886.39400  24681466.24200                  -2713387.27340  24681472.01940
  15426723.63700  24404029.69500                  12095650.84940  24404033.70340
    605465.05700  23697949.90600                    508516.63140  23697953.94940
 96  9 10  1 31  0.0080000  0  6 14 15 18 22 25 29
  -3446482.36900  22932390.53900                  -2638181.81040  22932395.50840
  22902799.26800  24878987.69500                  17858286.33140  24878993.82440
   -334320.55800  26832208.50000                   -223895.11240  26832213.50440
  -3582376.23900  24678518.07800                  -2725457.23540  24678523.92640
  15564083.76700  24430168.21100                  12202684.70740  24430172.51240
    634241.35600  23703425.71900                    530939.72940  23703429.70340
 96  9 10  1 31 30.0080000  0  6 14 15 18 22 25 29
  -3421683.23200  22937109.68000                  -2618857.80640  22937114.70740
  23057257.25200  24908380.56200                  17978643.14440  24908386.63340
   -352079.21000  26828829.14100                   -237733.01340  26828832.89140
  -3597534.47500  24675633.68700                  -2737268.81340  24675639.27740
  15701718.40500  24456359.11700                  12309932.46540  24456363.61740
    663207.86200  23708937.84400                    553511.04940  23708941.88740
 96  9 10  1 32  0.0080000  0  6 14 15 18 22 25 29
  -3396434.66000  22941914.31200                  -2599183.58940  22941919.31640
  23211999.28800  24937827.13300                  18099221.29940  24937833.00440
   -369802.90200  26825456.72700                   -251543.65640  26825460.10240
  -3612381.16100  24672808.44500                  -2748837.61840  24672814.21140
  15839609.66200  24482599.03900                  12417380.19640  24482602.97740
    692347.77600  23714483.02300                    576217.48940  23714487.25440
 96  9 10  1 32 30.0080000  0  6 14 15 18 22 25 29
  -3370744.90900  22946802.93000                  -2579165.59540  22946807.92240
  23367028.43600  24967327.98400                  18220023.18640  24967333.96140
   -387491.95800  26822090.43700                   -265327.27340  26822094.82040
  -3626896.29200  24670046.25800                  -2760148.06240  24670052.19940
  15977753.73600  24508886.96100                  12525024.91740  24508891.01640
    721666.48000  23720062.16400                    599063.24840  23720066.28940
 96  9 10  1 33  0.0080000  0  6 14 15 18 22 25 29
  -3344605.03000  22951777.14800                  -2558796.85640  22951782.15240
  23522345.59200  24996884.30500                  18341049.47340  24996890.63340
   -405140.45200  26818731.93700                   -279079.29640  26818739.20740
  -3641072.36000  24667348.54700                  -2771194.30240  24667354.58240
  16116161.80400  24535225.29700                  12632875.35140  24535229.39840
    751167.23000  23725676.04700                    622050.86240  23725680.21940
 96  9 10  1 33 30.0080000  0  6 14 15 18 22 25 29
  -3318002.11800  22956839.53100                  -2538067.31040  22956844.58240
  23677950.15800  25026494.79700                  18462299.74440  25026500.62140
   -422736.94200  26815384.19500                   -292790.77640  26815391.39440
  -3654900.30300  24664717.51600                  -2781969.27740  24664723.30540
  16254832.18900  24561613.57000                  12740930.17940  24561617.70740
    780840.84800  23731322.59400                    645173.17640  23731326.84840
 96  9 10  1 34  0.0080000  0  6 14 15 18 22 25 29
  -3290954.50300  22961986.67200                  -2516991.25040  22961991.60540
  23833825.97200  25056156.90600                  18583761.34840  25056162.84840
   -440296.24200  26812042.24200                   -306473.32540  26812046.82440
  -3668379.74000  24662152.03100                  -2792472.70240  24662157.89140
  16393746.11300  24588047.85900                  12849174.78440  24588052.00840
    810673.85700  23736999.63300                    668419.68840  23737003.86340
 96  9 10  1 34 30.0080000  0  6 14 15 18 22 25 29
  -3263469.08800  22967216.90600                  -2495574.04040  22967221.96940
  23989974.67000  25085870.98400                  18705435.60740  25085876.72740
   -457803.29700  26808709.63300                   -320115.15240  26808715.10540
  -3681508.40900  24659654.03100                  -2802702.78940  24659660.14840
  16532920.23700  24614532.07800                  12957622.15540  24614536.15640
    840679.61500  23742709.35900                    691800.81440  23742713.40240
 96  9 10  1 35  0.0080000  0  6 14 15 18 22 25 29
  -3235532.85800  22972533.03100                  -2473805.55040  22972538.05940
  24146401.63400  25115638.46900                  18827326.67640  25115644.23440
   -475238.23500  26805392.41400                   -333700.78040  26805399.85940
  -3694283.91100  24657222.89100                  -2812657.68940  24657228.70340
  16672372.66900  24641068.84400                  13066286.36740  24641072.76940
    870867.66900  23748454.05500                    715323.99240  23748458.07440
 96  9 10  1 35 30.0080000  0  6 14 15 18 22 25 29
  -3207152.25400  22977933.43000                  -2451690.79640  22977938.49240
  24303094.92900  25145455.81200                  18949425.29540  25145461.69540
   -492618.67800  26802085.59400                   -347243.91940  26802091.26640
  -3706705.53500  24654859.18000                  -2822336.83740  24654864.45340
  16812092.06700  24667656.70300                  13175158.62540  24667660.93440
    901235.88700  23754232.71900                    738987.55340  23754236.76240
 96  9 10  1 36  0.0080000  0  6 14 15 18 22 25 29
  -3178327.53200  22983418.84400                  -2429229.97140  22983423.84840
  24460051.69000  25175323.39100                  19071729.20740  25175329.43740
   -509944.31200  26798787.78100                   -360744.42140  26798794.81640
  -3718769.99000  24652563.47700                  -2831737.66340  24652569.05540
  16952088.61200  24694297.15600                  13284246.82740  24694301.30540
    931800.50000  23760049.21100                    762804.15440  23760053.17240
 96  9 10  1 36 30.0080000  0  6 14 15 18 22 25 29
  -3149052.44400  22988989.63300                  -2406418.21740  22988994.63740
  24617263.86400  25205239.96100                  19194232.14740  25205246.21940
   -527212.79000  26795502.43000                   -374200.29540  26795507.10540
  -3730465.11900  24650337.57000                  -2840850.70040  24650343.58240
  17092348.72700  24720987.48400                  13393540.41340  24720991.71540
    962553.73300  23765901.30500                    786767.72640  23765905.32440
 96  9 10  1 37  0.0080000  0  6 14 15 18 22 25 29
  -3119311.40000  22994649.16400                  -2383243.37740  22994654.23840
  24774727.79500  25235204.57800                  19316931.23240  25235210.81240
   -544429.94700  26792225.71100                   -387616.24740  26792231.91040
  -3741776.41200  24648185.10900                  -2849664.66840  24648190.52340
  17232856.00000  24747725.39100                  13503026.58940  24747729.84440
    993485.95000  23771787.51600                    810870.75640  23771791.46540
 96  9 10  1 37 30.0080000  0  6 14 15 18 22 25 29
  -3089075.54200  23000402.96100                  -2359682.96540  23000408.16440
  24932454.37400  25265218.93000                  19439835.01240  25265225.15240
   -561589.35500  26788959.78100                   -400987.16640  26788965.57040
  -3752685.27300  24646109.10900                  -2858165.02240  24646115.07440
  17373608.80900  24774509.45300                  13612704.09440  24774513.57840
   1024609.79200  23777710.19500                    835123.11840  23777714.29740
 96  9 10  1 38  0.0080000  0  6 14 15 18 22 25 29
  -3058360.39600  23006247.78900                  -2335749.07840  23006252.93440
  25090420.21100  25295279.29700                  19562925.22040  25295285.02740
   -578701.75900  26785704.39800                   -414321.47540  26785709.01640
  -3763214.09700  24644105.42200                  -2866369.26040  24644111.26940
  17514580.65100  24801335.48400                  13722552.28240  24801339.60940
   1055886.86100  23783661.94500                    859494.87240  23783666.03540
 96  9 10  1 38 30.0080000  0  6 14 15 18 22 25 29
  -3027151.76000  23012186.54700                  -2311430.65940  23012191.65640
  25248633.47100  25325385.60900                  19686208.23140  25325391.63340
   -595756.40200  26782458.03100                   -427610.75040  26782464.92640
  -3773343.95200  24642177.89800                  -2874262.60340  24642183.80540
  17655766.54900  24828202.28900                  13832567.25340  24828206.33240
   1087300.74900  23789639.86700                    883973.23840  23789643.69940
 96  9 10  1 39  0.0080000  0  6 14 15 18 22 25 29
  -2995457.64200  23018217.71900                  -2286733.94240  23018222.75840
  25407092.85900  25355539.82000                  19809683.01140  25355545.91440
   -612756.00900  26779223.42200                   -440857.17940  26779229.11740
  -3783080.08700  24640324.92200                  -2881849.16340  24640330.38340
  17797178.93300  24855112.20300                  13942758.71140  24855116.41040
   1118854.30600  23795644.28100                    908560.44740  23795648.33640
 96  9 10  1 39 30.0080000  0  6 14 15 18 22 25 29
  -2963285.62700  23024339.86700                  -2261664.83140  23024344.91840
  25565797.80000  25385740.53900                  19933349.13040  25385747.17240
   -629695.21700  26776000.61700                   -454056.52640  26776005.94940
  -3792415.02800  24638548.88300                  -2889123.08840  24638554.23840
  17938831.37700  24882067.80500                  14053137.22940  24882072.18740
   1150554.73500  23801676.66400                    933262.07740  23801680.66040
 96  9 10  1 40  0.0080000  0  6 14 15 18 22 25 29
  -2930648.36800  23030550.53100                  -2236233.19740  23030555.60540
  25724738.59900  25415985.93000                  20057199.04840  25415991.88340
   -646581.21700  26772786.49200                   -467214.43640  26772792.99640
  -3801350.15500  24636848.39800                  -2896085.48140  24636854.39840
  18080729.03400  24909070.18000                  14163706.82840  24909074.32840
   1182408.86700  23807738.50000                    958083.48740  23807742.42640
 96  9 10  1 40 30.0080000  0  6 14 15 18 22 25 29
  -2897550.54500  23036848.71100                  -2210442.68240  23036853.77340
  25883913.55000  25446276.52300                  20181231.41340  25446282.62940
   -663419.91100  26769582.93700                   -480335.44340  26769587.82440
  -3809872.53100  24635226.63300                  -2902726.24340  24635232.38740
  18222873.07800  24936119.16400                  14274468.41640  24936123.65240
   1214439.01600  23813833.51600                    983042.04840  23813837.35940
 96  9 10  1 41  0.0080000  0  6 14 15 18 22 25 29
  -2863998.20700  23043233.58600                  -2184298.00140  23043238.64840
  26043315.25400  25476609.16400                  20305440.48340  25476615.43440
   -680222.17900  26766384.22700                   -493428.10140  26766389.34840
  -3817989.34900  24633681.96900                  -2909050.98240  24633687.78140
  18365267.43800  24963216.00800                  14385425.05240  24963220.77740
   1246662.99200  23819965.32000                   1008151.64840  23819969.36340
 96  9 10  1 41 30.0090000  0  6 14 15 18 22 25 29
  -2829972.67800  23049708.29400                  -2157784.59440  23049713.27440
  26202951.91500  25506986.72400                  20429832.64240  25506992.43140
   -696982.30000  26763195.81700                   -506487.90940  26763200.99740
  -3825695.33300  24632215.57500                  -2915055.60240  24632221.52840
  18507911.82500  24990360.38800                  14496576.50940  24990364.61840
   1279092.51100  23826136.58300                   1033421.40940  23826140.61440
 96  9 10  1 42  0.0090000  0  6 14 15 18 22 25 29
  -2795480.53800  23056271.91100                  -2130907.59240  23056276.93840
  26362805.74400  25537406.46600                  20554394.00640  25537412.46640
   -713701.27900  26760014.13800                   -519515.62540  26760020.05640
  -3833001.50200  24630825.24700                  -2920748.67140  24630831.44640
  18650775.69100  25017546.29400                  14607898.99640  25017550.30240
   1311724.59500  23832346.33300                   1058849.01440  23832350.24740
 96  9 10  1 42 30.0090000  0  6 14 15 18 22 25 29
  -2760511.48400  23062926.45800                  -2103658.97540  23062931.34540
  26522888.54200  25567869.41900                  20679133.79440  25567875.18540
   -730369.56400  26756841.89500                   -532503.88240  26756847.50940
  -3839897.18600  24629512.85600                  -2926121.89240  24629518.51740
  18793861.66200  25044775.16900                  14719394.54940  25044779.50540
   1344548.82000  23838592.37200                   1084426.33540  23838596.46240
 96  9 10  1 43  0.0090000  0  6 14 15 18 22 25 29
  -2725065.73700  23069671.52000                  -2076038.91140  23069676.40740
  26683184.23600  25598372.73900                  20804039.47440  25598378.51740
   -747006.24100  26753676.51300                   -545467.47740  26753682.31340
  -3846401.70100  24628275.15300                  -2931190.29940  24628281.06040
  18937157.51900  25072043.07500                  14831053.65140  25072047.71640
   1377537.07300  23844870.03600                   1110131.47140  23844873.99740
 96  9 10  1 43 30.0090000  0  6 14 15 18 22 25 29
  -2689139.15900  23076508.12200                  -2048044.17040  23076513.11440
  26843690.69800  25628915.68500                  20929109.38140  25628922.01340
   -763608.71600  26750517.18500                   -558404.45040  26750522.04840
  -3852499.42800  24627114.95800                  -2935941.72440  24627120.64240
  19080657.23000  25099350.36400                  14942871.60240  25099354.70040
   1410681.74000  23851177.16900                   1135958.49440  23851181.23540
 96  9 10  1 44  0.0090000  0  6 14 15 18 22 25 29
  -2652715.53200  23083439.44200                  -2019662.12140  23083444.52840
  27004412.80800  25659500.30200                  21054347.33240  25659506.19640
   -780162.84900  26747366.81700                   -571303.71840  26747372.78240
  -3858166.95100  24626036.38000                  -2940357.93340  24626042.00540
  19224364.61300  25126696.89500                  15054851.37140  25126700.95040
   1443981.05200  23857513.69200                   1161906.01640  23857517.79440
 96  9 10  1 44 30.0090000  0  6 14 15 18 22 25 29
  -2615787.62800  23090466.41900                  -1990887.12940  23090471.38840
  27165341.88200  25690125.10600                  21179746.54340  25690130.62640
   -796675.95700  26744224.56000                   -584171.08540  26744229.30640
  -3863400.37600  24625040.33300                  -2944435.88240  24625046.36840
  19368286.88200  25154084.21600                  15166998.58440  25154088.38840
   1477429.36500  23863878.83300                   1187969.63940  23863882.84140
 96  9 10  1 45  0.0090000  0  6 14 15 18 22 25 29
  -2578357.77400  23097589.09900                  -1961721.00440  23097594.04440
  27326474.81300  25720786.64500                  21305304.61940  25720793.02040
   -813139.86300  26741091.42700                   -597000.05840  26741096.88840
  -3868196.75500  24624127.51300                  -2948173.28240  24624133.19640
  19512426.64900  25181513.35600                  15279315.29040  25181517.77440
   1511048.14100  23870276.33300                   1214166.09740  23870280.35240
 96  9 10  1 45 30.0090000  0  6 14 15 18 22 25 29
  -2540430.97900  23104806.24700                  -1932167.65240  23104811.14540
  27487810.84200  25751488.02800                  21431020.94540  25751493.87640
   -829522.19300  26737974.55200                   -609765.46540  26737981.36040
  -3872552.05800  24623298.66100                  -2951566.97840  24623304.45040
  19656777.15700  25208982.35600                  15391796.20440  25208986.83340
   1544856.36500  23876709.55200                   1240510.17640  23876713.65340
 96  9 10  1 46  0.0090000  0  6 14 15 18 22 25 29
  -2502001.51900  23112119.24700                  -1902222.61740  23112124.21640
  27649348.84400  25782227.39500                  21556894.65240  25782233.40740
   -845823.70600  26734871.41900                   -622467.88840  26734878.72440
  -3876484.29800  24622550.28600                  -2954631.02640  24622555.94640
  19801345.85200  25236492.96600                  15504447.12840  25236496.68140
   1578861.38700  23883180.71600                   1267007.59840  23883184.81740
 96  9 10  1 46 30.0090000  0  6 14 15 18 22 25 29
  -2463084.74800  23119525.01300                  -1871897.86440  23119529.93540
  27811084.47400  25813005.38800                  21682922.34340  25813011.27040
   -862055.32400  26731782.88800                   -635115.86940  26731789.06340
  -3880006.23700  24621880.20800                  -2957375.35140  24621885.59940
  19946141.67400  25264046.45000                  15617275.03640  25264050.88040
   1613065.72900  23889689.60600                   1293660.34540  23889693.62640
 96  9 10  1 47  0.0090000  0  6 14 15 18 22 25 29
  -2423692.18100  23127020.98900                  -1841202.35740  23127025.94640
  27973011.81200  25843818.67700                  21809099.44440  25843824.85240
   -878221.53700  26728706.83300                   -647712.85840  26728711.66140
  -3883113.85300  24621288.89500                  -2959796.83140  24621294.83740
  20091147.04200  25291640.00500                  15730266.22240  25291644.41140
   1647466.27700  23896235.74700                   1320465.97840  23896239.75540
 96  9 10  1 47 30.0090000  0  6 14 15 18 22 25 29
  -2383808.44300  23134610.61400                  -1810124.12440  23134615.58340
  28135128.64600  25874669.10600                  21935424.18540  25874674.83740
   -894337.95200  26725639.54400                   -660271.07240  26725645.83740
  -3885806.09200  24620776.32500                  -2961894.64340  24620781.91540
  20236358.82600  25319273.10600                  15843418.26040  25319277.45440
   1682044.65400  23902815.86400                   1347410.17840  23902819.90740
 96  9 10  1 48  0.0090000  0  6 14 15 18 22 25 29
  -2343431.68600  23142294.13800                  -1778661.70740  23142299.08340
  28297429.72400  25905553.02800                  22061892.47340  25905559.21640
   -910422.06900  26722579.04400                   -672804.11340  26722585.14940
  -3888077.46500  24620344.07500                  -2963664.49140  24620349.51340
  20381776.74000  25346945.03600                  15956730.92740  25346949.37240
   1716781.21800  23909425.85600                   1374477.64840  23909429.87640
 96  9 10  1 48 30.0090000  0  6 14 15 18 22 25 29
  -2302569.72800  23150069.72400                  -1746821.22840  23150074.57540
  28459908.46300  25936472.13000                  22188499.22840  25936478.13040
   -926458.72000  26719527.63800                   -685300.17040  26719533.00540
  -3889906.45700  24619996.20800                  -2965089.65240  24620001.55240
  20527385.38200  25374653.40300                  16070192.19440  25374657.61040
   1751674.30400  23916065.70800                   1401667.07640  23916069.65740
 96  9 10  1 49  0.0090000  0  6 14 15 18 22 25 29
  -2261211.69300  23157939.96600                  -1714594.18640  23157944.92340
  28622559.97900  25967424.59100                  22315240.57840  25967430.89540
   -942450.28200  26716484.83300                   -697761.06940  26716490.28240
  -3891287.04600  24619733.32500                  -2966165.38840  24619738.68140
  20673175.13200  25402396.24700                  16183794.57840  25402400.81740
   1786723.67500  23922735.66900                   1428978.28740  23922739.72440
 96  9 10  1 49 30.0090000  0  6 14 15 18 22 25 29
  -2219337.11000  23165908.45000                  -1681964.64040  23165913.41940
  28785387.85100  25998409.17700                  22442119.37540  25998415.58740
   -958380.61000  26713453.61400                   -710174.30340  26713458.94640
  -3892209.64800  24619557.84900                  -2966884.26640  24619563.22740
  20819165.59600  25430177.17700                  16297553.38440  25430181.34940
   1821942.92100  23929437.44200                   1456421.87040  23929441.53240
 96  9 10  1 50  0.0090000  0  6 14 15 18 22 25 29
  -2176964.61700  23173971.95000                  -1648947.11340  23173976.96640
  28948379.28800  26029425.92700                  22569125.62740  26029431.35240
   -974253.43800  26710432.78600                   -722542.69440  26710439.57140
  -3892672.86000  24619469.72400                  -2967245.17340  24619475.31340
  20965354.52800  25457996.31700                  16411466.82640  25458000.60640
   1857351.99000  23936175.53600                   1484013.36640  23936179.60240
 96  9 10  1 50 30.0090000  0  6 14 15 18 22 25 29
  -2134079.37100  23182132.63000                  -1615530.03440  23182137.52840
  29111540.59100  26060473.88800                  22696264.22940  26060479.75940
   -990076.61500  26707421.21600                   -734872.37640  26707426.22040
  -3892672.26800  24619469.73100                  -2967244.66540  24619475.05240
  21111750.91800  25485854.45800                  16525541.93440  25485858.63040
   1892979.20300  23942955.19200                   1511774.85140  23942959.24740
 96  9 10  1 51  0.0090000  0  6 14 15 18 22 25 29
  -2090657.48200  23190395.54400                  -1581694.79540  23190400.63040
  29274878.99400  26091557.50500                  22823540.83040  26091563.78640
  -1005856.26900  26704418.63800                   -747168.21240  26704424.86040
  -3892206.78300  24619558.34900                  -2966881.91440  24619564.13840
  21258366.40800  25513754.45000                  16639787.76240  25513758.92740
   1928834.62500  23949778.07500                   1539714.15540  23949782.10640
 96  9 10  1 51 30.0090000  0  6 14 15 18 22 25 29
  -2046718.04600  23198756.95800                  -1547456.27240  23198761.98540
  29438373.46800  26122668.31700                  22950939.02740  26122675.05640
  -1021591.96100  26701423.39500                   -759429.74540  26701429.97040
  -3891290.42600  24619732.64500                  -2966167.82740  24619738.01340
  21405174.16400  25541690.99700                  16754183.40840  25541695.33340
   1964909.28900  23956643.08300                   1567824.29440  23956647.03240
 96  9 10  1 52  0.0090000  0  6 14 15 18 22 25 29
  -2002269.05800  23207215.32500                  -1512820.69340  23207220.27040
  29602018.32000  26153809.35600                  23078454.43340  26153815.82540
  -1037290.62700  26698436.44200                   -771662.42540  26698442.18540
  -3889938.14600  24619990.07500                  -2965114.06740  24619995.85240
  21552153.29200  25569660.09900                  16868712.57740  25569664.21240
   2001189.57600  23963547.01300                   1596094.65640  23963551.03240
 96  9 10  1 52 30.0090000  0  6 14 15 18 22 25 29
  -1957284.07700  23215775.51300                  -1477767.45640  23215780.43540
  29765833.40400  26184982.64500                  23206102.46640  26184989.57540
  -1052914.64400  26695463.73100                   -783836.93240  26695469.96640
  -3888126.94700  24620334.56700                  -2963702.70540  24620339.70040
  21699313.95100  25597664.25500                  16983383.21340  25597668.84940
   2037669.83100  23970488.84900                   1624520.83840  23970492.85640
 96  9 10  1 53  0.0090000  0  6 14 15 18 22 25 29
  -1911784.36100  23224433.79400                  -1442313.12540  23224438.83340
  29929801.16700  26216183.29400                  23333869.50840  26216190.36440
  -1068451.52300  26692507.41900                   -795943.56540  26692513.34940
  -3885849.39900  24620767.96600                  -2961927.94740  24620773.21640
  21846636.05300  25625698.33300                  17098179.64840  25625702.44640
   2074326.25400  23977464.40300                   1653084.29840  23977468.41140
 96  9 10  1 53 30.0100000  0  6 14 15 18 22 25 29
  -1865774.86700  23233189.18900                  -1406461.57240  23233194.20540
  30093922.38000  26247415.28300                  23461756.08540  26247421.22540
  -1083906.74800  26689565.68200                   -807986.54640  26689572.25640
  -3883098.17200  24621291.57200                  -2959784.09240  24621296.77540
  21994123.20000  25653764.59600                  17213104.68740  25653769.35340
   2111154.09700  23984472.46300                   1681781.31940  23984476.41240
 96  9 10  1 54  0.0100000  0  6 14 15 18 22 25 29
  -1819252.91700  23242041.92400                  -1370210.69940  23242046.89340
  30258186.41100  26278673.44700                  23589753.97740  26278680.18540
  -1099290.64800  26686638.29100                   -819973.97540  26686643.85740
  -3879857.50800  24621908.34600                  -2957258.85040  24621914.21740
  22141775.30400  25681861.54900                  17328158.25240  25681865.94340
   2148140.31000  23991510.57200                   1710601.75440  23991514.69740
 96  9 10  1 54 30.0100000  0  6 14 15 18 22 25 29
  -1772228.80500  23250990.31400                  -1333568.52940  23250995.28340
  30422581.04400  26309958.50200                  23717853.59140  26309964.81840
  -1114621.32900  26683721.96300                   -831919.92740  26683726.94340
  -3876115.68200  24622620.21300                  -2954343.10140  24622625.54540
  22289596.15400  25709990.98600                  17443343.31640  25709995.56840
   2185275.28300  23998577.15000                   1739538.10040  23998581.14640
 96  9 10  1 55  0.0100000  0  6 14 15 18 22 25 29
  -1724677.31300  23260039.01000                  -1296515.41540  23260044.00240
  30587123.14000  26341269.50200                  23846068.14340  26341275.32640
  -1129898.02800  26680813.79900                   -843823.80940  26680818.38140
  -3871851.15100  24623431.72800                  -2951020.05040  24623437.41240
  22437608.68600  25738157.15000                  17558677.74940  25738161.89640
   2222589.37800  24005677.98600                   1768614.02240  24005681.90040
 96  9 10  1 55 30.0100000  0  6 14 15 18 22 25 29
  -1676603.93900  23269187.31400                  -1259055.63740  23269192.35340
  30751797.34600  26372605.51000                  23974385.62640  26372610.30340
  -1145151.52400  26677911.36100                   -855709.62440  26677916.83440
  -3867090.70000  24624337.51800                  -2947310.56940  24624342.62740
  22585805.93000  25766357.65000                  17674156.10240  25766361.65840
   2260060.43100  24012808.49400                   1797812.25040  24012812.44340
 96  9 10  1 56  0.0100000  0  6 14 15 18 22 25 29
  -1627997.67200  23278436.74400                  -1221180.62240  23278441.85340
  30916609.25400  26403968.33000                  24102810.44040  26403975.30740
  -1160366.18200  26675015.61100                   -867565.16340  26675021.74040
  -3861827.51100  24625338.77500                  -2943209.34340  24625344.03740
  22734193.81000  25794595.29900                  17789783.00340  25794599.17840
   2297699.51600  24019970.83800                   1827141.41140  24019974.93940
 96  9 10  1 56 30.0100000  0  6 14 15 18 22 25 29
  -1578877.37100  23287783.72100                  -1182905.05840  23287788.84240
  31081552.08800  26435356.08000                  24231337.23440  26435362.42040
  -1175546.04400  26672127.72100                   -879393.58640  26672133.66240
  -3856080.95900  24626432.54100                  -2938731.47240  24626437.90840
  22882764.60700  25822867.35300                  17905552.44640  25822871.77140
   2335501.85900  24027164.47100                   1856597.79440  24027168.43240
 96  9 10  1 57  0.0100000  0  6 14 15 18 22 25 29
  -1529242.87500  23297229.02500                  -1144228.82740  23297234.25240
  31246619.47500  26466766.65800                  24359961.11140  26466772.13140
  -1190694.24500  26669244.12700                   -891197.34640  26669248.83840
  -3849867.87400  24627614.59600                  -2933890.07040  24627619.78740
  23031500.08900  25851170.68900                  18021450.21940  25851175.27140
   2373472.24900  24034389.72100                   1886185.11540  24034393.78740
 96  9 10  1 57 30.0100000  0  6 14 15 18 22 25 29
  -1479081.44700  23306774.44700                  -1105141.99740  23306779.59240
  31411814.17000  26498202.51800                  24488684.17240  26498209.15040
  -1205793.68200  26666371.87700                   -902963.11940  26666377.63140
  -3843181.13500  24628887.09600                  -2928679.58640  24628892.68540
  23180405.29500  25879506.86100                  18137480.23540  25879511.13940
   2411619.73900  24041649.16600                   1915910.44340  24041653.12740
 96  9 10  1 58  0.0100000  0  6 14 15 18 22 25 29
  -1428389.46500  23316420.68900                  -1065641.74640  23316425.74040
  31577131.09000  26529661.42400                  24617502.48740  26529667.78740
  -1220830.39100  26663510.33800                   -914680.01740  26663516.23240
  -3836012.03300  24630251.48600                  -2923093.23840  24630256.91240
  23329477.52300  25907874.14300                  18253640.38840  25907878.66640
   2449961.58400  24048945.29100                   1945787.21440  24048949.31040
 96  9 10  1 58 30.0100000  0  6 14 15 18 22 25 29
  -1377167.00400  23326168.04100                  -1025728.13440  23326173.01040
  31742559.64400  26561140.64300                  24746407.78840  26561147.33440
  -1235800.70000  26660661.76000                   -926345.13440  26660667.74840
  -3828351.94300  24631709.12700                  -2917124.29240  24631714.43540
  23478707.60800  25936271.51800                  18369923.57540  25936275.64340
   2488502.28700  24056279.30700                   1975818.94640  24056283.22140
 96  9 10  1 59  0.0100000  0  6 14 15 18 22 25 29
  -1325376.08600  23336023.55700                   -985371.57140  23336028.56040
  31908099.01300  26592641.94700                  24875399.39540  26592648.35740
  -1250694.97300  26657826.42400                   -937951.02940  26657832.74040
  -3820179.15300  24633264.15000                  -2910755.85340  24633269.69340
  23628101.26800  25964700.38500                  18486334.20740  25964704.79140
   2527256.62400  24063654.08800                   2006017.14340  24063658.18940
 96  9 10  1 59 30.0100000  0  6 14 15 18 22 25 29
  -1273016.13900  23345987.44700                   -944571.61140  23345992.60340
  32073752.28600  26624164.68900                  25004479.79240  26624171.01840
  -1265503.82200  26655009.42400                   -949490.36240  26655016.19740
  -3811480.97100  24634919.50200                  -2903978.01440  24634925.37340
  23777676.69300  25993163.61900                  18602886.46640  25993168.20140
   2566227.02000  24071069.79900                   2036383.70040  24071073.81840
 96  9 10  2  0  0.0100000  0  6 14 15 18 22 25 29
  -1220106.89600  23356055.50200                   -903343.62640  23356060.55340
  32239510.69600  26655708.26800                  25133642.12940  26655715.13940
  -1280225.13800  26652207.13500                   -960961.46740  26652212.23240
  -3802253.56000  24636675.50200                  -2896787.78740  24636681.04540
  23927415.30600  26021657.65800                  18719565.89440  26021662.14640
   2605406.50800  24078525.39300                   2066913.18640  24078529.40040
 96  9 10  2  0 30.0100000  0  6 14 15 18 22 25 29
  -1166656.14200  23366226.78300                   -861693.68740  23366231.85740
  32405370.25400  26687270.10300                  25262883.24540  26687276.38540
  -1294868.82300  26649420.24400                   -972372.06840  26649426.51440
  -3792499.36600  24638531.36100                  -2889187.08740  24638536.57640
  24077300.92200  26050180.23600                  18836359.86140  26050184.32640
   2644784.43300  24086018.86900                   2097597.30140  24086022.81840
 96  9 10  2  1  0.0100000  0  6 14 15 18 22 25 29
  -1112665.70900  23376501.01000                   -819623.21440  23376506.02540
  32571335.12400  26718851.81400                  25392206.47340  26718858.07240
  -1309440.88200  26646647.72800                   -983726.86240  26646653.70540
  -3782228.15400  24640486.01800                  -2881183.51040  24640491.50240
  24227337.34200  26078731.01800                  18953271.35440  26078735.07240
   2684354.91100  24093548.92400                   2128431.45840  24093552.87340
 96  9 10  2  1 30.0100000  0  6 14 15 18 22 25 29
  -1058169.93700  23386871.15000                   -777158.97340  23386876.11940
  32737391.02900  26750451.57200                  25521600.56940  26750458.71340
  -1323944.69600  26643887.19700                   -995028.49040  26643893.15040
  -3771463.68400  24642534.32200                  -2872795.57840  24642539.71340
  24377500.70900  26107306.11100                  19070281.73940  26107310.14340
   2724102.60900  24101112.44700                   2159403.70840  24101116.33840
 96  9 10  2  2  0.0100000  0  6 14 15 18 22 25 29
  -1003147.00200  23397341.73600                   -734283.95440  23397346.79940
  32903546.07000  26782069.83000                  25651071.96440  26782077.22840
  -1338359.40700  26641144.91600                  -1006260.68040  26641151.01040
  -3760191.05300  24644679.36100                  -2864011.68040  24644684.86940
  24527791.93100  26135905.33800                  19187391.78340  26135909.79140
   2764030.98500  24108710.78300                   2190516.75040  24108714.70940
 96  9 10  2  2 30.0100000  0  6 14 15 18 22 25 29
   -947598.46600  23407912.16600                   -690999.38340  23407917.15840
  33069791.23000  26813705.80700                  25780613.55440  26813712.87740
  -1352704.18300  26638414.09600                  -1017438.39440  26638419.58040
  -3748435.02100  24646916.44700                  -2854851.10340  24646922.01440
  24678217.96800  26164530.87700                  19304606.85440  26164535.06040
   2804142.24700  24116343.74400                   2221772.29640  24116347.68240
 96  9 10  2  3  0.0100000  0  6 14 15 18 22 25 29
   -891507.96800  23418585.85300                   -647292.50440  23418590.88140
  33236131.68300  26845359.52500                  25910229.40040  26845366.34640
  -1366970.16100  26635700.51000                  -1028554.67340  26635707.04940
  -3736189.54600  24649246.76000                  -2845309.13940  24649252.42040
  24828804.42300  26193186.45500                  19421946.95840  26193190.90840
   2844448.80600  24124013.72100                   2253180.01740  24124017.60040
 96  9 10  2  3 30.0100000  0  6 14 15 18 22 25 29
   -834892.91100  23429359.52500                   -603176.87140  23429364.57640
  33402543.61100  26877025.33000                  26039900.95140  26877032.50640
  -1381177.98400  26632995.86900                  -1039625.66540  26633000.40440
  -3723468.81000  24651667.17400                  -2835396.84840  24651672.71740
  24979527.29000  26221867.93900                  19539393.32740  26221872.43940
   2884932.02500  24131717.42400                   2284725.39940  24131721.31440
 96  9 10  2  4  0.0100000  0  6 14 15 18 22 25 29
   -777746.05600  23440234.03300                   -558646.85240  23440238.97840
  33569025.56000  26908706.16600                  26169627.07040  26908713.71740
  -1395345.63200  26630299.91600                  -1050665.34140  26630304.70940
  -3710262.47000  24654180.34600                  -2825106.15940  24654185.78340
  25130391.08600  26250576.52500                  19656949.54240  26250581.37740
   2925594.52100  24139455.22800                   2316410.47940  24139459.00240
 96  9 10  2  4 30.0100000  0  6 14 15 18 22 25 29
   -720055.04800  23451212.43200                   -513692.82240  23451217.50640
  33735592.17400  26940403.51000                  26299419.11540  26940410.52140
  -1409466.63300  26627613.11900                  -1061668.66840  26627618.33440
  -3696550.20400  24656789.75200                  -2814421.25040  24656795.15440
  25281406.67800  26279313.73600                  19774624.00940  26279318.28340
   2966464.92100  24147232.49400                   2348257.55840  24147236.45540
 96  9 10  2  5  0.0100000  0  6 14 15 18 22 25 29
   -661802.47100  23462297.52500                   -468301.20140  23462302.45940
  33902245.70000  26972117.03300                  26429278.90640  26972123.70140
  -1423526.69400  26624937.83800                  -1072624.50840  26624943.21740
  -3682291.64700  24659503.11900                  -2803310.64740  24659508.58040
  25432563.78600  26308077.86900                  19892408.75140  26308082.26440
   3007546.14400  24155050.08000                   2380268.91840  24155054.00640
 96  9 10  2  5 30.0100000  0  6 14 15 18 22 25 29
   -603019.12500  23473483.62700                   -422495.99840  23473488.56040
  34068966.08500  27003842.04100                  26559190.81840  27003847.53740
  -1437531.68400  26622271.88500                  -1083537.44740  26622277.70940
  -3667476.77400  24662322.39300                  -2791766.55940  24662327.79540
  25583832.99900  26336863.76800                  20010280.85140  26336868.01040
   3048825.28800  24162905.08800                   2412434.49940  24162908.76840
 96  9 10  2  6  0.0110000  0  6 14 15 18 22 25 29
   -543685.24000  23484774.21800                   -376261.80140  23484779.23340
  34235767.87700  27035584.95200                  26689166.10740  27035591.03440
  -1451453.97500  26619622.64700                  -1094385.95740  26619628.63640
  -3652074.17100  24665253.27200                  -2779764.49940  24665258.83940
  25735237.62200  26365675.06900                  20128258.48940  26365679.71040
   3090318.50400  24170800.96800                   2444766.88540  24170804.82340
 96  9 10  2  6 30.0110000  0  5 15 18 22 25 29
  34402642.00500  27067338.74100                  26819197.82840  27067344.70640
  -1465276.86900  26616992.49100                  -1105156.99040  26616998.18640
  -3636068.85700  24668298.91300                  -2767292.79240  24668304.09340
  25886776.46200  26394511.78800                  20246340.68540  26394515.74940
   3132029.12500  24178738.29600                   2477268.68340  24178742.19840
 96  9 10  2  7  0.0110000  0  6 14 15 18 22 25 29
     22222.95210  23507672.10100
  34569566.47900  27099104.53800                  26949268.75840  27099110.65540
  -1479022.06200  26614377.39700                  -1115867.50440  26614381.82740
  -3619482.81600  24671455.13200                  -2754368.56940  24671460.48740
  26038440.08700  26423372.35100                  20364520.12240  26423377.12040
   3173923.97700  24186710.60800                   2509914.03440  24186714.54640
 96  9 10  2  7 30.0110000  0  6 14 15 18 22 25 29
     83217.87400  23519279.04600                     19059.94750  23519284.08540
  34736559.34800  27130881.05400                  27079392.92940  27130888.97940
  -1492670.89900  26611779.58500                  -1126502.90340  26611785.30440
  -3602326.39400  24674719.68600                  -2740999.89540  24674724.92540
  26190266.65800  26452263.96800                  20482826.54640  26452268.55040
   3216017.96200  24194720.76500                   2542714.55740  24194724.63240
 96  9 10  2  8  0.0110000  0  6 14 15 18 22 25 29
    144785.72500  23530995.14700                     67034.89740  23531000.11640
  34903603.82100  27162669.91300                  27209557.36840  27162675.52640
  -1506254.05400  26609195.06900                  -1137087.13240  26609200.28440
  -3584641.38100  24678085.06100                  -2727219.33740  24678090.56940
  26342238.65700  26481183.73300                  20601246.27440  26481187.75340
   3258287.70500  24202764.32700                   2575652.02540  24202768.07740
 96  9 10  2  8 30.0110000  0  6 14 15 18 22 25 29
    206939.28600  23542822.49900                    115466.24440  23542827.40940
  35070715.74200  27194469.37400                  27339774.36140  27194476.96040
  -1519776.41700  26606621.65500                  -1147624.01740  26606628.31140
  -3566423.18000  24681551.92900                  -2713023.30540  24681557.13240
  26494368.83900  26510132.96000                  20719789.27240  26510137.01540
   3300757.33200  24210846.18600                   2608745.25140  24210850.01840
 96  9 10  2  9  0.0110000  0  6 14 15 18 22 25 29
    269641.55000  23554754.68600                    164325.15540  23554759.80840
  35237863.43200  27226276.91300                  27470019.22340  27226282.96040
  -1533266.31900  26604054.41300                  -1158135.59040  26604058.87840
  -3547715.77200  24685111.84300                  -2698446.07240  24685116.94040
  26646627.83300  26539106.60800                  20838432.64140  26539111.19040
   3343398.26800  24218960.49900                   2641971.96740  24218964.37840
 96  9 10  2  9 30.0110000  0  6 14 15 18 22 25 29
                                                     35924.13010  23566795.14700
  35405060.67600  27258092.43600                  27600302.68540  27258098.82340
  -1546704.02400  26601497.11600                  -1168606.48140  26601502.31940
  -3528502.14100  24688767.87400                  -2683474.38040  24688773.21840
  26799028.68400  26568107.91300                  20957186.53740  26568112.50740
   3386231.35600  24227111.13200                   2675348.40640  24227114.83540
 96  9 10  2 10  0.0110000  0  6 14 15 18 22 25 29
     99769.63800  23578944.30400                     19947.76350  23578949.30840
  35572307.71600  27289920.99100                  27730624.94440  27289927.15540
  -1560079.32700  26598952.27200                  -1179028.77040  26598957.62840
  -3508745.50800  24692527.59300                  -2668079.56740  24692532.71440
  26951549.31700  26597131.48300                  21076033.78140  26597135.19840
   3429259.99200  24235299.35100                   2708877.22540  24235303.22940
 96  9 10  2 10 30.0110000  0  6 14 15 18 22 25 29
    164155.16000  23591196.57700                     70118.30940  23591201.59340
  35739591.71400  27321752.36600                  27860975.99740  27321758.53040
  -1573382.92500  26596420.84300                  -1189395.16640  26596426.08140
  -3488440.66000  24696391.52200                  -2652257.57240  24696396.90140
  27104173.19700  26626175.03800                  21194961.46240  26626179.33940
   3472479.98000  24243523.86600                   2742555.14840  24243527.69840
 96  9 10  2 11  0.0110000  0  5 15 18 22 25 29
  35906914.65100  27353594.65500                  27991357.44640  27353601.52640
  -1586582.42300  26593908.96000                  -1199680.44940  26593913.74140
  -3467568.44700  24700363.31100                  -2635993.48440  24700368.47940
  27256903.45900  26655238.71000                  21313972.05240  26655243.64340
   3515884.68500  24251783.53800                   2776377.00340  24251787.41740
 96  9 10  2 11 30.0110000  0  6 14 15 18 22 25 29
     50256.32810  23616017.14000
  36074272.52700  27385441.55400                  28121766.02240  27385447.21440
  -1599690.07900  26591414.20200                  -1209894.17340  26591419.11240
  -3446108.80900  24704446.96800                  -2619271.66240  24704452.05440
  27409714.15300  26684317.27200                  21433045.30540  26684321.28040
   3559468.27400  24260077.14700                   2810338.25240  24260080.97940
 96  9 10  2 12  0.0110000  0  6 14 15 18 22 25 29
    116292.51900  23628583.46800                     39485.31550  23628588.39040
  36241659.11000  27417293.28800                  28252197.06640  27417301.97640
  -1612721.53700  26588934.64000                  -1220048.51540  26588939.87840
  -3424071.61600  24708640.23300                  -2602099.79140  24708645.42540
  27562593.73300  26713409.18600                  21552172.26140  26713413.52240
   3603242.75500  24268407.09300                   2844448.25240  24268410.91340
 96  9 10  2 12 30.0110000  0  6 14 15 18 22 25 29
    182879.03600  23641254.35100                     91370.91140  23641259.37840
  36409072.39300  27449151.40500                  28382648.89340  27449158.69840
  -1625691.88400  26586466.15500                  -1230155.23940  26586471.92140
  -3401474.44700  24712940.53000                  -2584491.57640  24712945.59340
  27715568.33000  26742519.53800                  21671373.23840  26742524.64740
   3647221.55700  24276775.88200                   2878717.45940  24276779.65540
 96  9 10  2 13  0.0110000  0  6 14 15 18 22 25 29
    250025.19100  23654031.85100                    143692.58740  23654036.89040
  36576516.52800  27481014.76500                  28513124.78540  27481021.06940
  -1638618.20600  26584006.66300                  -1240227.65340  26584012.51140
  -3378316.16900  24717347.22600                  -2566446.13640  24717352.40540
  27868650.32100  26771650.06100                  21790657.88240  26771654.10440
   3691414.14800  24285185.72600                   2913153.25640  24285189.62840
 96  9 10  2 13 30.0110000  0  6 14 15 18 22 25 29
    317710.47000  23666912.10100                    196434.36140  23666917.16340
  36743974.73200  27512879.60800                  28643611.58940  27512887.15940
  -1651531.33700  26581549.24900                  -1250289.80040  26581554.45240
  -3354621.57300  24721855.98300                  -2547982.78440  24721861.12840
  28021825.60000  26800798.13200                  21910015.23040  26800801.99940
   3735830.76300  24293637.74900                   2947763.61540  24293641.60440
 96  9 10  2 14  0.0110000  0  6 14 15 18 22 25 29
    385958.26500  23679899.06100                    249614.46240  23679904.03040
  36911460.81600  27544752.17100                  28774120.17940  27544760.81140
  -1664390.57000  26579102.04600                  -1260309.93040  26579106.85140
  -3330375.65000  24726469.60800                  -2529089.81940  24726474.81140
  28175136.41800  26829972.00700                  22029478.20840  26829976.15540
   3780498.73800  24302137.66300                   2982569.84640  24302141.40140
 96  9 10  2 14 30.0110000  0  7  4 14 15 18 22 25 29
      4226.40410  28284919.49900
    454766.52000  23692992.81100                    303231.28140  23692997.99140
  37078961.41500  27576627.20200                  28904639.96340  27576633.82340
  -1677181.83900  26576668.53000                  -1270277.09840  26576673.52240
  -3305570.71000  24731190.06900                  -2509761.26740  24731195.23740
  28328566.19700  26859168.97600                  22149033.88740  26859173.97940
   3825388.75700  24310680.21800                   3017549.09440  24310684.19040
 96  9 10  2 15  0.0110000  0  7  4 14 15 18 22 25 29
     29903.84100  28289805.55400
    524146.62500  23706195.46000                    357293.69640  23706200.38240
  37246479.07000  27608503.68600                  29035173.14340  27608509.22940
  -1689876.20200  26574252.44400                  -1280168.78240  26574258.30440
  -3280189.87300  24736019.92900                  -2489983.95840  24736025.02640
  28482100.45300  26888385.73300                  22268670.93740  26888390.74940
   3870492.97600  24319263.22600                   3052695.25140  24319267.21040
 96  9 10  2 15 30.0110000  0  7  4 14 15 18 22 25 29
     56114.45800  28294792.64000
    594107.84600  23719508.80400                    411808.93040  23719513.78440
  37414004.50600  27640383.34300                  29165712.33940  27640389.30840
  -1702453.19700  26571858.89000                  -1289969.00140  26571864.49140
  -3254217.44200  24740962.34300                  -2469745.66440  24740967.42940
  28635726.06400  26917619.99100                  22388379.19940  26917624.77240
   3915802.02600  24327885.18600                   3088001.02240  24327889.05440
 96  9 10  2 16  0.0110000  0  7  4 14 15 18 22 25 29
     82861.53600  28299882.40500
    664650.00700  23732932.35100                    466776.84240  23732937.35440
  37581536.13600  27672264.64000                  29296256.32940  27672271.36640
  -1714902.14000  26569490.02200                  -1299669.43040  26569495.14340
  -3227648.13400  24746018.29600                  -2449042.27540  24746023.35840
  28789438.30400  26946870.39000                  22508154.95640  26946874.71440
   3961292.89900  24336541.74900                   3123448.46840  24336545.64040
 96  9 10  2 16 30.0110000  0  7  4 14 15 18 22 25 29
    110121.84900  28305070.86600
    735766.39900  23746465.36600                    522192.20840  23746470.42940
  37749076.54000  27704146.12400                  29426807.19340  27704152.82740
  -1727227.00600  26567145.01500                  -1309273.19340  26567149.58540
  -3200484.39800  24751187.15500                  -2427875.69440  24751192.21840
  28943229.70600  26976136.02200                  22627992.38840  26976139.21040
   4006967.91100  24345233.40500                   3159039.40240  24345237.21440
 96  9 10  2 17  0.0110000  0  6 14 15 18 22 25 29
    807434.93700  23760103.27200                    578037.81740  23760108.37040
  37916606.31400  27736026.53000                  29557349.87640  27736032.60140
  -1739454.34800  26564817.89000                  -1318800.96640  26564823.50340
  -3172738.70800  24756467.28800                  -2406255.65140  24756472.36240
  29097102.79900  27005417.18600                  22747893.50040  27005421.27640
   4052827.21700  24353960.23300                   3194773.93440  24353964.11240
 96  9 10  2 17 30.0110000  0  7  4 14 15 18 22 25 29
     10407.16910  28315721.22600
    879662.52200  23773847.89000                    634319.04640  23773852.71840
  38084135.46100  27767905.72600                  29687891.97440  27767914.15540
  -1751580.68900  26562510.09300                  -1328250.03540  26562515.09740
  -3144403.25800  24761859.18600                  -2384176.05140  24761864.15540
  29251082.78000  27034718.15500                  22867877.89440  27034722.64340
   4098899.60300  24362727.34300                   3230674.50940  24362731.26840
 96  9 10  2 18  0.0120000  0  7  4 14 15 18 22 25 29
     39119.38400  28321184.65200
    952435.31600  23787696.26200                    691025.11840  23787701.21940
  38251659.95400  27799782.51900                  29818430.50740  27799788.49640
  -1763632.84600  26560216.41000                  -1337641.29440  26560222.15240
  -3115502.84300  24767358.66000                  -2361656.21340  24767363.80540
  29405173.12000  27064040.83200                  22987948.29040  27064045.47340
   4145183.62000  24371534.82400                   3266739.98940  24371538.64440
 96  9 10  2 18 30.0120000  0  7  4 14 15 18 22 25 29
     68317.55000  28326741.05100
   1025775.53900  23801652.23800                    748173.33440  23801657.17240
  38419172.72000  27831660.34000                  29948959.88940  27831667.22340
  -1775613.89200  26557936.83200                  -1346977.14840  26557941.44940
  -3086019.49200  24772969.01900                  -2338682.14840  24772974.16440
  29559379.04600  27093385.06600                  23108108.72540  27093388.71140
   4191700.27600  24380386.69100                   3302986.74240  24380390.50040
 96  9 10  2 19  0.0120000  0  7  4 14 15 18 22 25 29
     98011.36900  28332392.39400
   1099689.53700  23815717.79300                    805768.65440  23815722.77340
  38586667.54500  27863533.32400                  30079475.27640  27863541.03940
  -1787548.05800  26555665.69900                  -1356276.47040  26555670.56240
  -3055956.00300  24778690.05100                  -2315256.02640  24778694.96140
  29713701.66400  27122751.86300                  23228360.08540  27122756.03540
   4238438.98800  24389280.86300                   3339406.53140  24389284.80140
 96  9 10  2 19 30.0120000  0  7  4 14 15 18 22 25 29
    128201.13700  28338136.00400
   1174163.27200  23829889.62900                    863800.12940  23829894.59840
  38754132.54500  27895401.52700                  30209967.39140  27895407.70340
  -1799452.33600  26553399.93400                  -1365552.51340  26553405.27740
  -3025340.18900  24784515.98800                  -2291399.51940  24784521.15640
  29868110.75300  27152134.75400                  23348678.85040  27152138.52740
   4285376.75800  24398212.94100                   3375981.43140  24398216.71540
 96  9 10  2 20  0.0120000  0  7  4 14 15 18 22 25 29
    158914.08400  28343981.15200
   1249215.99000  23844171.71500                    922282.76040  23844176.67240
  38921584.99200  27927265.56600                  30340449.68740  27927272.83640
  -1811301.26900  26551145.56600                  -1374785.42940  26551151.12140
  -2994142.25000  24790452.46500                  -2267089.40740  24790457.49240
  30022620.69600  27181537.12100                  23469076.19140  27181542.09040
   4332518.89000  24407183.67600                   3412715.57140  24407187.51940
 96  9 10  2 20 30.0120000  0  7  4 14 15 18 22 25 29
    190132.82300  28349922.79300
   1324827.83100  23858560.09000                    981201.07240  23858565.05940
  39089001.60500  27959125.73000                  30470904.17840  27959134.23040
  -1823100.80700  26548900.13700                  -1383979.83340  26548905.08240
  -2962374.78800  24796497.91800                  -2242335.51640  24796503.37940
  30177210.64500  27210955.26200                  23589535.87240  27210959.29340
   4379839.41900  24416188.41000                   3449588.72440  24416192.09040
 96  9 10  2 21  0.0120000  0  7  4 14 15 18 22 25 29
    221879.05200  28355964.31600
   1401004.49800  23873056.09800                   1040559.50840  23873061.10140
  39256401.31300  27990980.84800                  30601345.32340  27990987.98840
  -1834814.75900  26546671.38700                  -1393107.57240  26546677.30540
  -2930030.25700  24802652.85500                  -2217131.96040  24802658.04740
  30331884.82900  27240388.05900                  23710061.18140  27240392.00840
   4427351.17200  24425229.51900                   3486610.87840  24425233.44540
 96  9 10  2 21 30.0120000  0  7  4 14 15 18 22 25 29
                  28362098.74600
   1477736.13100  23887657.76900                   1100350.38640  23887662.75040
  39423771.27800  28022830.09800                  30731763.47840  28022839.28940
  -1846425.64900  26544461.84000                  -1402154.99340  26544467.07840
  -2897103.15600  24808918.73000                  -2191474.45840  24808923.79340
  30486625.21200  27269834.37100                  23830638.08440  27269839.35140
   4475056.30400  24434307.69100                   3523783.71540  24434311.50040
 96  9 10  2 22  0.0120000  0  7  4 14 15 18 22 25 29
     31658.82200  28368331.28500
   1555042.76600  23902368.64400                   1160589.32140  23902373.59040
  39591108.34000  28054673.48800                  30862155.86740  28054682.77340
  -1857925.56600  26542273.41800                  -1411115.93840  26542278.71540
  -2863573.75000  24815299.08200                  -2165347.62140  24815304.14440
  30641432.99400  27299292.98000                  23951267.50540  27299297.49240
   4522967.67100  24443424.89400                   3561117.25640  24443428.57440
 96  9 10  2 22 30.0120000  0  7  4 14 15 18 22 25 29
     64900.47700  28374655.21500
   1632930.40600  23917190.12100                   1221280.98840  23917195.20740
  39758415.61600  28086510.25400                  30992525.16940  28086517.67640
  -1869320.96000  26540104.84800                  -1419995.44940  26540110.67240
  -2829437.00800  24821795.12100                  -2138747.53940  24821799.91440
  30796306.94900  27328764.76200                  24071948.51140  27328769.54340
   4571108.61000  24452585.84000                   3598629.68040  24452589.54340
 96  9 10  2 23  0.0120000  0  7  4 14 15 18 22 25 29
     98633.50200  28381074.92600
   1711381.06000  23932118.81600                   1282411.36640  23932123.89140
  39925680.34500  28118339.88700                  31122861.22540  28118346.06240
  -1880632.77900  26537952.16000                  -1428809.83240  26537957.05940
  -2794691.92300  24828406.75400                  -2111673.42340  24828411.86340
  30951236.00800  27358246.84800                  24192672.44340  27358251.81640
   4619479.66000  24461790.28500                   3636321.42040  24461794.12940
 96  9 10  2 23 30.0120000  0  7  4 14 15 18 22 25 29
    132864.28100  28387587.76200
   1790393.00100  23947154.30900                   1343979.10840  23947159.21940
  40092899.17400  28150161.41000                  31253161.49740  28150166.95340
  -1891874.37700  26535813.17600                  -1437569.49140  26535818.28540
  -2759331.38800  24835135.59000                  -2084119.73740  24835140.74640
  31106232.47100  27387741.38700                  24313448.87340  27387746.77740
   4668080.58200  24471038.79300                   3674192.27040  24471042.64840
 96  9 10  2 24  0.0120000  0  7  4 14 15 18 22 25 29
    167616.70800  28394202.73000
   1869968.33800  23962297.04300                   1405985.86540  23962302.04740
  40260068.77000  28181972.90200                  31383423.42540  28181979.78540
  -1903065.76600  26533683.55900                  -1446290.02640  26533688.49240
  -2723374.10800  24841978.17600                  -2056101.05540  24841983.16840
  31261293.63800  27417248.84800                  24434275.74340  27417253.48840
   4716897.76300  24480328.44100                   3712231.63840  24480332.23840
 96  9 10  2 24 30.0120000  0  7  4 14 15 18 22 25 29
    202910.96000  28400918.73000
   1950112.61400  23977547.91000                   1468435.94640  23977552.93740
  40427199.55100  28213775.57400                  31513655.22340  28213782.79740
  -1914196.79600  26531565.14400                  -1454963.53940  26531570.31240
  -2686809.68500  24848936.20700                  -2027609.27240  24848941.18740
  31416432.11700  27446770.31600                  24555162.86740  27446775.01640
   4765934.23800  24489659.59000                   3750441.88340  24489663.44540
 96  9 10  2 25  0.0120000  0  7  4 14 15 18 22 25 29
    238733.25000  28407736.04300
   2030828.83900  23992907.77700                   1531331.70540  23992912.78140
  40594280.27000  28245572.73800                  31643847.73240  28245579.24240
  -1925265.75000  26529458.62100                  -1463588.66140  26529463.95340
  -2649646.75000  24856007.87900                  -1998651.11840  24856012.97640
  31571635.42000  27476304.93400                  24676100.50140  27476309.46940
   4815171.77400  24499029.33200                   3788808.80240  24499033.14140
 96  9 10  2 25 30.0120000  0  7  4 14 15 18 22 25 29
    275069.68000  28414651.83200
   2112126.45900  24008378.05900                   1594680.50140  24008383.07440
  40761301.58200  28277354.17600                  31773994.23540  28277363.18040
  -1936269.67500  26527364.91800                  -1472163.11740  26527370.08640
  -2611894.76300  24863191.86300                  -1969233.97040  24863196.92640
  31726885.32500  27505848.05900                  24797074.44140  27505853.02740
   4864588.09100  24508432.94100                   3827315.02340  24508436.76240
 96  9 10  2 26  0.0120000  0  7  4 14 15 18 22 25 29
    311915.16100  28421660.57400
   2194020.23300  24023962.01200                   1658493.82840  24023967.05140
  40928265.00800  28309126.45700                  31904095.51540  28309134.91040
  -1947196.85300  26525285.16800                  -1480677.76040  26525290.07840
  -2573541.60100  24870490.17600                  -1939348.36040  24870495.25040
  31882176.34700  27535399.21500                  24918080.41040  27535403.65640
   4914187.13600  24517871.51200                   3865963.63440  24517875.16840
 96  9 10  2 26 30.0120000  0  8  4 14 15 18 19 22 25 29
    349249.85400  28428765.23000
   2276492.43600  24039655.88700                   1722757.87740  24039660.85540
  41095168.92700  28340886.40200                  32034150.42740  28340895.39440
  -1958037.59100  26523221.90200                  -1489125.06540  26523227.05940
                  28506054.94900
  -2534572.02500  24877905.75400                  -1908982.43740  24877910.62940
  32037517.16500  27564959.67600                  25039125.21540  27564965.62940
   4963979.04700  24527346.35500                   3904762.52740  24527350.11740
 96  9 10  2 27  0.0120000  0  8  4 14 15 18 19 22 25 29
    387074.98800  28435965.37900
   2359524.45900  24055456.39400                   1787458.15140  24055461.45740
  41262004.35700  28372635.09800                  32164152.03840  28372642.39140
  -1968789.15600  26521176.13700                  -1497502.86840  26521181.38740
    -26190.19800  28500899.28500
  -2494998.38800  24885436.41800                  -1878145.81040  24885441.42240
  32192906.21900  27594528.68400                  25160207.57740  27594534.01640
   5013963.21900  24536858.03500                   3943711.23740  24536861.89140
 96  9 10  2 27 30.0120000  0  8  4 14 15 18 19 22 25 29
    425400.03200  28443256.74600
   2443104.27200  24071360.98000                   1852585.27740  24071365.97340
  41428765.87200  28404369.42600                  32294095.93540  28404377.87940
  -1979446.76700  26519148.25400                  -1505807.45740  26519153.00040
    -53130.22400  28495772.91000                      -698.27850  28495776.26240
  -2454832.30600  24893079.69100                  -1846847.54640  24893084.44940
  32348351.02100  27624109.08200                  25281333.38240  27624114.33240
   5064147.74700  24546407.91800                   3982816.06740  24546411.75040
 96  9 10  2 28  0.0120000  0  8  4 14 15 18 19 22 25 29
    464240.51000  28450648.59000
   2527229.45300  24087369.60500                   1918137.35940  24087374.75040
  41595460.53800  28436090.17600                  32423987.76240  28436102.34440
  -1990001.68900  26517139.55100                  -1514032.03540  26517144.62540
    -79912.96900  28490675.07400                    -21567.90040  28490676.72640
  -2414073.46100  24900835.82400                  -1815087.38840  24900840.65240
  32503874.40300  27653703.76900                  25402520.44440  27653709.21940
   5114567.94200  24556002.45700                   4022104.54040  24556006.33640
 96  9 10  2 28 30.0120000  0  8  4 14 15 18 19 22 25 29
    503609.31200  28458139.61300
   2611893.08300  24103480.59800                   1984109.01840  24103485.62540
  41762086.27300  28467797.84000                  32553825.98740  28467805.49640
  -2000442.14100  26515152.76200                  -1522167.41740  26515158.04740
   -106539.69200  28485606.93400                    -42315.89140  28485611.19940
  -2372730.57600  24908703.19900                  -1782872.13340  24908708.10940
  32659482.54200  27683315.21500                  25523773.54440  27683320.07840
   5165239.86400  24565645.06600                   4061589.15740  24565648.84040
 96  9 10  2 29  0.0120000  0  8  4 14 15 18 19 22 25 29
    543510.49200  28465731.26200
   2697108.39600  24119696.51900                   2050510.55740  24119701.52340
  41928635.98600  28499491.26200                  32683604.90640  28499499.68040
  -2010771.63700  26513187.23800                  -1530216.32940  26513192.65240
   -133020.23700  28480570.09800                    -62949.97340  28480575.95740
  -2330818.63200  24916678.75400                  -1750213.45640  24916683.32440
  32815153.82300  27712938.47300                  25645075.83440  27712944.21540
   5216164.46700  24575335.69100                   4101270.67340  24575339.47640
 96  9 10  2 29 30.0120000  0  8  4 14 15 18 19 22 25 29
    583933.08600  28473425.08200
   2782885.85300  24136019.35500                   2117350.13540  24136024.44140
  42095111.69800  28531170.94100                  32813326.04240  28531180.88340
  -2020990.59300  26511242.54300                  -1538179.12040  26511247.75840
   -159355.83300  28475558.13700                    -83471.06640  28475564.38340
  -2288314.70400  24924766.91800                  -1717093.49340  24924771.65240
  32970882.88800  27742572.56600                  25766423.14240  27742576.83240
   5267343.91000  24585074.90200                   4141150.76740  24585078.68740
 96  9 10  2 30  0.0130000  0  8  4 14 15 18 19 22 25 29
    624870.22300  28481215.54000
   2869224.76900  24152448.98500                   2184627.20740  24152453.96640
  42261511.46300  28562835.10200                  32942988.15740  28562845.38440
  -2031107.65100  26509317.44600                  -1546062.50940  26509323.00140
   -185559.41700  28470571.71200                   -103889.34240  28470578.07540
  -2245197.18400  24932971.93800                  -1683495.40540  24932976.80240
  33126653.04600  27772214.72000                  25887802.46340  27772218.93840
   5318762.76600  24594859.60200                   4181217.41340  24594863.41140
 96  9 10  2 30 30.0130000  0  8  4 14 15 18 19 22 25 29
    666316.89000  28489102.68800
   2956122.40500  24168985.05600                   2252339.64940  24168990.17740
  42427817.18400  28594482.31300                  33072576.98440  28594489.98140
  -2041131.42300  26507410.34500                  -1553873.19240  26507415.37240
   -211629.38300  28465611.43100                   -124203.52440  28465619.83740
  -2201463.90000  24941293.97000                  -1649417.49840  24941298.90340
  33282434.08600  27801859.44600                  26009190.29640  27801863.54840
   5370391.88800  24604684.13400                   4221447.90740  24604687.98940
 96  9 10  2 31  0.0130000  0  8  4 14 15 18 19 22 25 29
    708266.06000  28497085.47700
   3043592.43100  24185629.96200                   2320498.10140  24185634.98940
  42594032.78100  28626111.72700                  33202095.47740  28626117.98540
  -2051071.56900  26505518.42300                  -1561618.72740  26505523.73140
   -237568.27000  28460674.18800                   -144415.57940  28460680.10640
  -2157097.19600  24949736.68800                  -1614846.02340  24949741.62240
  33438229.49500  27831505.96200                  26130589.29440  27831510.95440
   5422222.39100  24614547.38400                   4261835.31940  24614551.15740
 96  9 10  2 31 30.0130000  0  8  4 14 15 18 19 22 25 29
    750729.53300  28505166.47000                      3325.89950  28505170.31340
   3131640.20600  24202385.22700                   2389106.75340  24202390.41940
  42760160.73500  28657725.92300                  33331545.80040  28657730.20040
  -2060926.84300  26503643.15700                  -1569298.13040  26503648.14940
   -263373.82900  28455765.17300                   -164523.80040  28455770.11840
  -2112081.40500  24958302.82100                  -1579768.76240  24958308.02440
  33594061.41600  27861159.45400                  26252016.77340  27861164.29440
   5474252.88100  24624448.34500                   4302378.56340  24624452.03640
 96  9 10  2 32  0.0130000  0  7  4 14 18 19 22 25 29
    793723.09200  28513347.22700                     36827.46240  28513353.11040
   3220273.49700  24219251.42300                   2458171.65440  24219256.33340
  -2070701.21100  26501783.22000                  -1576914.49040  26501787.89540
   -289045.85400  28450878.32900                   -184527.83740  28450886.63040
  -2066437.95300  24966988.66500                  -1544202.42240  24966993.61040
  33749935.36000  27890821.71200                  26373476.98740  27890827.40740
   5526477.50000  24634386.45400                   4343073.07840  24634390.35640
 96  9 10  2 32 30.0130000  0  7  4 14 18 19 22 25 29
    837254.80300  28521629.85200
   3309503.27100  24236231.29800                   2527701.34140  24236236.31340
  -2080399.03400  26499937.56300                  -1584471.19640  26499942.63840
   -314575.02400  28446021.11800                   -204420.60840  28446029.44240
  -2020177.57600  24975791.73500                  -1508155.36040  24975796.45840
  33905879.31500  27920497.01700                  26494991.76940  27920502.23140
   5578901.00200  24644362.13400                   4383922.56640  24644365.98940
 96  9 10  2 33  0.0130000  0  7  4 14 18 19 22 25 29
    881326.11500  28530017.59500
   3399316.85400  24253322.41500                   2597685.94940  24253327.41940
  -2090018.62200  26498107.18100                  -1591966.94740  26498112.55940
   -339955.11900  28441191.67300                   -224197.12940  28441196.78240
  -1973303.89000  24984711.40700                  -1471630.39140  24984716.43440
  34061899.05900  27950186.35200                  26616565.56540  27950191.62640
   5631526.09800  24654376.43800                   4424929.14340  24654380.22440
 96  9 10  2 33 30.0130000  0  7  4 14 18 19 22 25 29
    925941.73800  28538507.60200
   3489693.78300  24270520.51700                   2668109.52140  24270525.56740
  -2099559.30000  26496291.31300                  -1599401.20540  26496296.75140
   -365190.26000  28436389.49300                   -243860.79440  28436393.44240
  -1925834.23900  24993744.61000                  -1434641.03240  24993749.40340
  34217984.36200  27979888.24300                  26738190.46640  27979891.89940
   5684340.77700  24664426.80600                   4466083.44240  24664430.64940
 96  9 10  2 34  0.0130000  0  7  4 14 18 19 22 25 29
    971092.17100  28547097.82100
   3580640.18100  24287827.04000                   2738976.83940  24287832.02040
  -2109009.72500  26494492.68100                  -1606765.14440  26494497.46240
   -390264.61200  28431618.95400                   -263399.09540  28431628.97740
  -1877768.43200  25002891.08700                  -1397187.14240  25002895.99740
  34374121.28400  28009600.50100                  26859855.59440  28009605.16540
   5737356.44800  24674515.14900                   4507394.36140  24674518.93440
 96  9 10  2 34 30.0130000  0  7  4 14 18 19 22 25 29
   1016751.53000  28555787.87600
   3672137.20000  24305238.16500                   2810273.21340  24305243.12240
  -2118365.55900  26492712.50900                  -1614055.38440  26492717.68840
   -415174.84100  28426876.72700                   -282809.63940  28426884.04440
  -1829098.13300  25012152.73500                  -1359262.21740  25012157.39940
  34530299.36300  28039319.92300                  26981552.80840  28039325.02040
   5790592.19700  24684645.54800                   4548876.77040  24684649.39240
 96  9 10  2 35  0.0130000  0  7  4 14 18 19 22 25 29
   1062906.88000  28564569.85200
   3764175.65900  24322752.65700                   2881991.48540  24322757.72040
  -2127612.32700  26490952.93800                  -1621260.62340  26490957.87240
   -439920.11500  28422166.80600                   -302091.59040  28422174.19240
  -1779819.19000  25021530.30600                  -1320863.02540  25021535.09940
  34686487.93200  28069041.50900                  27103258.17840  28069045.89240
   5844071.75500  24694822.45400                   4590549.15840  24694826.25140
 96  9 10  2 35 30.0130000  0  7  4 14 18 19 22 25 29
   1109534.11100  28573443.51700
   3856767.71500  24340372.33700                   2954141.12940  24340377.30640
  -2136750.91500  26489213.73500                  -1628381.57340  26489219.45440
   -464506.98100  28417488.22700                   -321250.09940  28417493.50140
  -1729924.12600  25031025.13400                  -1281983.74240  25031029.79840
  34842675.60500  28098763.17300                  27224962.85640  28098767.73140
   5897805.28600  24705047.61000                   4632419.44440  24705051.46640
 96  9 10  2 36  0.0130000  0  7  4 14 18 19 22 25 29
   1156623.12300  28582404.39900
   3949921.49100  24358098.97700                   3026728.48040  24358103.94640
  -2145780.08300  26487495.52400                  -1635417.26240  26487500.18840
   -488926.05100  28412842.75100                   -340277.88140  28412851.00540
  -1679392.44200  25040640.75900                  -1242608.39140  25040645.49340
  34998872.72900  28128486.20400                  27346674.88540  28128490.22440
   5951810.51900  24715324.22700                   4674501.45440  24715328.08340
 96  9 10  2 36 30.0130000  0  7  4 14 18 19 22 25 29
   1204183.85500  28591455.07100
   4043623.11900  24375929.68800                   3099742.73240  24375934.66940
  -2154708.39000  26485796.59500                  -1642374.35140  26485802.09140
   -513187.00300  28408225.52400                   -359182.37140  28408229.42740
  -1628233.02200  25050376.26700                  -1202743.88840  25050381.01340
  35155087.29900  28158212.82900                  27468400.52140  28158216.55640
   6006074.34200  24725650.49300                   4716784.96240  24725654.37240
 96  9 10  2 37  0.0130000  0  7  4 14 18 19 22 25 29
   1252243.09200  28600601.32900
   4137892.50200  24393868.57100                   3173199.38540  24393873.63440
  -2163527.74000  26484118.24300                  -1649246.54840  26484123.25940
   -537283.73600  28403639.22700                   -377958.96040  28403645.29840
  -1576446.67600  25060230.79000                  -1162390.87740  25060235.54840
  35311320.51800  28187943.57900                  27590140.70340  28187949.67340
   6060579.87000  24736022.35200                   4759256.80640  24736026.11440
 96  9 10  2 37 30.0130000  0  7  4 14 18 19 22 25 29
   1300829.40500  28609845.37600
   4232747.29500  24411918.86800                   3247112.20340  24411924.00140
  -2172235.13400  26482461.53200                  -1656031.50740  26482466.51340
   -561207.61200  28399085.75900                   -396600.84040  28399091.23140
  -1524020.63600  25070207.09500                  -1121539.40140  25070212.39240
  35467607.69700  28217683.99300                  27711922.91740  28217687.48540
   6115318.56900  24746438.93800                   4801910.34640  24746442.66540
 96  9 10  2 38  0.0130000  0  7  4 14 18 19 22 25 29
   1349969.04100  28619195.83700
   4328172.36000  24430077.64200                   3321469.39240  24430082.75140
  -2180834.81200  26480825.09500                  -1662732.52040  26480830.20440
   -584955.02900  28394568.19600                   -415105.20340  28394574.05640
  -1470971.03600  25080301.99300                  -1080202.03440  25080306.71640
  35623949.65100  28247434.49300                  27833747.81240  28247438.26740
   6170278.93100  24756897.46200                   4844736.61140  24756901.34140
 96  9 10  2 38 30.0130000  0  7  4 14 18 19 22 25 29
   1399679.85100  28628655.68100
   4424177.63300  24448346.98500                   3396278.68540  24448352.04840
  -2189333.55300  26479207.39200                  -1669354.89140  26479212.65340
   -608518.42300  28390084.95400                   -433466.27340  28390090.60240
  -1417309.96800  25090513.39900                  -1038388.20040  25090518.25140
  35780333.51400  28277194.04800                  27955605.35740  28277199.83740
   6225465.70300  24767399.27400                   4887739.29640  24767403.04840
 96  9 10  2 39  0.0130000  0  7  4 14 18 19 22 25 29
   1449960.01200  28638224.75900
   4520770.54800  24466727.93100                   3471545.88440  24466732.94640
  -2197722.74600  26477611.35200                  -1675891.89540  26477615.97040
   -631897.98300  28385632.70400                   -451684.08940  28385636.72440
  -1363016.15900  25100845.26700                   -996081.31840  25100850.17740
  35936749.46800  28306958.25100                  28077487.90740  28306963.98140
   6280900.69800  24777948.16500                   4930935.40640  24777951.90340
 96  9 10  2 39 30.0130000  0  7  4 14 18 19 22 25 29
   1500783.79000  28647895.07100
   4617923.76900  24485215.53200                   3547249.68940  24485220.53640
  -2206026.59100  26476031.24300                  -1682362.39840  26476036.08340
   -655116.13900  28381216.42300                   -469776.08340  28381223.99740
  -1308099.64100  25111295.48500                   -953289.21140  25111300.50140
  36093191.46300  28336728.13400                  28199390.76240  28336734.28640
   6336575.72300  24788542.82900                   4974318.55140  24788546.54440
 96  9 10  2 40  0.0130000  0  7  4 14 18 19 22 25 29
   1552132.02900  28657667.76700                     12045.47550  28657677.84940
   4715625.64600  24503807.67300                   3623381.01740  24503812.73540
  -2214250.71400  26474465.88400                  -1688770.77040  26474470.26740
   -678185.57000  28376827.00100                   -487752.16540  28376831.70040
  -1252578.13300  25121860.86000                   -910025.68540  25121865.81740
  36249627.95000  28366497.57900                  28321289.34040  28366504.11840
   6392481.78000  24799181.29000                   5017881.72440  24799184.99340
 96  9 10  2 40 30.0130000  0  7  4 14 18 19 22 25 29
   1603997.77500  28667535.97000                     52460.36940  28667538.94640
   4813894.55100  24522507.47000                   3699954.18340  24522512.48540
  -2222363.02100  26472921.87600                  -1695092.02640  26472927.04440
   -701106.39400  28372464.64200                   -505612.49240  28372472.09940
  -1196432.29800  25132545.06300                   -866275.66240  25132550.27840
  36406069.66500  28396267.47000                  28443191.98240  28396273.45840
   6448635.37100  24809866.93800                   5061637.77540  24809870.66540
 96  9 10  2 41  0.0130000  0  7  4 14 18 19 22 25 29
   1656358.83300  28677500.43100                     93261.13140  28677504.57940
   4912713.11700  24541312.11800                   3776955.65540  24541317.34540
  -2230364.41900  26471399.86800                  -1701326.86040  26471405.17740
   -723898.98500  28368128.10200                   -523372.80840  28368135.78240
  -1139668.95500  25143346.61000                   -822044.47340  25143351.43840
  36562514.15700  28426036.97000                  28565096.78340  28426043.77840
   6505018.00100  24820596.16500                   5105572.30040  24820599.77440
 96  9 10  2 41 30.0130000  0  7  4 14 18 19 22 25 29
   1709230.62400  28687562.30600                    134459.93640  28687570.39540
   5012098.63600  24560224.38400                   3854398.90840  24560229.43440
  -2238240.97600  26469900.86000                  -1707464.40440  26469905.84140
   -746528.66600  28363821.73500                   -541006.24340  28363826.61040
  -1082278.84300  25154267.84500                   -777324.89440  25154272.73140
  36718991.41500  28455814.30600                  28687027.09440  28455820.09540
   6561624.67300  24831368.19600                   5149681.40440  24831371.98140
 96  9 10  2 42  0.0140000  0  7  4 14 18 19 22 25 29
   1762618.03800  28697721.46700                    176060.63240  28697726.61140
   5112060.52200  24579246.72500                   3932291.28240  24579251.70540
  -2245986.54700  26468426.78700                  -1713499.88340  26468431.92040
   -768984.18500  28359547.84200                   -558504.05940  28359554.66240
  -1024259.54000  25165308.45900                   -732115.03940  25165313.04140
  36875501.09300  28485597.24800                  28808982.69240  28485603.45940
   6618450.57100  24842181.80300                   5193961.33140  24842185.63540
 96  9 10  2 42 30.0140000  0  7  4 14 18 19 22 25 29
   1816528.98800  28707979.81000                    218069.12140  28707985.18940
   5212593.84800  24598377.52900                   4010628.92740  24598382.46340
  -2253595.36500  26466978.69300                  -1719428.80440  26466983.59240
   -791248.62900  28355311.01400                   -575852.88640  28355318.68240
   -965593.39800  25176472.06000                   -686401.14840  25176476.72540
  37032043.86000  28515386.26400                  28930964.06040  28515391.05740
   6675496.48800  24853037.21700                   5238412.70340  24853040.93240
 96  9 10  2 43  0.0140000  0  7  4 14 18 19 22 25 29
   1870967.78000  28718339.79500
   5313695.82700  24617616.38900                   4089409.68540  24617621.49840
  -2261084.66700  26465553.89600                  -1725264.59740  26465558.98240
   -813311.32300  28351112.90400                   -593044.43740  28351119.99840
   -906278.02200  25187759.52100                   -640181.36240  25187764.15040
  37188623.35600  28545182.58400                  29052974.04440  28545187.61140
   6732754.14200  24863932.99000                   5283029.06340  24863936.65840
 96  9 10  2 43 30.0140000  0  7  4 14 18 19 22 25 29
   1925935.51100  28728799.27900
   5415366.28900  24636964.03700                   4168633.40940  24636969.12340
  -2268446.35300  26464152.71700                  -1731000.95140  26464157.73240
   -835170.88500  28346953.52100                   -610077.85840  28346961.38940
   -846317.29800  25199169.50600                   -593458.70840  25199174.35740
  37345235.21300  28574984.80300                  29175009.25340  28574989.50240
   6790228.72300  24874869.95100                   5327814.45840  24874873.72540
 96  9 10  2 44  0.0140000  0  7  4 14 18 19 22 25 29
   1981429.27700  28739358.60700                     10124.83150  28739363.08440
   5517604.75600  24656419.15400                   4248299.73740  24656424.39240
  -2275671.71800  26462777.82600                  -1736631.07940  26462782.60740
   -856845.31800  28342828.20900                   -626966.87040  28342836.74440
   -785719.73000  25210700.79500                   -546239.80940  25210705.52940
  37501858.72500  28604789.03700                  29297053.46640  28604793.03340
   6847940.84800  24885852.24800                   5372784.95340  24885856.01040
 96  9 10  2 44 30.0140000  0  7  4 14 18 19 22 25 29
   2037432.32400  28750016.63900                     53763.60840  28750022.53340
   5620400.59000  24675980.46700                   4328400.37840  24675985.51740
  -2282773.67400  26461426.24800                  -1742165.03740  26461431.33440
   -878352.28100  28338735.88100                   -643725.37140  28338742.90440
   -724486.22600  25222353.21700                   -498525.37940  25222357.99840
  37658480.57400  28634593.35700                  29419096.46040  28634596.82640
   6905901.16500  24896881.75600                   5417948.84440  24896885.56440
 96  9 10  2 45  0.0140000  0  7  4 14 18 19 22 25 29
   2093928.58700  28760768.33400                     97786.58740  28760774.32240
   5723753.23800  24695647.85000                   4408934.90340  24695653.00640
  -2289762.90900  26460096.18500                  -1747611.15540  26460101.37740
   -899696.43600  28334673.91200                   -660357.07340  28334678.99840
   -662635.51100  25234123.06800                   -450330.00440  25234127.72140
  37815105.48000  28664397.82600                  29541141.85640  28664401.40040
   6964114.66900  24907959.45100                   5463310.01840  24907963.18940
 96  9 10  2 45 30.0140000  0  7  4 14 18 19 22 25 29
   2150913.49000  28771610.25600                    142190.45740  28771618.25240
   5827660.82000  24715420.89600                   4489901.84140  24715426.01740
  -2296649.61200  26458785.66200                  -1752977.39640  26458790.35040
   -920887.81300  28330640.23200                   -676869.73240  28330649.74040
   -600161.54700  25246011.50600                   -401648.98140  25246016.47540
  37971727.37100  28694202.15400                  29663184.83540  28694206.52540
   7022595.94600  24919087.99000                   5508879.85140  24919091.78740
 96  9 10  2 46  0.0140000  0  7  4 14 18 19 22 25 29
   2208407.12100  28782551.50600                    186990.62040  28782558.75240
   5932133.00800  24735301.31800                   4571308.73840  24735306.31040
  -2303432.42600  26457495.01400                  -1758262.66840  26457499.37340
   -941913.38100  28326641.42000                   -693253.16040  28326645.54540
   -537038.66100  25258023.38900                   -352462.30440  25258028.07640
  38128365.26400  28724009.89600                  29785240.33940  28724014.86540
   7081356.88500  24930269.79500                   5554667.60040  24930273.61540
 96  9 10  2 46 30.0140000  0  7  4 14 18 19 22 25 29
   2266423.60500  28793592.14600                    232198.39540  28793593.82240
   6037162.88500  24755287.88100                   4653150.19040  24755292.95540
  -2310113.24400  26456223.81800                  -1763468.45140  26456229.09240
   -962765.02000  28322672.10700                   -709501.06540  28322680.26740
   -473261.21400  25270159.76400                   -302765.57940  25270164.45140
  38285033.68600  28753822.17000                  29907319.58540  28753829.29940
   7140391.06400  24941503.55300                   5600668.25940  24941507.33840
 96  9 10  2 47  0.0140000  0  7  4 14 18 19 22 25 29
   2324987.84500  28804736.52900                    277832.78840  28804741.85040
   6142756.11600  24775381.67000                   4735430.62540  24775386.81440
  -2316672.67000  26454975.60000                  -1768579.65940  26454980.39240
   -983426.74700  28318739.45100                   -725600.90440  28318745.76740
   -408828.64200  25282420.86500                   -252558.36640  25282425.76440
  38441743.08700  28783643.08400                  30029430.76940  28783646.90440
   7199705.95700  24952790.99000                   5646887.65940  24952794.88140
 96  9 10  2 47 30.0140000  0  7  4 14 18 19 22 25 29
   2384101.30200  28815985.33400                    323895.26040  28815986.84640
   6248888.22100  24795577.94300                   4818130.96040  24795583.04140
  -2323116.00100  26453749.33400                  -1773600.40640  26453754.29140
  -1003924.43400  28314839.81000                   -741572.98640  28314844.83840
   -343759.21100  25294803.20900                   -201854.90440  25294807.95540
  38598460.82500  28813465.52900                  30151548.44940  28813469.13940
   7259283.18000  24964127.95900                   5693311.47440  24964131.69740
 96  9 10  2 48  0.0140000  0  6 14 18 19 22 25 29
   6355557.13400  24815876.27900                   4901249.58640  24815881.35340
  -2329423.42400  26452549.08400                  -1778515.23240  26452553.86540
  -1024246.40700  28310972.24000                   -757408.18940  28310977.97140
   -278060.02100  25307305.36500                   -150660.71340  25307310.05340
  38755198.73600  28843291.49000                  30273681.85540  28843293.77540
   7319115.83500  24975513.94300                   5739934.32540  24975517.81040
 96  9 10  2 48 30.0140000  0  6 14 18 19 22 25 29
   6462749.21300  24836274.14600                   4984775.87640  24836279.20940
  -2335606.59900  26451372.50600                  -1783333.25240  26451377.22840
  -1044401.89000  28307136.85000                   -773113.61740  28307143.03740
   -211748.42500  25319923.92800                    -98989.33140  25319928.61540
  38911937.06000  28873117.97500                  30395815.57340  28873123.69340
   7379194.51000  24986946.41200                   5786748.87740  24986950.23240
 96  9 10  2 49  0.0140000  0  7  4 14 18 19 22 25 29
     56723.74610  28850365.57600
   6570476.66400  24856774.11500                   5068719.33540  24856779.23640
  -2341653.24500  26450221.49800                  -1788044.88340  26450226.27940
  -1064383.31400  28303334.39600                   -788683.44740  28303341.73640
   -144810.21900  25332661.81800                    -46829.67940  25332666.62340
  39068680.78500  28902945.51400                  30517953.57040  28902949.55740
   7439519.62100  24998425.90400                   5833755.46040  24998429.81840
 96  9 10  2 49 30.0140000  0  7  4 14 18 19 22 25 29
    118001.59100  28862026.82600
   6678740.90900  24877376.15400                   5153081.08040  24877381.13540
  -2347561.49400  26449097.42800                  -1792648.67540  26449102.04540
  -1084190.13000  28299565.17800                   -804117.20840  28299571.34240
    -77232.08800  25345521.62300                      5828.61940  25345526.47540
  39225424.77600  28932772.72500                  30640091.79040  28932775.94740
   7500079.16100  25009949.99000                   5880944.71340  25009953.76440
 96  9 10  2 50  0.0140000  0  7  4 14 18 19 22 25 29
    179773.48400  28873782.04500                     20901.22850  28873785.33840
   6787549.20300  24898081.50600                   5237866.75440  24898086.61540
  -2353341.26800  26447997.26400                  -1797152.37340  26448001.51740
  -1103816.54300  28295830.27900                   -819410.42640  28295837.44340
     -9004.72300  25358504.73200                     58992.80940  25358509.51440
  39382165.97100  28962599.91200                  30762227.79540  28962603.13540
   7560860.67300  25021516.18500                   5928306.92940  25021520.10040
 96  9 10  2 50 30.0140000  0  7  4 14 18 19 22 25 29
    242031.52800  28885628.63100                     69414.17640  28885628.98240
   6896920.32700  24918894.41200                   5323091.00240  24918899.53340
  -2358982.03000  26446924.00600                  -1801547.73740  26446928.98640
  -1123253.25900  28292132.39600                   -834555.80640  28292140.28740
     59882.16900  25371613.48200                    112670.92440  25371618.52140
  39538892.00200  28992423.70900                  30884351.94940  28992430.52940
   7621880.89600  25033128.12300                   5975855.15840  25033131.97840
 96  9 10  2 51  0.0140000  0  7  4 14 18 19 22 25 29
    304802.69100  28897574.36500                    118326.64640  28897578.50240
   7006878.12000  24939818.58400                   5408772.39240  24939823.50640
  -2364467.14700  26445880.22500                  -1805821.82540  26445885.42840
  -1142470.08700  28288473.35700                   -849529.88140  28288481.06040
    129438.27400  25384849.50600                    166870.49340  25384854.20540
  39695614.35100  29022246.49000                  31006473.40440  29022253.52540
   7683157.83400  25044788.70100                   6023603.42540  25044792.51040
 96  9 10  2 51 30.0140000  0  6  4 14 18 19 22 29
    368086.22000  28909616.96700                    167638.57340  28909619.97840
   7117409.33500  24960852.02100                   5494900.60840  24960857.07240
  -2369818.72600  26444861.81800                  -1809991.85440  26444866.72840
  -1161485.88800  28284855.67800                   -864347.26840  28284861.81840
    199637.21300  25398207.92800                    221570.97840  25398212.73240
   7744694.13800  25056498.56800                   6071553.79340  25056502.30740
 96  9 10  2 52  0.0140000  0  6  4 14 18 19 22 29
    431884.36000  28921756.66200                    217351.36740  28921762.68540
   7228510.24600  24981993.83400                   5581472.73740  24981998.79140
  -2375045.72000  26443867.24800                  -1814064.81040  26443871.78340
  -1180297.10400  28281275.03700                   -879005.28440  28281280.07640
    270459.30400  25411684.91200                    276757.03240  25411689.71740
   7806504.84300  25068260.90400                   6119717.97940  25068264.74840
 96  9 10  2 52 30.0140000  0  6  4 14 18 19 22 29
    496193.71900  28933993.92000                    267462.54740  28934001.01440
   7340167.70800  25003241.42800                   5668478.54840  25003246.39640
  -2380148.50200  26442896.30300                  -1818040.98640  26442901.03740
  -1198914.03200  28277734.31800                   -893511.87640  28277739.87340
    341882.15200  25425276.21700                    332411.21140  25425280.99840
   7868592.84700  25080075.63900                   6168098.24340  25080079.54140
 96  9 10  2 53  0.0140000  0  6  4 14 18 19 22 29
    561014.59200  28946329.45100                    317972.30040  28946332.85040
   7452373.99100  25024593.60700                   5755912.00740  25024598.64640
  -2385120.60000  26441949.97500                  -1821915.30340  26441954.93240
  -1217349.49800  28274224.45100                   -907877.08640  28274230.88540
    413906.27300  25438982.02900                    388533.91840  25438986.93940
   7930957.30000  25091943.35700                   6216693.92440  25091947.17840
 96  9 10  2 53 30.0140000  0  6  4 14 18 19 22 29
    626343.96800  28958761.38100                    368878.36740  28958767.53340
   7565124.04000  25046049.22500                   5843769.18140  25046054.28740
  -2389951.05000  26441030.77100                  -1825679.26240  26441035.78740
  -1235616.58100  28270749.19300                   -922111.06640  28270755.08840
    486549.03500  25452805.35700                    445138.67640  25452810.18540
   7993590.01100  25103861.87300                   6265498.64040  25103865.68240
 96  9 10  2 54  0.0150000  0  6  4 14 18 19 22 29
    692190.79700  28971291.28400                    420187.56540  28971293.42940
   7678419.49900  25067608.52600                   5932051.34640  25067613.56540
  -2394633.86100  26440139.88600                  -1829328.17740  26440144.81940
  -1253703.64100  28267308.59700                   -936204.78040  28267314.33940
    559823.58800  25466749.14300                    502235.74140  25466753.89040
   8056479.33400  25115829.44800                   6314503.30840  25115833.23340
 96  9 10  2 54 30.0150000  0  6  4 14 18 19 22 29
    758554.67600  28983920.51800                    471899.58040  28983921.98340
   7792247.85700  25089269.41700                   6020748.75940  25089274.58540
  -2399151.49200  26439279.80800                  -1832848.38140  26439284.71840
  -1271612.14600  28263899.27600                   -950159.38540  28263906.69840
    633742.58900  25480815.41700                    559834.97740  25480820.18640
   8119616.60200  25127844.07300                   6363701.17940  25127847.82340
 96  9 10  2 55  0.0150000  0  6  4 14 18 19 22 29
    825445.08900  28996648.43300                    524021.97640  28996653.69440
   7906607.37700  25111031.28400                   6109860.07240  25111036.40540
  -2403510.05100  26438450.66700                  -1836244.63140  26438455.12040
  -1289337.16700  28260525.74500                   -963970.98440  28260531.62840
    708325.60800  25495008.12000                    617951.62740  25495012.71440
   8183008.52000  25139907.29200                   6413097.48240  25139911.04240
 96  9 10  2 55 30.0150000  0  6  4 14 18 19 22 29
    892847.85300  29009474.97900                    576543.63540  29009485.23740
   8021492.19900  25132893.08900                   6199380.70740  25132898.18640
  -2407736.23400  26437646.18300                  -1839537.73140  26437650.71840
  -1306874.38000  28257189.90900                   -977636.27240  28257194.71440
    783563.67300  25509325.33100                    676578.70940  25509330.11240
   8246645.78700  25152016.76800                   6462684.97240  25152020.53040
 96  9 10  2 56  0.0150000  0  6  4 14 18 19 22 29
    960755.70600  29022397.62000                    629458.86040  29022404.80840
   8136916.05400  25154857.55800                   6289321.36740  25154862.64340
  -2411814.34800  26436869.98700                  -1842715.45740  26436874.34740
  -1324201.22600  28253891.78400                   -991137.61340  28253897.40940
    859451.28900  25523766.51100                    735711.93140  25523771.43340
   8310557.59000  25164178.73700                   6512486.37540  25164182.45240
 96  9 10  2 56 30.0150000  0  6  4 14 18 19 22 29
   1029126.77900  29035409.14300                    682734.95840  29035412.33140
   8252863.92600  25176921.79200                   6379670.34140  25176926.92540
  -2415759.60800  26436119.15100                  -1845789.66440  26436123.46440
  -1341347.38900  28250627.44000                  -1004498.13140  28250632.32740
    935964.42600  25538325.99500                    795332.57140  25538330.98740
   8374727.87800  25176390.22900                   6562489.19840  25176393.99140
 96  9 10  2 57  0.0150000  0  6  4 14 18 19 22 29
   1097964.67600  29048507.47900                    736374.85540  29048510.71440
   8369363.72000  25199091.05000                   6470449.39640  25199096.22940
  -2419580.33800  26435392.23700                  -1848766.82840  26435397.24140
  -1358306.84800  28247400.95600                  -1017713.25240  28247405.59740
   1013107.10700  25553005.96400                    855443.76840  25553010.89740
   8439162.55300  25188651.76800                   6612698.04140  25188655.54240
 96  9 10  2 57 30.0150000  0  6  4 14 18 19 22 29
   1167287.56800  29061699.34700                    790392.78940  29061702.66340
   8486429.68400  25221367.91700                   6561669.61740  25221373.12040
  -2423251.98700  26434693.66700                  -1851627.82640  26434698.26140
  -1375067.31800  28244212.47200                  -1030773.24840  28244218.34340
   1090883.43200  25567806.33100                    916048.71240  25567811.37040
   8503869.48600  25200964.93300                   6663119.03040  25200968.62440
 96  9 10  2 58  0.0150000  0  6  4 14 18 19 22 29
   1237101.89500  29074984.74500                    844793.52740  29074991.16740
   8604041.43400  25243748.74500                   6653315.12840  25243753.97240
  -2426773.73700  26434023.54200                  -1854372.03740  26434028.07740
  -1391653.74500  28241055.54200                  -1043697.62940  28241062.06940
   1169277.21300  25582724.08900                    977134.78740  25582728.77640
   8568829.35700  25213326.42500                   6713737.11940  25213330.18640
 96  9 10  2 58 30.0150000  0  6  4 14 18 19 22 29
   1307462.93800  29088373.21400                    899620.33540  29088379.47240
   8722223.95600  25266238.17500                   6745405.39640  25266243.33140
  -2430131.61900  26433384.43300                  -1856988.53540  26433388.76840
  -1408053.59400  28237935.11200                  -1056476.65440  28237940.99540
   1248320.26300  25597765.55800                   1038726.79340  25597770.32740
   8634060.12700  25225739.49500                   6764566.29440  25225743.14040
 96  9 10  2 59  0.0150000  0  6  4 14 18 19 22 29
   1378386.90500  29101870.77600                    954885.78140  29101877.87040
   8840974.07800  25288835.49500                   6837937.95140  25288840.72240
  -2433330.96400  26432775.64300                  -1859481.51340  26432780.37840
  -1424262.15700  28234850.07300                  -1069106.66340  28234855.01840
   1328008.26800  25612929.51100                   1100821.35040  25612934.43340
   8699577.34700  25238207.01100                   6815618.67640  25238210.64340
 96  9 10  2 59 30.0150000  0  6  4 14 18 19 22 29
   1449872.26500  29115473.56500                   1010588.62040  29115477.42140
   8960278.29600  25311538.24500                   6930902.27340  25311543.37840
  -2436360.29300  26432198.97900                  -1861841.99840  26432203.52640
  -1440268.46100  28231804.22900                  -1081578.96740  28231808.75340
   1408331.88600  25628214.87800                   1163411.19940  25628219.78840
   8765389.75900  25250730.39300                   6866901.08240  25250734.10840
 96  9 10  3  0  0.0150000  0  6  4 14 18 19 22 29
   1521893.61600  29129178.42500                   1066709.13840  29129182.05840
   9080137.75400  25334347.03400                   7024299.24340  25334352.19040
  -2439229.96200  26431652.81500                  -1864078.08040  26431657.32740
  -1456071.77200  28228795.97200                  -1093893.17640  28228800.50740
   1489288.21200  25643620.29200                   1226494.06340  25643625.15540
   8831495.86900  25263310.14300                   6918412.33940  25263313.78840
 96  9 10  3  0 30.0150000  0  6  4 14 18 19 22 29
   1594425.02800  29142979.26100                   1123227.07740  29142984.06540
   9200538.54400  25357258.46400                   7118118.03040  25357263.59740
  -2441953.04100  26431134.78400                  -1866199.93540  26431139.50740
  -1471664.71100  28225828.97200                  -1106043.42540  28225835.17140
   1570869.49100  25659144.70600                   1290063.90440  25659149.26540
   8897905.37900  25275947.53400                   6970160.01440  25275951.23740
 96  9 10  3  1  0.0150000  0  6  4 14 18 19 22 29
   1667428.49400  29156872.32300                   1180112.87740  29156876.43640
   9321456.93400  25380268.27600                   7212340.14340  25380273.44440
  -2444535.46000  26430643.19800                  -1868212.19140  26430647.82740
  -1487051.52600  28222900.61200                  -1118033.09840  28222906.24940
   1653060.25300  25674785.07300                   1354108.66140  25674789.78440
   8964597.66000  25288638.68300                   7022128.03140  25288642.40940
 96  9 10  3  1 30.0150000  0  6  4 14 18 19 22 29
   1740911.77200  29170856.43300                   1237372.63440  29170863.63240
   9442886.38100  25403375.47200                   7306960.48540  25403380.61640
  -2446954.01900  26430183.13600                  -1870096.75940  26430187.81140
  -1502227.44700  28220012.50300                  -1129858.42040  28220018.67940
   1735881.25300  25690545.31500                   1418644.51940  25690550.21440
   9031562.32700  25301381.45600                   7074308.30140  25301385.15940
 96  9 10  3  2  0.0150000  0  6  4 14 18 19 22 29
   1814875.67900  29184930.46400                   1295006.74440  29184934.48340
   9564812.68600  25426577.49500                   7401967.98740  25426582.71040
  -2449215.02100  26429753.05000                  -1871858.55240  26429757.50340
  -1517206.28100  28217163.33900                  -1141530.15040  28217169.47940
   1819338.34900  25706426.65100                   1483676.03740  25706431.42140
   9098794.12600  25314175.26100                   7126696.72240  25314179.03440
 96  9 10  3  2 30.0150000  0  6  4 14 18 19 22 29
   1889326.78200  29199098.30800                   1353020.65340  29199107.11240
   9687228.21900  25449872.26800                   7497356.70740  25449877.47240
  -2451313.02200  26429353.66700                  -1873493.32740  26429358.19040
  -1531997.56400  28214347.72900                  -1153055.75940  28214353.39040
   1903435.94600  25722429.80800                   1549206.63840  25722434.54240
   9166294.73800  25327020.25300                   7179294.60740  25327024.14340
 96  9 10  3  3  0.0150000  0  6  4 14 18 19 22 29
   1964275.97400  29213361.40100                   1411422.63140  29213367.19040
   9810145.48000  25473262.60400                   7593136.38040  25473267.92540
  -2453222.92400  26428990.04200                  -1874981.55140  26428994.96440
  -1546601.25100  28211569.53400                  -1164435.19040  28211575.20640
   1988184.02400  25738556.89300                   1615244.10940  25738561.71040
   9234066.24800  25339916.68300                   7232103.58240  25339920.33940
 96  9 10  3  3 30.0150000  0  6  4 14 18 19 22 29
   2039743.53400  29227722.37000                   1470228.47240  29227726.60040
   9933577.31800  25496751.11200                   7689317.02240  25496756.39740
  -2454941.34800  26428663.10400                  -1876320.56040  26428667.71040
  -1561007.99300  28208827.58100                  -1175661.16640  28208833.61640
   2073589.39000  25754809.02600                   1681793.75040  25754813.66740
   9302129.12200  25352868.79200                   7285139.59140  25352872.44840
 96  9 10  3  4  0.0150000  0  6  4 14 18 19 22 29
   2115714.92700  29242179.28400                   1529427.02540  29242184.06540
  10057530.63800  25520338.51100                   7785904.01940  25520343.79640
  -2456483.71700  26428369.50300                  -1877522.38740  26428373.97940
  -1575213.82600  28206125.28400                  -1186730.54340  28206132.64740
   2159633.00400  25771182.58100                   1748840.72640  25771187.21040
   9370487.47400  25365876.93300                   7338405.84240  25365880.75340
 96  9 10  3  4 30.0150000  0  6  4 14 18 19 22 29
   2192197.81400  29256733.49500                   1589023.96740  29256737.24540
  10182020.90900  25544028.24500                   7882909.41140  25544033.39040
  -2457841.70500  26428111.11200                  -1878580.53640  26428115.71840
  -1589211.71900  28203461.12800                  -1197637.98340  28203467.25740
   2246300.35900  25787674.66700                   1816373.73940  25787679.54240
   9439139.13500  25378940.69800                   7391900.64640  25378944.46040
 96  9 10  3  5  0.0150000  0  6  4 14 18 19 22 29
   2269192.46600  29271384.54200                   1649019.83440  29271389.45240
  10307040.28400  25567818.69000                   7980327.10140  25567823.75340
  -2459038.09500  26427883.51800                  -1879512.76640  26427887.91340
  -1603002.56200  28200836.13600                  -1208383.97940  28200842.11240
   2333565.27600  25804280.81500                   1884372.38740  25804285.51540
   9508058.15900  25392055.60400                   7445603.78940  25392059.35440
 96  9 10  3  5 30.0150000  0  6  4 14 18 19 22 29
   2346695.05600  29286132.25300                   1709411.41240  29286141.21040
  10432580.68800  25591708.31500                   8078150.77740  25591713.65940
  -2460099.77600  26427681.44800                  -1880340.03040  26427686.08940
  -1616587.95300  28198250.52600                  -1218969.96540  28198255.67140
   2421415.81700  25820998.04200                   1952827.35140  25821002.67140
   9577234.25700  25405219.39300                   7499507.24340  25405223.10840
 96  9 10  3  6  0.0160000  0  6  4 14 18 19 22 29
   2424689.30000  29300974.11700                   1770186.14240  29300980.53940
  10558630.78500  25615694.79700                   8176371.62340  25615700.08240
  -2461036.70300  26427503.03100                  -1881070.08540  26427507.67240
  -1629980.81600  28195702.03900                  -1229405.93140  28195707.45340
   2509831.33700  25837822.99200                   2021722.56940  25837827.92640
   9646648.94300  25418428.39800                   7553596.61440  25418432.14840
 96  9 10  3  6 30.0160000  0  6  4 14 18 19 22 29
   2503183.65800  29315911.98400                   1831350.57840  29315918.73440
  10685195.99700  25639779.54700                   8274993.85540  25639784.77340
  -2461819.55800  26427354.00000                  -1881680.08540  26427358.74640
  -1643166.36800  28193193.56200                  -1239680.33640  28193199.45740
   2598826.16100  25854758.01600                   2091069.18840  25854762.92640
   9716314.55600  25431685.49200                   7607881.51540  25431689.35940
 96  9 10  3  7  0.0160000  0  6  4 14 18 19 22 29
   2582173.70300  29330942.65600                   1892901.24240  29330946.58240
  10812277.13700  25663962.21900                   8374018.10340  25663967.37540
  -2462446.20400  26427234.85100                  -1882168.36140  26427239.36340
  -1656140.06800  28190723.80500                  -1249789.66240  28190729.18340
   2688428.20600  25871808.85100                   2160888.96540  25871813.55140
   9786256.05200  25444994.75000                   7662381.38040  25444998.68740
 96  9 10  3  7 30.0160000  0  6  4 14 18 19 22 29
   2661636.45600  29346064.35900                   1954820.21340  29346068.95340
  10939863.92300  25688241.00800                   8473436.36740  25688246.12940
  -2462893.85700  26427149.63300                  -1882517.16440  26427153.98040
  -1668910.59500  28188294.28100                  -1259740.65640  28188300.48040
   2778652.06800  25888978.05500                   2231193.26640  25888983.00040
   9856504.47800  25458362.68700                   7717120.41240  25458366.56640
 96  9 10  3  8  0.0160000  0  6  4 14 18 19 22 29
   2741562.59900  29361273.96900                   2017100.37040  29361280.03940
  11067953.09000  25712615.64100                   8573246.09340  25712620.94940
  -2463150.04300  26427100.81200                  -1882716.76740  26427105.34840
  -1681492.32800  28185900.58600                  -1269544.55640  28185906.04740
   2869506.08300  25906266.95300                   2301988.60640  25906271.44140
   9927063.62700  25471789.73400                   7772101.56940  25471793.56640
 96  9 10  3  8 30.0160000  0  6  4 14 18 19 22 29
   2821956.47400  29376572.28100                   2079744.81440  29376575.97340
  11196553.73900  25737087.49200                   8673454.37440  25737092.81240
  -2463209.81500  26427089.53100                  -1882763.32640  26427094.30140
  -1693885.34400  28183541.38300                  -1279201.40140  28183546.84440
   2961017.82100  25923680.89100                   2373296.44840  25923685.22640
   9997951.42200  25485279.25800                   7827338.81340  25485283.05540
 96  9 10  3  9  0.0160000  0  6  4 14 18 19 22 29
   2902808.10200  29391957.21900                   2142746.08940  29391962.03540
  11325650.54100  25761653.80500                   8774049.27140  25761659.12540
  -2463100.28200  26427110.08600                  -1882677.95540  26427114.55140
  -1706105.38300  28181216.32000                  -1288723.47140  28181222.42640
   3053186.13200  25941219.91400                   2445115.91040  25941224.46140
  10069150.02100  25498827.85900                   7882818.24240  25498831.57440
 96  9 10  3  9 30.0160000  0  6  4 14 18 19 22 29
   2984127.03300  29407431.99200                   2206111.45040  29407438.25040
  11455264.23200  25786318.60900                   8875046.93640  25786323.97640
  -2462808.98000  26427165.74200                  -1882450.95240  26427170.33640
  -1718138.34000  28178926.65600                  -1298099.75440  28178933.30140
   3146013.88400  25958884.46900                   2517449.22440  25958888.98040
  10140651.45900  25512434.10900                   7938533.64740  25512437.89440
 96  9 10  3 10  0.0160000  0  6  4 14 18 19 22 29
   3065920.89700  29422997.39100                   2269846.93840  29423001.00040
  11585402.74500  25811082.95300                   8976453.55240  25811088.23840
  -2462348.54600  26427253.20300                  -1882092.16140  26427257.83240
  -1729978.35700  28176673.07000                  -1307325.70040  28176679.24640
   3239480.64600  25976670.82000                   2590280.46140  25976675.69540
  10212428.49900  25526092.95300                   7994463.80640  25526096.68040
 96  9 10  3 10 30.0160000  0  6  4 14 18 19 22 29
   3148194.83600  29438653.06200                   2333956.43140  29438659.88340
  11716063.37500  25835946.90600                   9078267.01640  25835952.16840
  -2461718.39500  26427373.11700                  -1881601.11940  26427377.79340
  -1741598.74900  28174461.45300                  -1316380.50740  28174466.69140
   3333575.48200  25994576.35900                   2663601.10740  25994581.35140
  10284480.33300  25539803.96900                   8050608.08840  25539807.78940
 96  9 10  3 11  0.0160000  0  6  4 14 18 19 22 29
   3230943.27400  29454399.55500                   2398435.74440  29454404.17240
  11847236.28800  25860908.38300                   9180479.66240  25860913.80840
  -2460917.81500  26427525.56200                  -1880977.27740  26427530.29740
  -1752986.63700  28172296.18700                  -1325254.11740  28172301.57840
   3428269.66300  26012595.93700                   2737388.77340  26012600.57840
  10356807.12900  25553567.18700                   8106966.61740  25553571.04340
 96  9 10  3 11 30.0160000  0  6  4 14 18 19 22 29
   3314182.79400  29470239.79700                   2463297.72740  29470244.81240
  11978915.55100  25885966.21100                   9283086.86640  25885971.57840
  -2459919.07700  26427715.60100                  -1880199.03440  26427720.16040
  -1764124.04300  28170174.52300                  -1333932.56240  28170180.76940
   3523546.54500  26030726.32800                   2811630.49040  26030730.88740
  10429434.26100  25567387.65600                   8163559.18140  25567391.34840
 96  9 10  3 12  0.0160000  0  6  4 14 18 19 22 29
   3397903.75700  29486171.82000                   2528534.76340  29486175.37140
  12111065.34400  25911113.27300                   9386060.71340  25911118.65240
  -2458727.76100  26427942.28900                  -1879270.72740  26427947.00040
  -1775023.23800  28168101.49200                  -1342425.39940  28168107.12940
   3619386.85800  26048964.18700                   2886311.25140  26048968.94540
  10502359.00300  25581264.71100                   8220383.65040  25581268.47340
 96  9 10  3 12 30.0160000  0  6  4 14 18 19 22 29
   3482111.60400  29502195.91400                   2594151.27240  29502199.68740
  12243679.75600  25936349.13300                   9489396.60340  25936354.59440
  -2457340.01200  26428206.28900                  -1878189.34440  26428211.10540
  -1785676.53500  28166074.01600                  -1350726.61840  28166079.88740
   3715812.07300  26067313.52300                   2961447.77740  26067318.23440
  10575602.49600  25595202.45300                   8277456.49840  25595206.10940
 96  9 10  3 13  0.0160000  0  6  4 14 18 19 22 29
   3566803.23300  29518312.77300                   2660144.73140  29518319.09040
  12376748.43600  25961671.20300                   9593086.46540  25961676.59440
  -2455750.94800  26428508.76600                  -1876951.10340  26428513.39440
  -1796108.06200  28164088.41400                  -1358855.02840  28164095.08240
   3812821.97400  26085773.77300                   3037039.89640  26085778.60140
  10649161.98500  25609200.49200                   8334775.56840  25609204.31240
 96  9 10  3 13 30.0160000  0  6  4 14 18 19 22 29
   3651989.74900  29534522.88300                   2726523.76940  29534528.21540
  12510277.92600  25987081.05500                   9697135.40740  25987086.26940
  -2453943.88200  26428852.51600                  -1875542.98340  26428856.85140
  -1806335.00000  28162142.36700                  -1366823.99740  28162148.87140
   3910444.53300  26104350.80500                   3113109.42140  26104355.19940
  10723020.89700  25623255.38300                   8392327.95740  25623259.09840
 96  9 10  3 14  0.0160000  0  6  4 14 18 19 22 29
   3737655.17100  29550824.71100                   2793276.05840  29550830.99240
  12644281.42000  26012580.84400                   9801553.69840  26012586.14140
  -2451937.47600  26429234.54700                  -1873979.54040  26429239.22340
  -1816371.61000  28160232.28900                  -1374644.68140  28160238.23040
   4008692.82600  26123047.06200                   3189666.52240  26123051.76240
  10797161.66300  25637363.85100                   8450099.97640  25637367.61340
 96  9 10  3 14 30.0160000  0  6  4 14 18 19 22 29
   3823789.91200  29567215.13300                   2860393.96040  29567221.27340
  12778762.97500  26038172.01600                   9906344.50540  26038177.37140
  -2449752.17700  26429650.29700                  -1872276.69740  26429654.92640
  -1826237.03800  28158355.50000                  -1382331.96340  28158361.32440
   4107566.01600  26141861.88300                   3266710.55740  26141866.55840
  10871568.80700  25651523.10900                   8508079.56140  25651526.82440
 96  9 10  3 15  0.0160000  0  6  4 14 18 19 22 29
   3910401.34200  29583696.75000                   2927883.35540  29583702.62140
  12913741.41600  26063857.60100                  10011522.49040  26063863.06240
  -2447365.56900  26430104.50000                  -1870416.99140  26430108.81240
  -1835924.85800  28156511.33600                  -1389880.87640  28156516.71540
   4207068.69200  26160796.51600                   3344245.10340  26160801.25040
  10946249.43500  25665734.37500                   8566272.24840  25665738.10140
 96  9 10  3 15 30.0160000  0  6  4 14 18 19 22 29
   3997462.59800  29600263.42200                   2995723.28340  29600267.25440
  13049221.97200  26089638.61700                  10117091.73440  26089643.90240
  -2444805.67000  26430591.38300                  -1868422.24840  26430595.96540
  -1845431.95800  28154702.82800                  -1397288.94240  28154709.35540
   4307187.88900  26179848.66400                   3422260.05340  26179853.36340
  11021203.15800  25679997.56200                   8624677.74140  25680001.38340
 96  9 10  3 16  0.0160000  0  6  4 14 18 19 22 29
   4084967.14700  29616915.64100                   3063908.62440  29616922.00440
  13185211.12200  26115516.75000                  10223057.28840  26115522.11740
  -2442082.28300  26431109.68000                  -1866300.12140  26431114.34440
  -1854730.43700  28152932.46900                  -1404534.47640  28152937.88340
   4407915.30500  26199016.54700                   3500748.94440  26199021.08240
  11096460.29000  25694318.59400                   8683319.65640  25694322.43740
 96  9 10  3 16 30.0160000  0  6  4 14 18 19 22 29
   4172914.95700  29633650.97600                   3132439.28340  29633655.93340
  13321699.95200  26141489.43700                  10329412.20340  26141494.79340
  -2439179.99200  26431662.03100                  -1864038.58040  26431666.61340
  -1863803.96900  28151206.57000                  -1411604.70840  28151212.32440
   4509241.11300  26218298.18000                   3579704.11540  26218302.69140
  11172031.80200  25708699.21900                   8742206.54240  25708703.03940
 96  9 10  3 17  0.0160000  0  6  4 14 18 19 22 29
   4261305.95100  29650471.79700                   3201315.34640  29650475.93340
  13458674.50000  26167555.28100                  10436145.59540  26167560.54340
  -2436091.90100  26432249.66400                  -1861632.26040  26432254.26940
  -1872638.45000  28149524.82800                  -1418488.67540  28149530.93340
   4611150.62500  26237690.83600                   3659114.12140  26237695.32440
  11247925.78400  25723141.42200                   8801344.70440  25723145.23040
 96  9 10  3 17 30.0160000  0  6  4 14 18 19 22 29
   4350153.73300  29667379.53100                   3270547.37040  29667385.51940
  13596133.53400  26193712.59400                  10543256.51240  26193717.85540
  -2432812.86100  26432873.62500                  -1859077.15540  26432878.20740
  -1881232.08100  28147889.64100                  -1425184.96840  28147895.55840
   4713649.61300  26257195.88300                   3738983.46040  26257200.52340
  11324153.46900  25737647.02300                   8860742.89140  25737650.76240
 96  9 10  3 18  0.0170000  0  6  4 14 18 19 22 29
   4439465.10500  29684373.80900                   3340140.57740  29684379.39940
  13734052.31700  26219957.69200                  10650725.67640  26219963.00140
  -2429336.14900  26433535.06700                  -1856368.01740  26433539.63840
  -1889615.19700  28146294.60600                  -1431717.21440  28146299.78640
   4816718.72700  26276809.29400                   3819297.05240  26276813.81740
  11400686.87000  25752210.88000                   8920379.30040  25752214.63040
 96  9 10  3 18 30.0170000  0  6  4 14 18 19 22 29
   4529253.78000  29701461.11400                   3410105.73040  29701465.69640
  13872421.32900  26246288.47400                  10758545.66940  26246293.86440
  -2425642.00700  26434238.15300                  -1853489.45440  26434242.65340
  -1897794.75900  28144737.97400                  -1438090.86840  28144744.25540
   4920352.32100  26296529.91900                   3900050.49740  26296534.77040
  11477516.42300  25766831.02800                   8980246.47340  25766834.87240
 96  9 10  3 19  0.0170000  0  6  4 14 18 19 22 29
   4619512.94200  29718635.58300                   3480437.55640  29718640.77440
  14011237.51300  26272704.12200                  10866714.10840  26272709.39540
  -2421730.44200  26434982.55200                  -1850441.46840  26434987.15740
  -1905790.94500  28143216.81700                  -1444321.62840  28143223.06340
   5024549.41600  26316357.75500                   3981243.04140  26316362.39540
  11554649.27300  25781509.09100                   9040349.98540  25781512.84140
 96  9 10  3 19 30.0170000  0  6  4 14 18 19 22 29
   4710226.16900  29735898.17700                   3551123.10440  29735904.20040
  14150501.09000  26299205.28600                  10975231.16240  26299210.50140
  -2417604.45400  26435767.63800                  -1847226.40140  26435772.04440
  -1913613.26000  28141727.95800                  -1450416.90940  28141733.94640
   5129306.41300  26336292.41900                   4062871.86140  26336297.20040
  11632081.17800  25796243.72400                   9100686.52240  25796247.56740
 96  9 10  3 20  0.0170000  0  6  4 14 18 19 22 29
   4801385.17600  29753245.69200                   3622156.04940  29753249.99340
  14290212.61000  26325791.45000                  11084097.27340  26325796.93440
  -2413254.95800  26436595.20000                  -1843837.16440  26436599.93440
  -1921243.25800  28140276.05900                  -1456362.30740  28140282.18840
   5234627.69000  26356334.59100                   4144940.39240  26356339.36040
  11709812.05200  25811035.48100                   9161256.02940  25811039.36040
 96  9 10  3 20 30.0170000  0  6  4 14 18 19 22 29
   4892975.12000  29770674.61400                   3693524.77740  29770678.62240
  14430360.35200  26352460.73100                  11193303.28540  26352466.27440
  -2408688.72500  26437464.05900                  -1840279.05040  26437468.64140
  -1928666.22600  28138864.30200                  -1462146.39340  28138870.32540
   5340526.57900  26376486.61400                   4227458.99740  26376491.46640
  11787858.41500  25825887.27800                   9222071.36040  25825891.08740
 96  9 10  3 21  0.0170000  0  6  4 14 18 19 22 29
   4984982.11000  29788182.98900                   3765218.45540  29788191.26640
  14570943.64900  26379212.68400                  11302848.69540  26379218.16940
  -2403912.00100  26438373.20000                  -1836556.91840  26438377.80640
  -1935875.84700  28137491.07500                  -1467764.25240  28137496.36040
   5447017.62200  26396751.23900                   4310439.02940  26396755.88040
  11866220.43000  25840799.23900                   9283132.66040  25840803.10640
 96  9 10  3 21 30.0170000  0  6  4 14 18 19 22 29
   5077424.21200  29805774.56700                   3837251.19940  29805780.34540
  14711982.24400  26406051.88800                  11412748.88440  26406057.32540
  -2398926.99800  26439321.80200                  -1832672.48740  26439326.47740
  -1942857.45800  28136162.69200                  -1473204.43240  28136167.72040
   5554114.18500  26417130.91100                   4393890.89540  26417135.75140
  11944886.50000  25855768.70800                   9344430.89240  25855772.59940
 96  9 10  3 22  0.0170000  0  6  4 14 18 19 22 29
   5170296.39600  29823447.48900                   3909619.12540  29823452.61040
  14853462.87300  26432974.52800                  11522993.51240  26432980.09540
  -2393740.38700  26440308.92700                  -1828630.96340  26440313.55640
  -1949625.94500  28134874.97400                  -1478478.55740  28134880.82140
   5661809.49800  26437624.56700                   4477809.31640  26437629.45440
  12023841.41600  25870793.37200                   9405954.19440  25870797.28640
 96  9 10  3 22 30.0170000  0  6  4 14 18 19 22 29
   5263617.09300  29841204.66900                   3982336.44440  29841209.90740
  14995408.91900  26459985.91900                  11633600.79840  26459991.52040
  -2388346.77600  26441335.16100                  -1824428.14240  26441339.69640
  -1956178.22100  28133628.16100                  -1483584.19540  28133633.77440
   5770118.13600  26458235.19200                   4562205.65240  26458239.99740
  12103110.51100  25885877.66100                   9467722.30940  25885881.57540
 96  9 10  3 23  0.0170000  0  6  4 14 18 19 22 29
   5357384.34300  29859049.88000                   4055401.83140  29859053.86440
  15137834.93200  26487088.76300                  11744582.08840  26487094.29440
  -2382756.27500  26442399.05200                  -1820071.89940  26442403.51640
  -1962527.21000  28132419.89500                  -1488531.41540  28132425.26340
   5879023.58700  26478959.10600                   4647067.04340  26478963.67740
  12182687.98400  25901020.85600                   9529730.72240  25901024.72440
 96  9 10  3 23 30.0170000  0  6  4 14 18 19 22 29
   5451606.44800  29876978.88800                   4128821.64440  29876984.54840
  15280736.86200  26514282.32500                  11855934.22340  26514287.88040
  -2376957.96000  26443502.18400                  -1815553.72840  26443506.74340
  -1968683.15000  28131248.60600                  -1493328.21040  28131253.98540
   5988520.68000  26499795.52000                   4732389.45540  26499800.37240
  12262581.79800  25916224.17700                   9591985.63640  25916228.04440
 96  9 10  3 24  0.0170000  0  6  4 14 18 19 22 29
   5546265.21900  29894991.93400                   4202581.61440  29894995.40340
  15424090.87800  26541561.41100                  11967638.62740  26541566.80240
  -2370942.44400  26444646.93400                  -1810866.30340  26444651.54040
  -1974645.71600  28130112.77000                  -1497974.34940  28130118.50140
   6098600.34900  26520743.36400                   4818165.81740  26520748.08740
  12342801.68500  25931489.41900                   9654494.63240  25931493.32140
 96  9 10  3 24 30.0170000  0  6  4 14 18 19 22 29
   5641349.44400  29913085.70800                   4276673.23940  29913090.11440
  15567892.95200  26568925.98900                  12079692.17940  26568931.36840
  -2364717.89800  26445831.52000                  -1806015.99740  26445836.03240
  -1980406.61300  28129017.46600                  -1502463.32540  28129023.13840
   6209248.81000  26541798.75500                   4904385.39540  26541803.68840
  12423338.37100  25946814.97400                   9717250.48940  25946818.91140
 96  9 10  3 25  0.0170000  0  6  4 14 18 19 22 29
   5736860.98700  29931262.03600                   4351097.73140  29931268.23540
  15712131.20400  26596373.69200                  12192085.59440  26596379.05940
  -2358264.44100  26447059.43400                  -1800987.32640  26447064.06340
  -1985959.30000  28127960.02800                  -1506790.05440  28127965.99340
   6320465.96300  26562962.80900                   4991048.10840  26562967.33340
  12504188.76700  25962200.38800                   9780250.78940  25962204.22040
 96  9 10  3 25 30.0170000  0  6  4 14 18 19 22 29
   5832802.20200  29949518.09100                   4425857.07840  29949521.74740
  15856807.41800  26623904.86400                  12304820.28940  26623910.37240
  -2351555.95000  26448336.11400                  -1795759.92340  26448340.47440
  -1991282.51400  28126947.20800                  -1510937.99340  28126953.30240
   6432257.56700  26584236.01300                   5078158.44340  26584240.55940
  12585356.83800  25977646.01300                   9843498.62940  25977649.85640
 96  9 10  3 26  0.0170000  0  6  4 14 18 19 22 29
   5929143.53600  29967851.83300                   4500928.19540  29967858.26640
  16001907.19600  26651516.50500                  12417885.03540  26651522.01340
  -2344621.14000  26449655.84900                  -1790356.16340  26449660.16140
  -1996376.69100  28125978.12200                  -1514907.44540  28125983.55940
   6544592.74600  26605612.60600                   5165692.34740  26605617.23540
  12666817.27500  25993147.73100                   9906974.29040  25993151.62240
 96  9 10  3 26 30.0170000  0  6  4 14 18 19 22 29
   6025917.14500  29986266.60600                   4576336.16340  29986272.64140
  16147445.95000  26679211.58300                  12531291.83640  26679217.06740
  -2337448.65600  26451020.81700                  -1784767.21040  26451025.48140
  -2001237.64600  28125053.04400                  -1518695.17940  28125058.56340
   6657489.60600  26627096.52000                   5253663.92840  26627101.29040
  12748588.46200  26008708.35600                   9970692.09740  26008712.17740
 96  9 10  3 27  0.0170000  0  6  4 14 18 19 22 29
   6123122.51800  30004764.29400                   4652080.52340  30004768.02040
  16293420.82500  26706989.48900                  12645038.47440  26706994.83340
  -2330038.08500  26452431.02800                  -1778992.72840  26452435.29440
  -2005879.33100  28124170.04400                  -1522312.05540  28124175.69240
   6770952.59900  26648687.59100                   5342076.64240  26648692.19640
  12830681.90700  26024330.16900                  10034661.00640  26024333.94240
 96  9 10  3 27 30.0170000  0  6  4 14 18 19 22 29
   6220748.03900  30023341.73900                   4728152.38140  30023346.34540
  16439825.73300  26734849.57500                  12759120.20140  26734855.16540
  -2322406.62600  26453882.99700                  -1773046.12340  26453887.28640
  -2010298.32300  28123329.16100                  -1525755.37640  28123334.54040
   6884964.53500  26670383.44200                   5430917.11140  26670388.41140
  12913084.34100  26040010.55900                  10098870.69040  26040014.48540
 96  9 10  3 28  0.0170000  0  6  4 14 18 19 22 29
   6318812.82600  30042003.80200                   4804566.40040  30042010.13040
  16586653.87800  26762790.09100                  12873531.71840  26762795.42340
  -2314556.16100  26455377.10600                  -1766928.87040  26455381.33740
  -2014491.45500  28122531.34900                  -1529022.71440  28122536.93840
   6999532.98200  26692184.97400                   5520191.22140  26692189.97740
  12995809.48800  26055752.61400                  10163331.83940  26055756.38840
 96  9 10  3 28 30.0170000  0  6  4 14 18 19 22 29
   6417312.67300  30060746.63800                   4881319.49140  30060749.27440
  16733903.84800  26790810.66100                  12988271.93840  26790816.33340
  -2306475.48000  26456914.67700                  -1760632.22540  26456919.02440
  -2018470.04900  28121773.84100                  -1532122.88740  28121779.82940
   7114654.81700  26714091.69200                   5609896.54540  26714096.40340
  13078864.40300  26071557.66100                  10228049.95240  26071561.51640
 96  9 10  3 29  0.0170000  0  6  4 14 18 19 22 29
   6516226.24300  30079570.13000                   4958394.97040  30079576.95040
  16881574.72900  26818911.55900                  13103340.14340  26818917.18440
  -2298167.86800  26458495.48900                  -1754158.74640  26458499.76640
  -2022226.51900  28121058.90300                  -1535049.97640  28121064.75140
   7230317.45900  26736101.48900                   5700023.27240  26736106.22440
  13162240.95200  26087423.66900                  10293018.69040  26087427.48940
 96  9 10  3 29 30.0170000  0  6  4 14 18 19 22 29
   6615537.94200  30098467.51300                   5035780.59740  30098472.21240
  17029636.92400  26847086.59900                  13218713.26140  26847092.02440
  -2289645.78400  26460117.31700                  -1747518.15340  26460121.60640
  -2025764.41700  28120385.96600                  -1537806.73740  28120391.64940
   7346496.83900  26758209.78600                   5790552.65940  26758214.60240
  13245926.07500  26103348.41900                  10358227.87040  26103352.18140
 96  9 10  3 30  0.0180000  0  6  4 14 18 19 22 29
   6715246.99200  30117442.75200                   5113475.93940  30117449.32640
  17178105.60700  26875339.47800                  13334403.13040  26875345.18540
  -2280903.01900  26461781.01000                  -1740705.58940  26461785.27540
  -2029101.78100  28119750.01000                  -1540407.23740  28119756.23240
   7463203.68300  26780418.43200                   5881493.04840  26780423.23640
  13329931.56700  26119334.07200                  10423686.69140  26119337.85740
 96  9 10  3 30 30.0180000  0  6  4 14 18 19 22 29
   6815330.15500  30136486.82200                   5191462.84040  30136491.36940
  17326982.72800  26903669.84600                  13450411.25740  26903675.38940
  -2271931.15600  26463488.14200                  -1733714.52240  26463492.43240
  -2032241.13100  28119152.84600                  -1542853.45640  28119158.38940
   7580434.82700  26802726.81400                   5972841.98740  26802731.64240
  13414254.81900  26135380.22100                  10489393.11440  26135384.02940
 96  9 10  3 31  0.0180000  0  6  4 14 18 19 22 29
   6915797.04000  30155605.61900                   5269748.60840  30155609.52140
  17476257.59500  26932075.86900                  13566729.31340  26932081.40040
  -2262730.90700  26465238.85300                  -1726545.48740  26465243.18940
  -2035169.23500  28118596.15000                  -1545135.05540  28118602.31440
   7698198.39500  26825136.51700                   6064605.80140  26825141.39240
  13498898.10400  26151487.38500                  10555348.91840  26151491.28740
 96  9 10  3 31 30.0180000  0  6  4 14 18 19 22 29
   7016666.90600  30174800.24400                   5348348.45740  30174803.49040
  17625942.62000  26960560.12700                  13683366.98340  26960565.69340
  -2253283.12200  26467036.89200                  -1719183.57040  26467041.29940
  -2037884.98500  28118079.54100                  -1547251.19340  28118085.02540
   7816508.45000  26847650.40000                   6156795.45440  26847655.21740
  13583868.95500  26167656.85300                  10621559.97240  26167660.70940
 96  9 10  3 32  0.0180000  0  6  4 14 18 19 22 29
   7117939.13700  30194072.73600                   5427261.82240  30194081.14240
  17776047.60700  26989124.22100                  13800331.88340  26989129.84640
  -2243585.20400  26468882.14200                  -1711626.74740  26468886.36140
  -2040399.76400  28117600.98600                  -1549210.73440  28117606.47140
   7935366.98800  26870267.99400                   6249412.48340  26870272.59940
  13669160.21100  26183887.17400                  10688020.68140  26183890.98240
 96  9 10  3 32 30.0180000  0  6  4 14 18 19 22 29
   7219621.51300  30213421.31400                   5506494.77440  30213426.90440
  17926564.58100  27017766.78300                  13917617.81840  27017772.18540
  -2233641.64300  26470774.36100                  -1703878.51640  26470778.60340
  -2042694.06200  28117164.39200                  -1550998.45540  28117169.58440
   8054774.42000  26892990.87700                   6342457.22940  26892995.69340
  13754769.70100  26200178.04900                  10754729.37240  26200181.85740
 96  9 10  3 33  0.0180000  0  6  4 14 18 19 22 29
   7321731.79100  30232852.38500                   5586061.23640  30232854.18940
  18077497.88600  27046488.25200                  14035228.16740  27046493.51440
  -2223450.62700  26472713.70500                  -1695937.46240  26472718.01740
  -2044762.56500  28116770.67400                  -1552610.25440  28116776.75640
   8174736.51300  26915818.94700                   6435934.17940  26915823.81040
  13840694.54400  26216529.18900                  10821683.79040  26216533.03340
 96  9 10  3 33 30.0180000  0  6  4 14 18 19 22 29
   7424258.11500  30252363.09600                   5665951.76740  30252369.03740
  18228843.18800  27075288.51700                  14153159.55340  27075293.90840
  -2213029.38500  26474696.79900                  -1687817.01340  26474701.08840
  -2046625.59000  28116415.76000                  -1554061.93040  28116421.11540
   8295246.93600  26938751.17400                   6529838.39840  26938755.70940
  13926932.04300  26232939.38500                  10888881.83440  26232943.29940
 96  9 10  3 34  0.0180000  0  6  4 14 18 19 22 29
   7527185.22200  30271949.42400                   5746154.78840  30271955.78740
  18380599.70200  27104166.65000                  14271411.36240  27104172.02940
  -2202381.66100  26476723.10300                  -1679520.08140  26476727.42840
  -2048266.42600  28116103.82200                  -1555340.48940  28116109.22440
   8416303.48900  26961787.36900                   6624168.17540  26961792.03340
  14013499.01000  26249412.60300                  10956336.60740  26249416.42440
 96  9 10  3 34 30.0180000  0  7  3  4 14 18 19 22 29
     -2036.21110  30266267.08000
   7630506.05500  30291610.58000                   5826664.37440  30291613.63940
  18532750.96800  27133119.84600                  14389970.77240  27133125.38940
  -2191494.76400  26478794.61900                  -1671036.78240  26478798.97840
  -2049685.23100  28115833.61900                  -1556446.01040  28115838.68240
   8537905.11100  26984927.74400                   6718922.68040  26984932.23240
  14100403.35000  26265950.11100                  11024054.27040  26265953.93240
 96  9 10  3 35  0.0180000  0  7  3  4 14 18 19 22 29
     -7510.22800  30265225.20500
   7734216.51700  30311346.97800                   5907477.74740  30311353.44740
  18685280.02500  27162145.43200                  14508824.56140  27162151.01040
  -2180357.36000  26480914.17400                  -1662358.28240  26480918.52140
  -2050887.60200  28115604.76700                  -1557382.90440  28115610.35740
   8660041.07600  27008169.35300                   6814093.55240  27008174.04140
  14187656.90900  26282553.75200                  11092044.04740  26282557.68940
 96  9 10  3 35 30.0180000  0  6  3 14 18 19 22 29
    -12878.39800  30264203.88500                     -1804.58850  30264204.33040
  18838171.05500  27191239.47800                  14627960.41040  27191245.01040
  -2168970.04800  26483081.11900                  -1653485.05240  26483085.36140
  -2051874.12700  28115417.18900                  -1558151.60640  28115422.39240
   8782688.64000  27031508.20500                   6909663.07240  27031513.08040
  14275258.43700  26299223.76000                  11160304.97540  26299227.61540
 96  9 10  3 36  0.0180000  0  6  3 14 18 19 22 29
    -18130.45900  30263202.86900                     -5897.07940  30263207.40440
  18991432.40700  27220404.26700                  14747384.82140  27220409.71740
  -2157306.17800  26485300.48600                  -1644396.31540  26485304.93940
  -2052635.07000  28115272.07200                  -1558744.51940  28115277.53340
   8905850.85800  27054945.33800                   7005633.63240  27054950.01440
  14363203.03500  26315959.03300                  11228833.22940  26315962.85340
 96  9 10  3 36 30.0180000  0  6  3 14 18 19 22 29
    -23237.59500  30262232.18900                     -9876.56640  30262240.83040
  19145064.65400  27249639.49400                  14867098.24440  27249645.22440
  -2145360.34100  26487573.94700                  -1635087.86940  26487578.30740
  -2053167.62300  28115170.80700                  -1559159.46540  28115175.95140
   9029541.12200  27078482.65000                   7102015.64740  27078487.33840
  14451481.42800  26332758.01700                  11297621.58240  26332762.02540
 96  9 10  3 37  0.0180000  0  6  3 14 18 19 22 29
    -28205.62800  30261285.94700                    -13747.70940  30261292.62740
  19299084.56800  27278948.46300                  14987113.74540  27278954.01740
  -2133149.79200  26489897.33800                  -1625573.14740  26489901.74440
  -2053462.27000  28115114.59600                  -1559389.03240  28115120.08040
   9153769.52000  27102122.66600                   7198816.99740  27102127.57640
  14540087.65700  26349619.03300                  11366665.39840  26349622.79540
 96  9 10  3 37 30.0180000  0  6  3 14 18 19 22 29
    -33042.23700  30260367.80700                    -17516.49040  30260372.02540
  19453494.23600  27308331.82200                  15107432.94840  27308337.24840
  -2120684.17000  26492269.47100                  -1615859.67240  26492273.88940
  -2053539.90000  28115100.17400                  -1559449.49540  28115105.64640
   9278534.82500  27125864.61900                   7296036.70840  27125869.57640
  14628999.13500  26366538.43200                  11435947.06040  26366542.15840
 96  9 10  3 38  0.0180000  0  6  3 14 18 19 22 29
    -37739.94000  30259473.05700                    -21177.12640  30259478.11940
  19608298.34500  27337790.02500                  15228059.50940  27337795.52140
  -2107959.29100  26494690.82200                  -1605944.17640  26494695.18240
  -2053405.01500  28115125.79900                  -1559344.36140  28115131.51740
   9403847.64800  27149710.68200                   7393683.05640  27149715.60340
  14718225.32900  26383517.68200                  11505473.96140  26383521.51440
 96  9 10  3 38 30.0180000  0  6  3 14 18 19 22 29
    -42310.62400  30258603.69700                    -24738.84240  30258608.04540
  19763493.46300  27367322.93200                  15348990.74940  27367328.51040
  -2094989.02700  26497159.09600                  -1595837.46940  26497163.49040
  -2053067.06100  28115189.56400                  -1559080.99340  28115195.24840
   9529682.89600  27173656.34600                   7491736.49740  27173661.17440
  14807772.14600  26400557.80700                  11575250.69440  26400561.66240
 96  9 10  3 39  0.0180000  0  6  3 14 18 19 22 29
    -46766.40900  30257754.09600                    -28210.90140  30257760.06040
  19919076.94900  27396929.36900                  15470224.61740  27396935.25240
  -2081753.93800  26499677.71300                  -1585524.40540  26499682.33040
  -2052526.89800  28115292.58000                  -1558660.04740  28115298.01740
   9656019.68200  27197697.52500                   7590180.74740  27197702.24840
  14897653.71200  26417661.70500                  11645288.27540  26417665.46740
 96  9 10  3 39 30.0180000  0  6  3 14 18 19 22 29
    -51112.65400  30256926.96300                    -31597.53840  30256930.54940
  20075026.34200  27426605.47800                  15591743.60740  27426611.11540
  -2068252.86000  26502246.80700                  -1575004.08440  26502251.21340
  -2051799.94400  28115430.90800                  -1558093.54040  28115436.39240
   9782820.31800  27221826.77500                   7688986.43840  27221831.77940
  14987858.22700  26434827.01700                  11715577.50240  26434830.74440
 96  9 10  3 40  0.0180000  0  6  3 14 18 19 22 29
    -55340.52800  30256123.53300                    -34891.93640  30256128.25640
  20231341.48400  27456351.38500                  15713547.60740  27456356.97440
  -2054479.35300  26504867.86900                  -1564271.47140  26504872.21740
  -2050862.55300  28115608.75200                  -1557363.07740  28115614.75240
   9910079.38700  27246043.40800                   7788149.34940  27246048.17840
  15078394.04800  26452055.51700                  11786124.89740  26452059.49040
 96  9 10  3 40 30.0180000  0  6  3 14 18 19 22 29
    -59433.00900  30255344.67400                    -38081.03140  30255350.00640
  20388024.34100  27486167.04900                  15835638.11840  27486172.45140
  -2040422.61500  26507542.68900                  -1553318.16240  26507547.14240
  -2049699.06600  28115830.80700                  -1556456.42740  28115836.79540
  10037805.64800  27270349.14200                   7887676.30540  27270354.22840
  15169263.64400  26469347.42400                  11856932.36840  26469351.11540
 96  9 10  3 41  0.0180000  0  6  3 14 18 19 22 29
    -63386.84600  30254592.21300                    -41161.83040  30254598.96340
  20545057.46400  27516049.56400                  15958001.57640  27516054.94340
  -2026099.71500  26510268.47100                  -1542157.45640  26510272.88940
  -2048318.52800  28116093.30700                  -1555380.66340  28116098.73240
  10166008.17800  27294745.18200                   7987574.37940  27294750.38540
  15260445.10300  26486698.56400                  11927982.85040  26486702.47840
 96  9 10  3 41 30.0180000  0  6  3 14 18 19 22 29
    -67187.06900  30253869.01000                    -44123.02840  30253876.03340
  20702446.15400  27545999.49400                  16080642.09740  27546005.04940
  -2011515.12100  26513043.61100                  -1530792.82440  26513048.01740
  -2046722.89300  28116396.56400                  -1554137.27840  28116402.17840
  10294707.30000  27319235.90000                   8087859.40740  27319240.81040
  15351951.72000  26504111.89200                  11999286.70540  26504115.70140
 96  9 10  3 42  0.0190000  0  6  3 14 18 19 22 29
    -70823.96200  30253177.48300                    -46956.95440  30253183.48340
  20860190.24100  27576017.46000                  16203559.54740  27576023.17940
  -1996671.29100  26515868.34300                  -1519226.19440  26515872.66740
  -2044916.66400  28116740.89700                  -1552729.79040  28116746.40540
  10423925.19500  27343825.11600                   8188548.67740  27343830.30740
  15443800.12100  26521589.98300                  12070856.88240  26521593.72240
 96  9 10  3 42 30.0190000  0  6  3 14 18 19 22 29
    -74301.54200  30252514.24100                    -49666.75640  30252517.27640
  21018274.81800  27606100.03000                  16326742.31440  27606105.91340
  -1981576.74700  26518740.73300                  -1507464.20640  26518745.17540
  -2042919.40200  28117120.66300                  -1551173.44240  28117126.32340
  10553642.51600  27368509.47500                   8289627.10840  27368514.16340
  15535984.64000  26539132.12400                  12142688.96740  26539135.96840
 96  9 10  3 43  0.0190000  0  6  3 14 18 19 22 29
    -77614.02000  30251884.96000                    -52247.86540  30251892.99140
  21176715.48700  27636250.02200                  16450202.56140  27636255.53040
  -1966206.44800  26521665.64700                  -1495487.34040  26521669.87840
  -2040716.24500  28117539.91300                  -1549456.66940  28117545.19840
  10683872.36000  27393291.39000                   8391104.91440  27393296.03040
  15628531.55700  26556743.21800                  12214803.44640  26556747.07340
 96  9 10  3 43 30.0190000  0  6  3 14 18 19 22 29
    -80768.99400  30251284.88200                    -54706.33940  30251290.44840
  21335490.65700  27666464.05400                  16573923.45840  27666469.69040
  -1950550.77100  26524644.87400                  -1483288.10240  26524649.28040
  -2038304.09900  28117998.76500                  -1547577.04040  28118003.71040
  10814600.02500  27418168.02200                   8492970.63040  27418172.68640
  15721438.03200  26574422.71000                  12287198.09940  26574426.56540
 96  9 10  3 44  0.0190000  0  6  3 14 18 19 22 29
    -83776.56500  30250711.67100                    -57049.88540  30250718.58940
  21494606.03400  27696742.71800                  16697909.45440  27696748.47240
  -1934611.61600  26527677.85000                  -1470867.96840  26527682.24540
  -2035674.80700  28118499.38200                  -1545528.21340  28118504.51540
  10945817.91200  27443138.18600                   8595218.33640  27443142.64040
  15814681.01400  26592166.20200                  12359854.96340  26592170.06940
 96  9 10  3 44 30.0190000  0  6  3 14 18 19 22 29
    -86640.22500  30250167.24900                    -59281.27040  30250173.53040
  21654080.91400  27727089.88200                  16822175.58040  27727095.33140
  -1918367.47900  26530769.04600                  -1458210.18940  26530773.48740
  -2032804.16500  28119045.53000                  -1543291.33140  28119050.93240
  11077524.87000  27468201.25700                   8697847.14340  27468206.20240
  15908261.76700  26609974.16300                  12432775.02940  26609978.12440
 96  9 10  3 45  0.0190000  0  6  3 14 18 19 22 29
    -89378.72700  30249646.70200                    -61415.19940  30249651.23740
  21813889.53600  27757499.93600                  16946701.76540  27757505.55040
  -1901831.40700  26533915.62400                  -1445324.92940  26533920.00740
  -2029710.32300  28119633.76500                  -1540880.49840  28119639.40140
  11209720.68900  27493357.21000                   8800856.87440  27493361.83940
  16002162.21300  26627842.74100                  12505944.19940  26627846.72540
 96  9 10  3 45 30.0190000  0  6  3 14 18 19 22 29
    -91979.89400  30249149.39700                    -63442.00140  30249158.37840
  21974031.97700  27787974.24900                  17071488.07240  27787980.06140
  -1885026.41300  26537113.38200                  -1432230.11940  26537117.83540
  -2026401.23700  28120263.96800                  -1538301.96740  28120269.30040
  11342391.34400  27518603.61600                   8904236.62440  27518608.52640
  16096375.11100  26645770.92900                  12579356.84840  26645774.72540
 96  9 10  3 46  0.0190000  0  6  3 14 18 19 22 29
    -94409.05900  30248688.24900                    -65334.69440  30248693.79240
  22134546.76900  27818519.33500                  17196564.51740  27818524.99540
  -1867929.50400  26540367.05400                  -1418907.84840  26540371.41340
  -2022865.59000  28120936.65500                  -1535546.87040  28120942.21040
  11475551.55500  27543943.03000                   9007997.82740  27543948.10440
  16190935.89900  26663765.21800                  12653040.57540  26663769.13240
 96  9 10  3 46 30.0190000  0  7  3 14 18 19 22 28 29
    -96651.02300  30248261.67100                    -67081.75140  30248264.37840
  22295394.09500  27849127.44400                  17321900.08440  27849132.91740
  -1850550.30500  26543674.01500                  -1405365.60840  26543678.28040
  -2019110.63500  28121650.95200                  -1532620.90140  28121656.98740
  11609185.38200  27569372.77200                   9112128.08440  27569377.70640
     25712.17410  30533212.96000                     20035.53610  30533218.41700
  16285851.79800  26681827.07700                  12727001.01240  26681830.87440
 96  9 10  3 47  0.0190000  0  7  3 14 18 19 22 28 29
    -98676.78100  30247876.85800                    -68660.29240  30247884.62040
  22456563.12500  27879796.59300                  17447486.32640  27879802.11240
  -1832895.98800  26547033.53000                  -1391608.98740  26547037.81940
  -2015137.31100  28122407.13200                  -1529524.77140  28122413.02640
  11743292.82100  27594892.38200                   9216627.39240  27594896.94040
     71456.91200  30541918.09300                     55680.78600  30541923.07300
  16381125.59700  26699957.06900                  12801240.33040  26699961.01840
 96  9 10  3 47 30.0190000  0  7  3 14 18 19 22 28 29
   -100478.17100  30247533.44400                    -70063.95240  30247537.76840
  22618056.70500  27910528.20200                  17573325.45840  27910533.92140
  -1814967.57500  26550445.21800                  -1377638.79140  26550449.51840
  -2010937.36000  28123206.42100                  -1526252.05240  28123212.11640
  11877846.90700  27620497.20200                   9321474.73840  27620502.13640
    117668.26300  30550711.69400                     91689.61400  30550717.05400
  16476756.73700  26718155.14700                  12875758.09740  26718159.01540
 96  9 10  3 48  0.0190000  0  7  3 14 18 19 22 28 29
   -102065.90200  30247231.55400                    -71301.07140  30247236.34740
  22779855.25900  27941317.46000                  17699402.23640  27941323.21440
  -1796759.43300  26553910.14000                  -1363450.62440  26553914.55740
  -2006518.35800  28124047.22500                  -1522808.63740  28124052.71040
  12012841.06300  27646185.67900                   9426664.99540  27646190.39040
    164341.45300  30559593.26500                    128058.35300  30559598.04200
  16572740.42200  26736420.17900                  12950550.58040  26736424.06940
 96  9 10  3 48 30.0190000  0  7  3 14 18 19 22 28 29
   -103444.06400  30246968.35000                    -72374.93540  30246972.34740
  22941951.13900  27972163.10000                  17825710.71240  27972168.78440
  -1778269.55500  26557428.66300                  -1349042.92040  26557433.25740
  -2001872.71300  28124931.32700                  -1519188.62040  28124936.41340
  12148284.68900  27671959.74100                   9532205.49140  27671964.19440
    211483.22900  30568564.26500                    164792.21100  30568569.02600
  16669073.87900  26754751.91300                  13025615.60840  26754755.76840
 96  9 10  3 49  0.0190000  0  7  3 14 18 19 22 28 29
   -104630.17100  30246743.49100                    -73299.14840  30246748.17940
  23104369.33700  28003070.59300                  17952270.32940  28003076.21840
  -1759489.66300  26561002.40500                  -1334409.22840  26561006.87040
  -1997014.17700  28125855.86600                  -1515402.70240  28125861.04640
  12284173.74100  27697818.65500                   9638093.07640  27697823.75340
    259094.43200  30577624.30400                    201891.86700  30577629.37400
  16765745.23200  26773147.79600                  13100943.93540  26773151.68640
 96  9 10  3 49 30.0190000  0  7  3 14 18 19 22 28 29
   -105644.80400  30246550.69400                    -74089.72540  30246557.06940
  23267095.71800  28034036.63200                  18079070.09740  28034042.08140
  -1740421.64000  26564630.96800                  -1319551.02140  26564635.28040
  -1991965.78000  28126816.51500                  -1511468.85140  28126822.15140
  12420505.79300  27723761.55400                   9744325.84940  27723766.33540
    307168.79600  30586772.53000                    239352.39400  30586777.43200
  16862749.05700  26791606.85000                  13176531.32440  26791610.71840
 96  9 10  3 50  0.0190000  0  7  3 14 18 19 22 28 29
   -106463.87200  30246395.14000                    -74727.92840  30246399.62840
  23430138.60900  28065062.19400                  18206116.49440  28065068.03040
  -1721040.21600  26568318.89000                  -1304448.60140  26568323.23740
  -1986713.52200  28127815.94400                  -1507376.15140  28127821.67540
  12557321.61500  27749796.82700                   9850935.59240  27749801.72540
    355722.83000  30596012.22500                    277186.69600  30596016.79600
  16960103.04700  26810132.87400                  13252391.57640  26810136.78840
 96  9 10  3 50 30.0190000  0  7  3 14 18 19 22 28 29
   -107091.06600  30246274.84300                    -75216.63040  30246278.42940
  23593505.10400  28096149.19400                  18333415.03940  28096154.44440
  -1701337.96900  26572068.39000                  -1289096.19140  26572072.69040
  -1981243.20400  28128856.74900                  -1503113.53340  28128862.09340
  12694634.25700  27775926.85000                   9957932.46640  27775931.47940
    404760.38900  30605343.56100                    315397.78700  30605348.39000
  17057807.83200  26828725.46000                  13328525.17640  26828729.38640
 96  9 10  3 51  0.0190000  0  7  3 14 18 19 22 28 29
   -107535.22300  30246191.12400                    -75562.68840  30246195.71840
  23757181.07300  28127295.96800                  18460954.75540  28127301.52240
  -1681327.56400  26575876.26500                  -1273503.65940  26575880.81140
  -1975569.85400  28129936.14700                  -1498692.69540  28129941.55040
  12832419.75400  27802146.21000                  10065297.79340  27802150.52240
    454267.73100  30614764.28800                    353974.92800  30614769.22500
  17155844.39200  26847381.02200                  13404917.29740  26847385.04240
 96  9 10  3 51 30.0190000  0  7  3 14 18 19 22 28 29
   -107784.96300  30246142.96000                    -75757.20540  30246146.75740
  23921155.89700  28158500.07700                  18588727.32940  28158505.71440
  -1661014.15700  26579741.70200                  -1257675.02140  26579746.00340
  -1969680.03200  28131057.21000                  -1494103.18940  28131062.44840
  12970676.08000  27828455.74900                  10173030.01040  27828460.16740
    504251.47200  30624275.99900                    392923.29900  30624281.48300
  17254224.03200  26866102.21000                  13481576.75440  26866105.97240
 96  9 10  3 52  0.0190000  0  7  3 14 18 19 22 28 29
   -107852.83900  30246130.34300                    -75810.01340  30246134.81940
  24085427.21200  28189760.03000                  18716730.93440  28189765.42140
  -1640403.10500  26583663.80400                  -1241614.45140  26583668.23340
  -1963562.23800  28132221.28000                  -1489336.04840  28132226.64740
  13109374.67500  27854849.18600                  10281106.84040  27854853.99140
    554709.36600  30633878.10000                    432241.13800  30633882.91300
  17352935.73800  26884886.34300                  13558494.96640  26884890.24540
 96  9 10  3 52 30.0190000  0  7  3 14 18 19 22 28 29
   -107744.95900  30246151.43600                    -75725.90840  30246156.39340
  24249987.74600  28221074.80400                  18844959.91040  28221080.41740
  -1619492.88900  26587642.85800                  -1225320.76840  26587647.26540
  -1957226.85900  28133426.68600                  -1484399.35540  28133432.25340
  13248483.43200  27881320.72500                  10389503.27540  27881325.27240
    605640.40500  30643570.28800                    471927.67100  30643574.53400
  17451966.14700  26903731.31900                  13635661.51140  26903735.12840
 96  9 10  3 53  0.0190000  0  7  3 14 18 19 22 28 29
   -107433.38300  30246210.60000                    -75483.10040  30246215.76840
  24414842.57900  28252445.17100                  18973418.20040  28252451.10040
  -1598282.25000  26591679.14000                  -1208792.98640  26591683.59340
  -1950688.42100  28134671.05400                  -1479304.43340  28134676.21040
  13387991.80400  27907868.43600                  10498211.10540  27907873.35840
    657048.67900  30653352.39000                    511986.09500  30653357.06500
  17551317.72500  26922637.15500                  13713078.32640  26922641.04640
 96  9 10  3 53 30.0200000  0  7  3 14 18 19 22 28 29
   -106920.19500  30246306.80800                    -75083.10740  30246310.51240
  24579983.23800  28283870.43300                  19102099.22140  28283876.00040
  -1576776.97300  26595771.49600                  -1192035.61740  26595775.69140
  -1943945.62600  28135954.19900                  -1474050.28040  28135959.48440
  13527899.19200  27934491.98800                  10607229.85140  27934496.68740
    708934.48400  30663226.19100                    552416.58300  30663230.69500
  17650997.63500  26941605.79300                  13790750.98340  26941609.62540
 96  9 10  3 54  0.0200000  0  7  3 14 18 19 22 28 29
   -106186.37900  30246446.99600                    -74511.23240  30246451.20340
  24745395.97900  28315347.39400                  19230992.25540  28315353.09040
  -1554964.81400  26599922.03500                  -1175039.11540  26599926.35940
  -1936992.92000  28137277.30800                  -1468632.54540  28137282.85140
  13668208.65900  27961191.59800                  10716561.90640  27961196.19140
    761302.17600  30673191.59000                    593222.57900  30673196.31200
  17751007.71000  26960637.10500                  13868680.91440  26960640.93740
 96  9 10  3 54 30.0200000  0  7  3 14 18 19 22 28 29
   -105210.42900  30246632.69900                    -73750.76040  30246637.59840
  24911086.64100  28346877.60500                  19360101.84440  28346883.04340
  -1532848.09000  26604130.87100                  -1157805.29140  26604135.14840
  -1929840.90200  28138638.02700                  -1463059.51340  28138643.54740
  13808946.52100  27987973.19900                  10826227.77940  27987977.79340
    814152.91900  30683248.60500                    634404.99400  30683253.34000
  17851355.09400  26979732.60500                  13946873.67940  26979736.56640
 96  9 10  3 55  0.0200000  0  7  3 14 18 19 22 28 29
   -103982.09000  30246866.76200                    -72793.50740  30246872.34040
  25077060.42400  28378461.22300                  19489432.05040  28378467.24640
  -1510431.80700  26608396.42600                  -1140338.04940  26608400.63340
  -1922470.94600  28140040.82400                  -1457316.66140  28140046.20340
  13950132.29100  28014839.67600                  10936242.65740  28014844.03540
    867494.03100  30693398.87100                    675969.50400  30693403.71100
  17952062.18400  26998896.30100                  14025346.73640  26998900.08640
 96  9 10  3 55 30.0200000  0  7  3 14 18 19 22 28 29
   -102513.01500  30247145.98000                    -71648.79440  30247150.71540
  25243296.48000  28410095.19100                  19618966.63240  28410100.85140
  -1487705.09300  26612721.03500                  -1122628.90140  26612725.19540
  -1914869.67600  28141486.88700                  -1451393.56740  28141492.21940
  14091777.00700  28041794.01200                  11046615.17440  28041798.94540
    921326.55800  30703642.66800                    717916.91100  30703647.79700
  18053136.15600  27018130.27700                  14104105.67340  27018134.02740
 96  9 10  3 56  0.0200000  0  7  3 14 18 19 22 28 29
   -100809.97700  30247469.96500                    -70321.62140  30247473.53940
  25409792.86100  28441778.28500                  19748704.06240  28441784.09840
  -1464654.14000  26617107.70700                  -1104667.10540  26617111.86740
  -1907042.43700  28142976.33200                  -1445294.38840  28142981.69940
  14233872.15400  28068833.59000                  11157338.67140  28068838.32440
    975643.50000  30713978.97300                    760241.81700  30713983.60900
  18154565.59800  27037431.59800                  14183141.60240  27037435.51240
 96  9 10  3 56 30.0200000  0  7  3 14 18 19 22 28 29
    -98881.10000  30247837.09800                    -68818.56940  30247842.04340
  25576556.86100  28473512.41000                  19878650.02740  28473518.22340
  -1441270.37600  26621557.37900                  -1086445.97740  26621561.71540
  -1898995.28600  28144507.95700                  -1439023.84740  28144513.04340
  14376406.99900  28095957.28500                  11268404.77640  28095962.16040
   1030442.10200  30724406.78500                    802942.01500  30724411.66000
  18256349.73700  27056800.44900                  14262453.91140  27056804.41040
 96  9 10  3 57  0.0200000  0  7  3 14 18 19 22 28 29
    -96727.26100  30248246.91800                    -67140.22240  30248252.02740
  25743589.89200  28505298.13700                  20008805.61740  28505304.00840
  -1417534.23900  26626074.09800                  -1067950.27640  26626078.48040
  -1890719.31500  28146082.32400                  -1432575.00840  28146087.87940
  14519373.24400  28123162.89400                  11379807.04840  28123167.95740
   1085729.99900  30734927.91000                    846023.51000  30734932.49600
  18358503.38000  27076239.56600                  14342054.15440  27076243.32840
 96  9 10  3 57 30.0200000  0  7  3 14 18 19 22 28 29
    -94348.82800  30248699.59800                    -65286.86340  30248704.50840
  25910896.49200  28537134.80800                  20139174.39040  28537140.68040
  -1393437.44600  26630659.73800                  -1049173.53840  26630664.13340
  -1882228.61500  28147698.14400                  -1425958.85040  28147703.60540
  14662751.39100  28150446.66000                  11491530.28940  28150451.54740
   1141507.86800  30745541.98800                    889486.80100  30745546.70300
  18461015.46800  27095746.86300                  14421933.70240  27095750.63740
 96  9 10  3 58  0.0200000  0  7  3 14 18 19 22 28 29
    -91731.17800  30249197.26900                    -63247.04240  30249202.81240
  26078494.62900  28569028.16000                  20269770.32740  28569033.72640
  -1368991.84500  26635311.74600                  -1030125.01040  26635316.04740
  -1873533.38600  28149352.91800                  -1419183.32140  28149358.22640
  14806524.65900  28177805.78500                  11603561.39840  28177810.77740
   1197776.74000  30756249.55800                    933332.66900  30756254.11300
  18563885.67400  27115322.49600                  14502092.30140  27115326.39840
 96  9 10  3 58 30.0200000  0  7  3 14 18 19 22 28 29
    -88859.96100  30249743.81600                    -61009.68140  30249749.65240
  26246379.40700  28600975.14400                  20400589.62540  28600980.93340
  -1344218.83000  26640025.64400                  -1010821.34540  26640029.86340
  -1864645.78000  28151044.40200                  -1412257.88240  28151049.65240
  14950697.63900  28205240.98000                  11715903.99140  28205245.97340
   1254539.64200  30767050.98800                    977563.50200  30767055.23400
  18667114.94600  27134966.51200                  14582530.69440  27134970.39040
 96  9 10  3 59  0.0200000  0  7  3 14 18 19 22 28 29
    -85729.77200  30250338.91000                    -58570.49040  30250343.78540
  26414541.31500  28632975.85500                  20531624.87140  28632981.24640
  -1319135.53300  26644798.85500                   -991275.90940  26644803.12140
  -1855568.43700  28152771.36300                  -1405184.59540  28152776.62540
  15095265.78800  28232751.72300                  11828554.49340  28232756.60940
   1311794.69300  30777946.55100                   1022177.84000  30777950.97300
  18770693.37100  27154676.59800                  14663241.15040  27154680.45340
 96  9 10  3 59 30.0200000  0  7  3 14 18 19 22 28 29
    -82340.64300  30250984.28500                    -55929.54740  30250990.09840
  26582967.13700  28665026.49600                  20662865.74740  28665032.02740
  -1293759.89600  26649627.83200                   -971502.67340  26649632.12140
  -1846297.69800  28154535.76200                  -1397960.60340  28154540.75440
  15240213.60200  28260334.21500                  11941500.84040  28260339.18340
   1369537.91900  30788934.58200                   1067172.56900  30788939.30100
  18874599.89100  27174449.59000                  14744207.26640  27174453.48040
 96  9 10  4  0  0.0200000  0  7  3 14 18 19 22 28 29
    -78683.45200  30251680.07400                    -53079.76040  30251685.76940
  26751647.26100  28697124.48000                  20794304.79940  28697130.19940
  -1268081.97400  26654513.82400                   -951493.89440  26654518.06640
  -1836809.54000  28156341.16800                  -1390567.19640  28156346.68740
  15385561.86400  28287992.89400                  12054759.23840  28287997.93340
   1427783.59100  30800018.37100                   1112558.82800  30800023.21900
  18978846.76700  27194286.89400                  14825438.59640  27194290.70340
 96  9 10  4  0 30.0200000  0  7  3 14 18 19 22 28 29
    -74775.25900  30252423.67600                    -50034.35240  30252429.31240
  26920569.91100  28729269.21500                  20925932.83140  28729275.12140
  -1242110.54500  26659456.12100                   -931256.41140  26659460.45740
  -1827103.74600  28158188.04300                  -1383004.21440  28158193.22340
  15531306.33000  28315727.37100                  12168326.34640  28315732.23440
   1486526.08800  30811196.40200                   1158332.21600  30811201.56200
  19083418.35900  27214186.39400                  14906922.94940  27214190.25040
 96  9 10  4  1  0.0200000  0  8  3 14 18 19 22 27 28 29
    -70628.38300  30253213.48800                    -46802.96340  30253219.50040
  27089737.41100  28761461.23000                  21057751.64840  28761466.64440
  -1215836.34700  26664455.90200                   -910783.00040  26664460.22640
  -1817173.66500  28160077.93300                  -1375266.44840  28160083.41840
  15677431.64100  28343534.02700                  12282190.22240  28343539.13740
     -5226.79810  31210543.50400
   1545766.86600  30822469.65200                   1204493.86400  30822475.07400
  19188320.36100  27234148.37900                  14988664.76140  27234152.29340
 96  9 10  4  1 30.0200000  0  8  3 14 18 19 22 27 28 29
    -66239.14700  30254049.10500                    -43382.71440  30254053.76940
  27259142.23900  28793698.12100                  21189755.41040  28793703.85140
  -1189245.89300  26669516.01900                   -890063.15540  26669520.39040
  -1807017.07600  28162010.44900                  -1367352.20440  28162015.61740
  15823944.94500  28371414.75400                  12396356.43040  28371419.23040
    -19418.42100  31207841.76900
   1605513.94200  30833839.01900                   1251050.04900  30833844.69500
  19293561.51500  27254175.24600                  15070670.85440  27254179.07840
 96  9 10  4  2  0.0200000  0  8  3 14 18 19 22 27 28 29
    -61620.84800  30254927.08200                    -39783.99640  30254931.85140
  27428778.87000  28825978.34800                  21321939.78640  28825983.93740
  -1162340.46600  26674635.86300                   -869097.87940  26674640.03540
  -1796654.59900  28163982.57400                  -1359277.51240  28163988.05840
  15970853.23300  28399370.18300                  12510830.42240  28399374.89440
    -33526.13000  31205157.63700
   1665762.81400  30845304.30800                   1297997.22100  30845309.04300
  19399152.91800  27274268.43300                  15152949.87040  27274272.25440
 96  9 10  4  2 30.0200000  0  8  3 14 18 19 22 27 28 29
    -56766.16600  30255850.70700                    -36001.07640  30255856.12140
  27598658.13100  28858305.48800                  21454313.22940  28858311.31240
  -1135115.57300  26679816.70700                   -847883.66540  26679820.83240
  -1786101.22200  28165990.83200                  -1351054.07240  28165996.18740
  16118153.86200  28427400.76200                  12625610.13040  28427406.02340
    -47549.51500  31202489.54300                     -9101.25750  31202495.13340
   1726510.38900  30856863.85500                   1345333.01400  30856868.82000
  19505095.03700  27294428.69900                  15235502.16740  27294432.62540
 96  9 10  4  3  0.0200000  0  8  3 14 18 19 22 27 28 29
    -51659.83700  30256821.96500                    -32022.09040  30256826.43040
  27768765.38000  28890675.74600                  21586864.33440  28890682.02740
  -1107546.70700  26685062.81600                   -826401.42940  26685066.98840
  -1775351.74500  28168036.07400                  -1342677.83540  28168041.39440
  16265847.89600  28455506.30800                  12740696.39140  28455511.03140
    -61487.50900  31199836.48000                    -19961.89140  31199842.39840
   1787763.52200  30868520.09800                   1393062.75300  30868525.05100
  19611401.57700  27314658.13700                  15318338.42640  27314661.91040
 96  9 10  4  3 30.0200000  0  8  3 14 18 19 22 27 28 29
    -46305.21900  30257841.18300                    -27849.57740  30257847.26540
  27939078.89400  28923085.36300                  21719576.14440  28923090.67240
  -1079638.85400  26690373.37900                   -804655.04140  26690377.57440
  -1764413.08300  28170117.92600                  -1334154.18540  28170123.09440
  16413921.99200  28483683.59800                  12856078.80240  28483688.15640
    -75352.34200  31197198.63700                    -30765.57640  31197202.32840
   1849508.85800  30880269.61300                   1441176.02400  30880274.68300
  19718053.70700  27334953.43300                  15401443.97740  27334957.46540
 96  9 10  4  4  0.0200000  0  8  3 14 18 19 22 27 28 29
    -40666.98200  30258914.34000                    -23456.09840  30258919.82440
  28109633.00700  28955540.94100                  21852475.45240  28955546.42640
  -1051367.17500  26695753.45700                   -782625.15540  26695757.65240
  -1753255.07200  28172240.83200                  -1325459.60540  28172246.00040
  16562384.33800  28511935.19100                  12971763.74240  28511939.75040
    -89135.81700  31194575.10500                    -41505.86940  31194582.96140
   1911764.89600  30892116.65200                   1489687.24600  30892121.83200
  19825069.73700  27355317.69100                  15484833.08940  27355321.61740
 96  9 10  4  4 30.0200000  0  8  3 14 18 19 22 27 28 29
    -34720.84800  30260045.45700                    -18822.69040  30260051.79740
  28280421.02800  28988040.43300                  21985557.00840  28988046.41040
  -1022720.93500  26701204.55800                   -760303.39440  26701208.88340
  -1741876.59900  28174406.15200                  -1316593.23540  28174411.59040
  16711217.31600  28540256.65200                  13087737.49940  28540261.60940
   -102861.53400  31191963.95700                    -52201.11840  31191968.29340
   1974521.39100  30904059.00400                   1538588.42200  30904063.79300
  19932432.09300  27375748.24600                  15568492.06340  27375752.27740
 96  9 10  4  5  0.0200000  0  9  3 14 18 19 22 27 28 29 31
    -28449.22100  30261238.99600                    -13935.65240  30261243.28540
  28451438.96500  29020584.58200                  22118817.74640  29020590.57040
   -993692.98500  26706728.43300                   -737684.21040  26706732.79340
  -1730255.70700  28176617.39400                  -1307537.97340  28176622.58640
  16860412.36500  28568647.77700                  13203993.37140  28568652.71140
   -116533.33700  31189362.35500                    -62854.37040  31189368.19140
   2037783.22800  30916097.26900                   1587883.38800  30916102.21500
  20040144.09900  27396245.10500                  15652423.49140  27396249.24240
                  30915301.52700
 96  9 10  4  5 30.0210000  0  9  3 14 18 19 22 27 28 29 31
    -21849.25700  30262494.11800                     -8792.76840  30262501.24740
  28622698.67200  29053174.04800                  22252266.86040  29053179.41540
   -964295.64600  26712322.40700                   -714777.18040  26712326.55640
  -1718394.89500  28178874.56300                  -1298295.75040  28178879.94240
  17009975.91700  28597108.82100                  13320536.40340  28597113.73140
   -130149.02000  31186771.55600                    -73463.87040  31186778.11840
   2101547.23400  30928230.95400                   1637569.65600  30928236.05600
  20148197.11100  27416807.00100                  15736620.64040  27416811.12640
    -23110.17600  30910752.97000
 96  9 10  4  6  0.0210000  0  9  3 14 18 19 22 27 28 29 31
    -14909.95900  30263816.02400                     -3385.45840  30263819.97340
  28794191.29500  29085808.19600                  22385897.46640  29085813.62240
   -934521.95700  26717988.07900                   -691576.89640  26717992.25140
  -1706295.36400  28181177.00900                  -1288867.52940  28181182.08340
  17159921.63300  28625642.65700                  13437377.22240  28625646.89940
   -143697.42600  31184192.09500                    -84021.08840  31184200.23140
   2165818.63800  30940461.29000                   1687651.28800  30940466.53200
  20256596.65900  27437434.79800                  15821087.81740  27437438.85240
    -47042.91000  30906197.09500
 96  9 10  4  6 30.0210000  0  9  3 14 18 19 22 27 28 29 31
     -7664.01500  30265194.26600                      2260.74940  30265201.09840
  28965894.54100  29118482.39100                  22519692.19340  29118487.59540
   -904389.94500  26723722.28200                   -668097.40040  26723726.55940
  -1693974.18700  28183521.58700                  -1279266.59040  28183526.87240
  17310243.30800  28654247.72000                  13554510.99040  28654252.05640
   -157172.12700  31181628.30600                    -94520.71740  31181633.88440
   2230591.31600  30952787.47000                   1738123.53900  30952792.38400
  20365342.49700  27458128.22000                  15905824.82640  27458132.09840
    -71006.79900  30901637.00100                     -8093.20350  30901642.28640
 96  9 10  4  7  0.0210000  0  9  3 14 18 19 22 27 28 29 31
      -135.50400  30266626.85200                      8127.18440  30266632.48940
  29137804.27800  29151195.07100                  22653647.82940  29151200.40340
   -873917.53100  26729520.79000                   -644352.65440  26729524.98540
  -1681430.83300  28185908.50900                  -1269492.52340  28185914.04040
  17460948.47700  28682926.25100                  13671943.59240  28682930.79840
   -170546.75300  31179083.10200                   -104942.42140  31179090.58340
   2295876.19500  30965210.68100                   1788994.88900  30965215.77000
  20474443.40000  27478889.74300                  15990838.52140  27478893.73940
    -94982.55400  30897074.93100                    -26775.56040  30897080.91940
 96  9 10  4  7 30.0210000  0  9  3 14 18 19 22 27 28 29 31
      7655.79200  30268109.39900                     14198.38240  30268114.28640
  29309916.62400  29183947.38400                  22787761.34340  29183952.54040
   -843119.96900  26735381.52400                   -620354.54540  26735385.54440
  -1668686.08900  28188333.68100                  -1259561.53040  28188339.09540
  17612038.35400  28711677.72700                  13789675.96040  28711682.55640
   -183817.06100  31176557.54800                   -115282.80440  31176561.83740
   2361670.92800  30977730.87600                   1840263.55700  30977736.01600
  20583897.47200  27499717.89900                  16076127.40340  27499721.88440
   -118962.81700  30892512.17300                    -45461.46240  30892516.30940
 96  9 10  4  8  0.0210000  0  9  3 14 18 19 22 27 28 29 31
     15689.55600  30269637.65700                     20458.47840  30269642.21640
  29482211.10000  29216733.68800                  22922016.76640  29216739.50140
   -812004.36700  26741302.66500                   -596108.61240  26741306.91940
  -1655760.14800  28190793.43100                  -1249489.34040  28190798.51640
  17763474.56500  28740494.81300                  13907678.20340  28740499.07940
   -197005.88000  31174048.17300                   -125559.75840  31174053.91540
   2427967.17200  30990346.54800                   1891923.00800  30990351.68400
  20693701.29100  27520612.89900                  16161688.81740  27520617.04840
   -142959.62000  30887945.33700                    -64160.24340  30887949.62640
 96  9 10  4  8 30.0210000  0  9  3 14 18 19 22 27 28 29 31
     23967.48000  30271213.58700                     26908.81840  30271219.34140
  29654691.56800  29249555.84500                  23056417.12640  29249561.17740
   -780572.88500  26747283.73500                   -571616.54340  26747287.84840
  -1642650.40900  28193288.40700                  -1239273.94140  28193293.72740
  17915233.45500  28769373.70400                  14025931.87140  28769378.46240
   -210119.12800  31171552.90700                   -135777.75640  31171559.48140
   2494763.04700  31003057.39900                   1943971.77300  31003062.31700
  20803839.81400  27541571.78200                  16247511.04040  27541575.52040
   -166968.64600  30883377.43800                    -82868.56940  30883381.70440
 96  9 10  4  9  0.0210000  0  9  3 14 18 19 22 27 28 29 31
     32521.58800  30272841.32100                     33574.42140  30272846.13840
  29827371.62500  29282415.89100                  23190973.00440  29282421.44640
   -748812.77500  26753327.60200                   -546868.39740  26753331.75140
  -1629352.39600  28195818.62600                  -1228911.83440  28195824.06340
  18067321.11000  28798314.81300                  14144441.72640  28798319.84140
   -223171.90200  31169068.94600                   -145948.68640  31169075.42740
   2562064.95200  31015864.61000                   1996414.83500  31015869.24700
  20914305.80100  27562592.54800                  16333588.43340  27562596.50940
   -190980.51900  30878807.29000                   -101579.06340  30878812.86840
 96  9 10  4  9 30.0210000  0  9  3 14 18 19 22 27 28 29 31
     41370.47600  30274525.34500                     40469.70240  30274531.47340
  30000250.92800  29315313.64900                  23325684.15340  29315318.95840
   -716706.58700  26759437.01600                   -521850.58240  26759441.32940
  -1615863.24000  28198385.61000                  -1218400.78840  28198391.16540
  18219726.73000  28827316.77400                  14263199.35540  28827321.54440
   -236176.26000  31166594.23500                   -156081.82540  31166599.53240
   2629872.52900  31028767.79800                   2049251.94700  31028772.73900
  21025098.59600  27583675.79800                  16419920.47840  27583679.71240
   -214994.47100  30874237.86000                   -120291.20740  30874242.75940
 96  9 10  4 10  0.0210000  0  9  3 14 18 19 22 27 28 29 31
     50539.01700  30276269.18800                     47614.08740  30276275.02440
  30173329.81000  29348249.15700                  23460550.81540  29348254.37240
   -684241.40500  26765614.77400                   -496553.02940  26765619.09840
  -1602174.45100  28200990.47700                  -1207734.18040  28200995.95040
  18372451.56300  28856379.38400                  14382205.71640  28856384.48140
   -249125.62400  31164130.39100                   -166172.20040  31164134.76340
   2698189.93700  31041768.37600                   2102486.32400  31041772.97700
  21136226.05300  27604822.74300                  16506513.29940  27604826.49340
   -239014.46300  30869666.56300                   -139007.98840  30869670.81740
 96  9 10  4 10 30.0210000  0  9  3 14 18 19 22 27 28 29 31
     60050.97000  30278079.16500                     55026.06740  30278084.29840
  30346613.22300  29381224.25900                  23595576.85340  29381230.31740
   -651425.98400  26771859.53200                   -470982.56740  26771863.72740
  -1588278.19800  28203634.60200                  -1196905.92040  28203639.73540
  18525522.62200  28885507.88400                  14501481.85440  28885512.85240
   -262014.75900  31161677.18100                   -176215.58840  31161681.59840
   2767017.15900  31054865.77400                   2156117.96800  31054870.72000
  21247692.02600  27626034.00900                  16593369.89740  27626037.91140
   -263041.08500  30865094.51600                   -157729.93740  30865100.17740
 96  9 10  4 11  0.0210000  0  9  3 14 18 19 22 27 28 29 31
     69906.91500  30279955.32100                     62706.05740  30279958.62640
  30520090.30500  29414236.31300                  23730753.77640  29414241.80940
   -618250.70200  26778172.60200                   -445131.69040  26778176.70440
  -1574165.73400  28206320.26600                  -1185909.16640  28206325.43440
  18678948.47300  28914703.68800                  14621034.46740  28914708.29440
   -274839.58900  31159236.65700                   -186208.87040  31159242.79840
   2836358.53000  31068060.75100                   2210150.22700  31068065.81700
  21359521.34800  27647314.31300                  16680509.63140  27647318.16940
   -287075.80900  30860520.76600                   -176458.30940  30860527.66140
 96  9 10  4 11 30.0210000  0  9  3 14 18 19 22 27 28 29 31
     80093.67800  30281894.00900                     70643.77340  30281899.37640
  30693748.29400  29447281.98500                  23866071.67940  29447287.47040
   -584697.89000  26784557.52400                   -418986.63940  26784561.63840
  -1559833.70500  28209047.46200                  -1174741.33740  28209052.68840
  18832718.71300  28943965.14100                  14740855.42840  28943969.67740
   -287584.52200  31156810.41500                   -196139.86840  31156817.24740
   2906212.79000  31081353.48500                   2264582.16100  31081358.41500
  21471743.46800  27668669.59500                  16767955.43840  27668673.41540
   -311116.07800  30855945.46200                   -195190.93840  30855950.16140
 96  9 10  4 12  0.0210000  0  9  3 14 18 19 22 27 28 29 31
     90598.66300  30283892.78200                     78829.48640  30283897.91540
  30867578.55900  29480360.29800                  24001523.82940  29480365.99340
   -550766.65000  26791014.29800                   -392546.71140  26791018.48140
  -1545284.34500  28211816.30600                  -1163404.16040  28211821.42740
  18986821.39700  28973290.27400                  14860935.43940  28973294.56340
   -300258.43200  31154399.06300                   -206015.60040  31154405.45040
   2976572.44700  31094742.60200                   2319407.90600  31094747.40700
  21584361.01200  27690100.14900                  16855709.36740  27690103.89940
   -335172.03900  30851368.72700                   -213935.80240  30851374.92740
 96  9 10  4 12 30.0210000  0  9  3 14 18 19 22 27 28 29 31
    101402.17400  30285947.92300                     87247.88440  30285953.52440
  31041577.19900  29513471.69600                  24137107.15340  29513477.30940
   -516444.65200  26797545.61800                   -365802.29740  26797549.76640
  -1530515.44600  28214626.61000                  -1151895.90940  28214631.79040
  19141243.27400  29002675.50100                  14981264.16440  29002680.25940
   -312865.92600  31151999.97000                   -215839.55240  31152005.19640
   3047436.52900  31108227.83700                   2374626.68400  31108232.41500
  21697359.64700  27711602.87600                  16943760.24540  27711606.64940
   -359231.48800  30846790.32900                   -232683.32840  30846797.49340
 96  9 10  4 13  0.0210000  0  9  3 14 18 19 22 27 28 29 31
    112506.83900  30288061.15700                     95900.97140  30288067.11040
  31215752.68000  29546616.13400                  24272828.30940  29546621.82940
   -481703.37800  26804156.64100                   -338731.16740  26804160.80240
  -1515521.26400  28217479.81300                  -1140212.10540  28217485.04040
  19295969.76300  29032118.90700                  15101830.25140  29032123.87640
   -325389.54300  31149616.29000                   -225598.14240  31149622.03240
   3118819.85000  31121811.47700                   2430250.07100  31121815.78600
  21810748.37400  27733180.02400                  17032115.09840  27733183.73940
   -383275.16000  30842214.56300                   -251418.62540  30842220.64540
 96  9 10  4 13 30.0210000  0  9  3 14 18 19 22 27 28 29 31
    123914.92600  30290232.52400                    104790.43640  30290237.51640
  31390101.46900  29579792.30600                  24408684.48840  29579798.07140
   -446559.31700  26810844.46200                   -311346.18240  26810848.59840
  -1500326.21300  28220371.47700                  -1128371.78740  28220376.37640
  19450983.55100  29061616.97700                  15222620.22240  29061621.87640
   -337842.04200  31147247.36800                   -235301.29440  31147253.34540
   3190712.05500  31135492.29800                   2486269.98900  31135496.34500
  21924492.12200  27754824.81300                  17120746.58740  27754828.48140
   -407315.61400  30837639.52400                   -270151.37740  30837645.47740
 96  9 10  4 14  0.0210000  0  9  3 14 18 19 22 27 28 29 31
    135638.77500  30292464.05600                    113925.91640  30292468.27440
  31564617.33800  29613003.36800                  24544670.87240  29613009.18140
   -411035.83100  26817604.39100                   -283665.53840  26817608.50540
  -1484940.09800  28223299.08700                  -1116382.58840  28223304.48940
  19606292.17000  29091171.79800                  15343639.91140  29091176.57940
   -350238.60200  31144888.05600                   -244960.83140  31144893.18840
   3263108.36500  31149268.54800                   2542682.75100  31149273.13800
  22038550.27200  27776529.14100                  17209623.06740  27776533.03240
   -431347.37000  30833066.56300                   -288877.38540  30833070.98140
 96  9 10  4 14 30.0210000  0  9  3 14 18 19 22 27 28 29 31
    147700.88100  30294758.38400                    123324.96040  30294764.57140
  31739309.53800  29646245.27400                  24680794.66740  29646250.55940
   -375140.05500  26824435.05600                   -255694.79740  26824439.22740
  -1469360.93300  28226263.77400                  -1104242.94940  28226269.08340
  19761915.73700  29120785.70400                  15464905.03140  29120790.16940
   -362573.01800  31142540.93800                   -254572.01040  31142547.98540
   3336020.50600  31163143.00900                   2599497.40600  31163147.70800
  22152920.47100  27798293.26600                  17298742.69640  27798297.09840
   -455360.49000  30828497.25100                   -307588.87840  30828504.28640
 96  9 10  4 15  0.0210000  0  9  3 14 18 19 22 27 28 29 31
    160105.55300  30297118.58700                    132990.97040  30297124.20040
  31914170.74700  29679520.43100                  24817050.14240  29679526.29040
   -338890.82800  26831333.11800                   -227448.63940  26831337.31340
  -1453591.59500  28229264.49300                  -1091955.13040  28229269.72040
  19917863.10000  29150461.82900                  15586422.45940  29150466.37640
   -374852.70900  31140204.43800                   -264140.49940  31140209.55940
   3409445.83200  31177115.70400                   2656711.96900  31177120.00100
  22267612.29400  27820118.43100                  17388112.94840  27820122.41540
   -479366.11200  30823929.05600                   -326294.48340  30823933.83740
 96  9 10  4 15 30.0210000  0  9  3 14 18 19 22 27 28 29 31
    172857.27000  30299545.47700                    142927.42740  30299551.04440
  32089193.58600  29712826.47700                  24953431.55540  29712832.34840
   -302290.83700  26838297.78200                   -198929.15940  26838301.96640
  -1437627.52900  28232302.47000                  -1079515.56840  28232307.77840
  20074154.35300  29180202.65700                  15708207.84540  29180207.23940
   -387083.37100  31137875.73500                   -273670.83040  31137880.22340
   3483385.67000  31191185.97700                   2714327.47600  31191190.66100
  22382631.59100  27842005.72700                  17477738.37140  27842009.47740
   -503361.45000  30819362.28200                   -344992.04840  30819366.98140
 96  9 10  4 16  0.0210000  0  9  3 14 18 19 22 27 28 29 31
    185942.07600  30302035.15700                    153123.42140  30302042.05240
  32264358.72500  29746157.99300                  25089923.87540  29746163.46640
   -265354.61500  26845326.58700                   -170147.68540  26845330.73540
  -1421469.25800  28235377.29000                  -1066924.68240  28235382.39940
  20230773.55300  29210006.29000                  15830248.78340  29210010.81340
   -399273.15700  31135556.61800                   -283169.25940  31135563.66540
   3557834.90900  31205353.29000                   2772339.88900  31205357.86000
  22497984.03600  27863956.67300                  17567623.39240  27863960.55240
   -527352.61000  30814797.46200                   -363686.47140  30814802.60640
 96  9 10  4 16 30.0210000  0  9  3 14 18 19 22 27 28 29 31
    199357.90900  30304588.60200                    163577.38840  30304594.39140
  32439672.66900  29779519.04800                  25226532.12340  29779524.94240
   -228075.60200  26852420.49300                   -141099.09140  26852424.59540
  -1405114.80600  28238489.57900                  -1054180.92340  28238494.82940
  20387710.09400  29239870.53200                  15952536.98740  29239874.90340
   -411408.53400  31133248.22000                   -292625.31940  31133254.12640
   3632799.83200  31219618.62600                   2830754.13700  31219623.11000
  22613699.28900  27885976.52400                  17657791.11740  27885980.26340
   -551341.19900  30810232.21200                   -382378.79240  30810236.80640
 96  9 10  4 17  0.0220000  0  9  3 14 18 19 22 27 28 29 31
    213113.93800  30307207.05300                    174296.37340  30307211.83440
  32615131.93600  29812910.13100                  25363253.59340  29812915.41640
   -190430.90200  26859583.98200                   -111765.55440  26859588.18940
  -1388552.06500  28241641.34200                  -1041274.88040  28241646.13540
  20544963.32000  29269794.46700                  16075071.96540  29269799.52940
   -423469.49900  31130952.29500                   -302023.45840  31130956.88940
   3708289.00900  31233983.65400                   2889576.89600  31233988.40000
  22729788.71800  27908067.59200                  17748250.40640  27908071.49440
   -575300.76200  30805672.67800                   -401048.52840  30805676.61540
 96  9 10  4 17 30.0220000  0  9  3 14 18 19 22 27 28 29 31
    227209.88200  30309889.30300                    185280.24940  30309893.69740
  32790714.54700  29846320.90400                  25500071.23540  29846326.10740
   -152419.20400  26866817.35700                    -82146.04040  26866821.49440
  -1371787.56500  28244831.23200                  -1028211.60540  28244836.13140
  20702503.38500  29299773.66200                  16197830.46540  29299778.44340
   -435454.81300  31128671.10700                   -311362.57840  31128677.04940
   3784294.81300  31248447.13100                   2948802.22500  31248451.56400
  22846235.66400  27930226.72400                  17838988.28540  27930230.59240
   -599222.51500  30801120.95900                   -419688.84140  30801124.22840
 96  9 10  4 18  0.0220000  0  9  3 14 18 19 22 27 28 29 31
    241637.28600  30312633.89600                    196522.39540  30312639.43940
  32966428.23800  29879758.01400                  25636990.96940  29879764.14240
   -114037.61700  26874121.03700                    -52238.30640  26874125.10340
  -1354822.13900  28248059.62300                  -1014991.76740  28248064.28740
  20860311.20500  29329803.36500                  16320797.57340  29329808.08840
   -447357.76800  31126406.62300                   -320637.56340  31126411.49840
   3860813.06600  31263007.88900                   3008426.84800  31263012.44300
  22963036.46500  27952453.13100                  17930001.88840  27952456.97440
   -623089.03300  30796578.69300                   -438286.07540  30796584.41240
 96  9 10  4 18 30.0220000  0  9  3 14 18 19 22 27 28 29 31
    256408.42600  30315445.11500                    208032.41340  30315450.17840
  33142282.87200  29913221.74000                  25774020.52940  29913226.92040
    -75262.27900  26881499.65400                    -22023.74740  26881503.97840
  -1337640.04100  28251329.34900                  -1001603.08140  28251334.47140
  21018412.05000  29359889.17800                  16443993.04540  29359893.58440
   -459160.97800  31124160.71700                   -329834.81940  31124166.98640
   3937850.90400  31277667.91200                   3068456.34600  31277672.09200
  23080203.55600  27974749.18500                  18021300.91940  27974752.95940
   -646864.46800  30792054.53700                   -456812.32040  30792060.08040
 96  9 10  4 19  0.0220000  0  9  3 14 18 19 22 27 28 29 31
    271531.51700  30318322.38900                    219816.70440  30318326.95940
  33318278.58100  29946712.93500                  25911160.03440  29946718.88940
    -36079.72600  26888955.99800                      8508.12240  26888960.21740
  -1320230.42600  28254642.08400                   -988037.11640  28254647.18140
  21176809.30700  29390030.90400                  16567419.47040  29390035.67440
   -470867.69700  31121933.05300                   -338956.83840  31121939.09940
   4015410.16800  31292426.88900                   3128892.16300  31292431.38100
  23197725.30100  27997113.09200                  18112876.30540  27997116.94740
   -670543.74000  30787548.65400                   -475263.66940  30787553.70540
 96  9 10  4 19 30.0220000  0  9  3 14 18 19 22 27 28 29 31
    287005.23400  30321267.23200                    231874.17240  30321272.08440
  33494417.89200  29980231.73200                  26048411.41740  29980237.51040
      3495.64500  26896486.84900                     39346.07940  26896491.01040
  -1302606.39400  28257995.74800                   -974304.08840  28258000.95140
  21335493.09500  29420227.13100                  16691069.17940  29420232.41640
   -482495.02200  31119720.08400                   -348017.07340  31119727.54140
   4093480.78900  31307282.95900                   3189726.44200  31307287.63900
  23315591.34200  28019542.02900                  18204719.97140  28019546.01440
   -694148.26400  30783056.51400                   -493656.77540  30783064.46340
 96  9 10  4 20  0.0220000  0  9  3 14 18 19 22 27 28 29 31
    302844.69700  30324281.95100                    244216.62940  30324286.29940
  33670711.61700  30013778.99800                  26185783.13840  30013784.78740
     43464.06200  26904092.62300                     70490.30740  26904096.77140
  -1284759.52400  28261392.06000                   -960397.40440  28261397.22840
  21494478.78500  29450481.34200                  16814954.11740  29450486.56840
   -494035.04500  31117523.50600                   -357009.20440  31117528.26440
   4172067.24500  31322237.52900                   3250962.65900  31322242.16600
  23433802.57100  28042037.13900                  18296832.61340  28042040.98240
   -717678.76800  30778579.40400                   -511992.15440  30778585.09940
 96  9 10  4 20 30.0220000  0  9  3 14 18 19 22 27 28 29 31
    319071.78300  30327368.82600                    256861.14340  30327374.31040
  33847156.70500  30047355.71700                  26323272.80140  30047362.09240
     83828.85300  26911773.80300                    101943.39940  26911777.97440
  -1266679.09900  28264832.74000                   -946308.73540  28264837.84940
  21653764.97100  29480792.56800                  16939073.22140  29480797.68940
   -505489.88900  31115343.87300                   -365935.01040  31115350.52940
   4251175.31300  31337291.50600                   3312605.33700  31337296.23600
  23552353.65400  28064596.78700                  18389210.08040  28064600.65440
   -741155.34300  30774111.18500                   -530285.59640  30774114.15040
 96  9 10  4 21  0.0220000  0  9  3 14 18 19 22 27 28 29 31
    335688.95700  30330531.01400                    269809.62340  30330536.87340
  34023752.72900  30080961.91200                  26460880.08740  30080967.50240
    124596.50900  26919531.72400                    133710.41240  26919535.92040
  -1248371.08700  28268316.71700                   -932042.73040  28268321.80340
  21813329.74700  29511156.52100                  17063409.41040  29511161.25640
   -516862.39000  31113180.02900                   -374796.61740  31113185.19740
   4330808.10900  31352445.09900                   3374656.87700  31352449.41200
  23671238.19500  28087219.31800                  18481847.38540  28087223.22140
   -764596.47600  30769651.13100                   -548551.33040  30769654.45940
 96  9 10  4 21 30.0220000  0  9  3 14 18 19 22 27 28 29 31
    352683.11400  30333765.20100                    283051.85940  30333769.70140
  34200482.33400  30114590.55300                  26598591.45540  30114595.52140
    165760.03400  26927364.82600                    165785.88940  26927368.93940
  -1229844.55100  28271842.02900                   -917606.44240  28271847.16240
  21973169.50900  29541573.25600                  17187959.87640  29541578.61140
   -528149.10000  31111031.98200                   -383591.41940  31111037.42040
   4410961.51500  31367697.87300                   3437114.10500  31367702.29500
  23790459.71200  28109906.67800                  18574747.25840  28109910.48640
   -787994.18600  30765198.27100                   -566783.33940  30765204.18940
 96  9 10  4 22  0.0220000  0  9  3 14 18 19 22 27 28 29 31
    370037.56700  30337067.97400                    296574.83840  30337072.75640
  34377337.53200  30148245.44300                  26736400.67740  30148251.59640
    207321.81000  26935273.89600                    198171.69740  26935277.95140
  -1211107.85900  28275407.42000                   -903006.39740  28275412.42440
  22133276.46100  29572040.48200                  17312718.53440  29572045.89640
   -539349.71700  31108900.70100                   -392319.11040  31108906.91240
   4491632.08900  31383048.96700                   3499974.29900  31383053.03300
  23910020.99200  28132658.45100                  18667911.89340  28132662.28340
   -811338.28200  30760755.34900                   -584973.46240  30760760.45940
